<?xml version="1.0" encoding="UTF-8" standalone="no" ?>
<gpx xmlns="http://www.topografix.com/GPX/1/1" xmlns:xsi="http://www.w3.org/2001/XMLSchema-instance" xsi:schemaLocation="http://www.topografix.com/GPX/1/1 http://www.topografix.com/GPX/1/1/gpx.xsd" version="1.1" creator="VisuGPX - https://www.visugpx.com">
  <metadata>
    <name>vtt casse pattes</name>
    <desc><![CDATA[merci jérôme]]></desc>
  </metadata>
  <trk>
    <name><![CDATA[vtt jerome]]></name>
    <trkseg>
      <trkpt lat="45.63863" lon="4.39631">
        <ele>611.4</ele>
        <time>2015-07-12T06:23:31.000Z</time>
      </trkpt>
      <trkpt lat="45.63852" lon="4.39636">
        <ele>610.5</ele>
        <time>2015-07-12T06:23:36.000Z</time>
      </trkpt>
      <trkpt lat="45.63856" lon="4.39663">
        <ele>609.9</ele>
        <time>2015-07-12T06:23:43.000Z</time>
      </trkpt>
      <trkpt lat="45.63857" lon="4.39668">
        <ele>609.8</ele>
        <time>2015-07-12T06:23:44.000Z</time>
      </trkpt>
      <trkpt lat="45.63862" lon="4.39695">
        <ele>610.1</ele>
        <time>2015-07-12T06:23:49.000Z</time>
      </trkpt>
      <trkpt lat="45.63867" lon="4.39723">
        <ele>609.8</ele>
        <time>2015-07-12T06:23:54.000Z</time>
      </trkpt>
      <trkpt lat="45.63872" lon="4.3975">
        <ele>609</ele>
        <time>2015-07-12T06:23:59.000Z</time>
      </trkpt>
      <trkpt lat="45.63878" lon="4.39776">
        <ele>607.9</ele>
        <time>2015-07-12T06:24:03.000Z</time>
      </trkpt>
      <trkpt lat="45.63885" lon="4.39804">
        <ele>607.2</ele>
        <time>2015-07-12T06:24:07.000Z</time>
      </trkpt>
      <trkpt lat="45.63887" lon="4.39812">
        <ele>606.9</ele>
        <time>2015-07-12T06:24:08.000Z</time>
      </trkpt>
      <trkpt lat="45.63897" lon="4.39833">
        <ele>605.6</ele>
        <time>2015-07-12T06:24:11.000Z</time>
      </trkpt>
      <trkpt lat="45.63906" lon="4.39846">
        <ele>604.6</ele>
        <time>2015-07-12T06:24:13.000Z</time>
      </trkpt>
      <trkpt lat="45.6392" lon="4.39868">
        <ele>602.1</ele>
        <time>2015-07-12T06:24:16.000Z</time>
      </trkpt>
      <trkpt lat="45.63924" lon="4.39876">
        <ele>601.1</ele>
        <time>2015-07-12T06:24:17.000Z</time>
      </trkpt>
      <trkpt lat="45.63924" lon="4.39909">
        <ele>598.5</ele>
        <time>2015-07-12T06:24:20.000Z</time>
      </trkpt>
      <trkpt lat="45.63919" lon="4.3993">
        <ele>597.8</ele>
        <time>2015-07-12T06:24:22.000Z</time>
      </trkpt>
      <trkpt lat="45.6391" lon="4.39961">
        <ele>597.2</ele>
        <time>2015-07-12T06:24:25.000Z</time>
      </trkpt>
      <trkpt lat="45.63901" lon="4.39986">
        <ele>595.3</ele>
        <time>2015-07-12T06:24:28.000Z</time>
      </trkpt>
      <trkpt lat="45.63896" lon="4.39998">
        <ele>594.1</ele>
        <time>2015-07-12T06:24:30.000Z</time>
      </trkpt>
      <trkpt lat="45.63886" lon="4.40021">
        <ele>590.7</ele>
        <time>2015-07-12T06:24:34.000Z</time>
      </trkpt>
      <trkpt lat="45.63884" lon="4.40028">
        <ele>590.2</ele>
        <time>2015-07-12T06:24:35.000Z</time>
      </trkpt>
      <trkpt lat="45.63887" lon="4.40056">
        <ele>586.1</ele>
        <time>2015-07-12T06:24:39.000Z</time>
      </trkpt>
      <trkpt lat="45.63887" lon="4.40074">
        <ele>583.5</ele>
        <time>2015-07-12T06:24:41.000Z</time>
      </trkpt>
      <trkpt lat="45.63887" lon="4.40107">
        <ele>579.7</ele>
        <time>2015-07-12T06:24:44.000Z</time>
      </trkpt>
      <trkpt lat="45.63888" lon="4.40143">
        <ele>575.1</ele>
        <time>2015-07-12T06:24:47.000Z</time>
      </trkpt>
      <trkpt lat="45.63887" lon="4.40179">
        <ele>574.3</ele>
        <time>2015-07-12T06:24:50.000Z</time>
      </trkpt>
      <trkpt lat="45.63885" lon="4.4019">
        <ele>574.3</ele>
        <time>2015-07-12T06:24:51.000Z</time>
      </trkpt>
      <trkpt lat="45.63876" lon="4.40213">
        <ele>574.7</ele>
        <time>2015-07-12T06:24:54.000Z</time>
      </trkpt>
      <trkpt lat="45.63868" lon="4.40226">
        <ele>574</ele>
        <time>2015-07-12T06:24:56.000Z</time>
      </trkpt>
      <trkpt lat="45.63853" lon="4.40252">
        <ele>574.1</ele>
        <time>2015-07-12T06:25:00.000Z</time>
      </trkpt>
      <trkpt lat="45.63838" lon="4.40275">
        <ele>572.8</ele>
        <time>2015-07-12T06:25:04.000Z</time>
      </trkpt>
      <trkpt lat="45.63824" lon="4.40298">
        <ele>572.3</ele>
        <time>2015-07-12T06:25:08.000Z</time>
      </trkpt>
      <trkpt lat="45.63811" lon="4.40323">
        <ele>570.9</ele>
        <time>2015-07-12T06:25:12.000Z</time>
      </trkpt>
      <trkpt lat="45.63808" lon="4.4033">
        <ele>570.4</ele>
        <time>2015-07-12T06:25:13.000Z</time>
      </trkpt>
      <trkpt lat="45.63801" lon="4.40349">
        <ele>569</ele>
        <time>2015-07-12T06:25:16.000Z</time>
      </trkpt>
      <trkpt lat="45.63796" lon="4.40377">
        <ele>568.7</ele>
        <time>2015-07-12T06:25:20.000Z</time>
      </trkpt>
      <trkpt lat="45.63791" lon="4.40405">
        <ele>568.7</ele>
        <time>2015-07-12T06:25:24.000Z</time>
      </trkpt>
      <trkpt lat="45.63787" lon="4.40426">
        <ele>568.7</ele>
        <time>2015-07-12T06:25:27.000Z</time>
      </trkpt>
      <trkpt lat="45.63781" lon="4.40453">
        <ele>568.8</ele>
        <time>2015-07-12T06:25:31.000Z</time>
      </trkpt>
      <trkpt lat="45.63778" lon="4.40476">
        <ele>569.1</ele>
        <time>2015-07-12T06:25:35.000Z</time>
      </trkpt>
      <trkpt lat="45.63786" lon="4.4049">
        <ele>570.1</ele>
        <time>2015-07-12T06:25:39.000Z</time>
      </trkpt>
      <trkpt lat="45.63802" lon="4.40504">
        <ele>572.5</ele>
        <time>2015-07-12T06:25:47.000Z</time>
      </trkpt>
      <trkpt lat="45.63815" lon="4.40525">
        <ele>574.7</ele>
        <time>2015-07-12T06:25:56.000Z</time>
      </trkpt>
      <trkpt lat="45.63817" lon="4.40551">
        <ele>575.9</ele>
        <time>2015-07-12T06:26:04.000Z</time>
      </trkpt>
      <trkpt lat="45.63822" lon="4.40579">
        <ele>577.3</ele>
        <time>2015-07-12T06:26:12.000Z</time>
      </trkpt>
      <trkpt lat="45.63833" lon="4.40599">
        <ele>578.9</ele>
        <time>2015-07-12T06:26:20.000Z</time>
      </trkpt>
      <trkpt lat="45.63848" lon="4.40617">
        <ele>581</ele>
        <time>2015-07-12T06:26:29.000Z</time>
      </trkpt>
      <trkpt lat="45.63863" lon="4.40633">
        <ele>582.4</ele>
        <time>2015-07-12T06:26:38.000Z</time>
      </trkpt>
      <trkpt lat="45.63871" lon="4.40641">
        <ele>582.5</ele>
        <time>2015-07-12T06:26:43.000Z</time>
      </trkpt>
      <trkpt lat="45.63869" lon="4.4067">
        <ele>580</ele>
        <time>2015-07-12T06:26:50.000Z</time>
      </trkpt>
      <trkpt lat="45.63882" lon="4.40691">
        <ele>577.6</ele>
        <time>2015-07-12T06:26:54.000Z</time>
      </trkpt>
      <trkpt lat="45.63891" lon="4.40703">
        <ele>576.2</ele>
        <time>2015-07-12T06:26:56.000Z</time>
      </trkpt>
      <trkpt lat="45.63904" lon="4.40721">
        <ele>576.2</ele>
        <time>2015-07-12T06:26:59.000Z</time>
      </trkpt>
      <trkpt lat="45.63907" lon="4.4073">
        <ele>576.5</ele>
        <time>2015-07-12T06:27:00.000Z</time>
      </trkpt>
      <trkpt lat="45.63909" lon="4.40738">
        <ele>576.7</ele>
        <time>2015-07-12T06:27:01.000Z</time>
      </trkpt>
      <trkpt lat="45.63909" lon="4.40763">
        <ele>576.2</ele>
        <time>2015-07-12T06:27:04.000Z</time>
      </trkpt>
      <trkpt lat="45.63908" lon="4.40796">
        <ele>574.4</ele>
        <time>2015-07-12T06:27:08.000Z</time>
      </trkpt>
      <trkpt lat="45.63908" lon="4.40816">
        <ele>572.6</ele>
        <time>2015-07-12T06:27:11.000Z</time>
      </trkpt>
      <trkpt lat="45.63911" lon="4.40846">
        <ele>569.1</ele>
        <time>2015-07-12T06:27:15.000Z</time>
      </trkpt>
      <trkpt lat="45.63912" lon="4.40854">
        <ele>568</ele>
        <time>2015-07-12T06:27:16.000Z</time>
      </trkpt>
      <trkpt lat="45.63917" lon="4.40881">
        <ele>564.1</ele>
        <time>2015-07-12T06:27:19.000Z</time>
      </trkpt>
      <trkpt lat="45.63924" lon="4.4091">
        <ele>561</ele>
        <time>2015-07-12T06:27:22.000Z</time>
      </trkpt>
      <trkpt lat="45.63931" lon="4.40927">
        <ele>559.2</ele>
        <time>2015-07-12T06:27:24.000Z</time>
      </trkpt>
      <trkpt lat="45.63946" lon="4.40942">
        <ele>558.3</ele>
        <time>2015-07-12T06:27:27.000Z</time>
      </trkpt>
      <trkpt lat="45.63958" lon="4.40946">
        <ele>558.7</ele>
        <time>2015-07-12T06:27:29.000Z</time>
      </trkpt>
      <trkpt lat="45.63968" lon="4.40952">
        <ele>558.6</ele>
        <time>2015-07-12T06:27:31.000Z</time>
      </trkpt>
      <trkpt lat="45.63983" lon="4.40966">
        <ele>558.4</ele>
        <time>2015-07-12T06:27:35.000Z</time>
      </trkpt>
      <trkpt lat="45.63987" lon="4.4097">
        <ele>558.3</ele>
        <time>2015-07-12T06:27:36.000Z</time>
      </trkpt>
      <trkpt lat="45.64004" lon="4.4099">
        <ele>558.6</ele>
        <time>2015-07-12T06:27:41.000Z</time>
      </trkpt>
      <trkpt lat="45.64012" lon="4.40997">
        <ele>558.6</ele>
        <time>2015-07-12T06:27:43.000Z</time>
      </trkpt>
      <trkpt lat="45.64031" lon="4.41011">
        <ele>558.9</ele>
        <time>2015-07-12T06:27:48.000Z</time>
      </trkpt>
      <trkpt lat="45.64035" lon="4.41014">
        <ele>558.8</ele>
        <time>2015-07-12T06:27:49.000Z</time>
      </trkpt>
      <trkpt lat="45.64051" lon="4.41022">
        <ele>558.5</ele>
        <time>2015-07-12T06:27:54.000Z</time>
      </trkpt>
      <trkpt lat="45.64056" lon="4.41033">
        <ele>558.4</ele>
        <time>2015-07-12T06:27:58.000Z</time>
      </trkpt>
      <trkpt lat="45.64049" lon="4.41055">
        <ele>559.7</ele>
        <time>2015-07-12T06:28:08.000Z</time>
      </trkpt>
      <trkpt lat="45.6404" lon="4.41059">
        <ele>560.4</ele>
        <time>2015-07-12T06:28:15.000Z</time>
      </trkpt>
      <trkpt lat="45.64021" lon="4.41066">
        <ele>561.5</ele>
        <time>2015-07-12T06:28:27.000Z</time>
      </trkpt>
      <trkpt lat="45.64017" lon="4.41069">
        <ele>562.1</ele>
        <time>2015-07-12T06:28:30.000Z</time>
      </trkpt>
      <trkpt lat="45.64001" lon="4.41073">
        <ele>562.4</ele>
        <time>2015-07-12T06:28:40.000Z</time>
      </trkpt>
      <trkpt lat="45.63994" lon="4.41088">
        <ele>565.6</ele>
        <time>2015-07-12T06:28:49.000Z</time>
      </trkpt>
      <trkpt lat="45.64012" lon="4.41093">
        <ele>568.4</ele>
        <time>2015-07-12T06:29:09.000Z</time>
      </trkpt>
      <trkpt lat="45.64029" lon="4.41103">
        <ele>571.8</ele>
        <time>2015-07-12T06:29:22.000Z</time>
      </trkpt>
      <trkpt lat="45.64044" lon="4.41114">
        <ele>575.3</ele>
        <time>2015-07-12T06:30:06.000Z</time>
      </trkpt>
      <trkpt lat="45.64061" lon="4.41122">
        <ele>578.7</ele>
        <time>2015-07-12T06:30:17.000Z</time>
      </trkpt>
      <trkpt lat="45.64067" lon="4.41126">
        <ele>580.4</ele>
        <time>2015-07-12T06:30:21.000Z</time>
      </trkpt>
      <trkpt lat="45.64064" lon="4.41145">
        <ele>585.5</ele>
        <time>2015-07-12T06:30:53.000Z</time>
      </trkpt>
      <trkpt lat="45.64054" lon="4.41165">
        <ele>589.4</ele>
        <time>2015-07-12T06:31:05.000Z</time>
      </trkpt>
      <trkpt lat="45.64053" lon="4.41174">
        <ele>591.2</ele>
        <time>2015-07-12T06:31:10.000Z</time>
      </trkpt>
      <trkpt lat="45.64051" lon="4.41187">
        <ele>593.6</ele>
        <time>2015-07-12T06:31:17.000Z</time>
      </trkpt>
      <trkpt lat="45.6405" lon="4.4119">
        <ele>594.1</ele>
        <time>2015-07-12T06:31:19.000Z</time>
      </trkpt>
      <trkpt lat="45.6405" lon="4.41216">
        <ele>598.7</ele>
        <time>2015-07-12T06:31:33.000Z</time>
      </trkpt>
      <trkpt lat="45.64049" lon="4.41219">
        <ele>599</ele>
        <time>2015-07-12T06:31:34.000Z</time>
      </trkpt>
      <trkpt lat="45.64047" lon="4.41232">
        <ele>600.5</ele>
        <time>2015-07-12T06:31:41.000Z</time>
      </trkpt>
      <trkpt lat="45.64045" lon="4.41239">
        <ele>601</ele>
        <time>2015-07-12T06:31:45.000Z</time>
      </trkpt>
      <trkpt lat="45.64044" lon="4.41264">
        <ele>604</ele>
        <time>2015-07-12T06:32:10.000Z</time>
      </trkpt>
      <trkpt lat="45.64045" lon="4.41265">
        <ele>604.3</ele>
        <time>2015-07-12T06:32:11.000Z</time>
      </trkpt>
      <trkpt lat="45.6405" lon="4.41267">
        <ele>605.8</ele>
        <time>2015-07-12T06:32:18.000Z</time>
      </trkpt>
      <trkpt lat="45.64058" lon="4.41251">
        <ele>605.5</ele>
        <time>2015-07-12T06:32:24.000Z</time>
      </trkpt>
      <trkpt lat="45.6407" lon="4.4123">
        <ele>603.7</ele>
        <time>2015-07-12T06:32:30.000Z</time>
      </trkpt>
      <trkpt lat="45.64083" lon="4.41207">
        <ele>601.3</ele>
        <time>2015-07-12T06:32:36.000Z</time>
      </trkpt>
      <trkpt lat="45.64097" lon="4.4119">
        <ele>599.5</ele>
        <time>2015-07-12T06:32:41.000Z</time>
      </trkpt>
      <trkpt lat="45.64113" lon="4.41177">
        <ele>598.4</ele>
        <time>2015-07-12T06:32:46.000Z</time>
      </trkpt>
      <trkpt lat="45.6413" lon="4.41168">
        <ele>599.1</ele>
        <time>2015-07-12T06:32:51.000Z</time>
      </trkpt>
      <trkpt lat="45.64147" lon="4.4116">
        <ele>599.7</ele>
        <time>2015-07-12T06:32:56.000Z</time>
      </trkpt>
      <trkpt lat="45.64167" lon="4.41147">
        <ele>599.9</ele>
        <time>2015-07-12T06:33:02.000Z</time>
      </trkpt>
      <trkpt lat="45.64184" lon="4.41136">
        <ele>599.9</ele>
        <time>2015-07-12T06:33:08.000Z</time>
      </trkpt>
      <trkpt lat="45.64203" lon="4.41129">
        <ele>600.4</ele>
        <time>2015-07-12T06:33:14.000Z</time>
      </trkpt>
      <trkpt lat="45.64222" lon="4.41131">
        <ele>600.9</ele>
        <time>2015-07-12T06:33:20.000Z</time>
      </trkpt>
      <trkpt lat="45.64241" lon="4.41137">
        <ele>600.4</ele>
        <time>2015-07-12T06:33:27.000Z</time>
      </trkpt>
      <trkpt lat="45.64259" lon="4.41147">
        <ele>599.9</ele>
        <time>2015-07-12T06:33:32.000Z</time>
      </trkpt>
      <trkpt lat="45.64279" lon="4.41155">
        <ele>598.3</ele>
        <time>2015-07-12T06:33:37.000Z</time>
      </trkpt>
      <trkpt lat="45.64301" lon="4.41167">
        <ele>596.9</ele>
        <time>2015-07-12T06:33:42.000Z</time>
      </trkpt>
      <trkpt lat="45.64319" lon="4.41176">
        <ele>594.8</ele>
        <time>2015-07-12T06:33:46.000Z</time>
      </trkpt>
      <trkpt lat="45.64336" lon="4.41189">
        <ele>592.3</ele>
        <time>2015-07-12T06:33:50.000Z</time>
      </trkpt>
      <trkpt lat="45.64339" lon="4.41192">
        <ele>591.3</ele>
        <time>2015-07-12T06:33:51.000Z</time>
      </trkpt>
      <trkpt lat="45.64358" lon="4.4121">
        <ele>586</ele>
        <time>2015-07-12T06:33:56.000Z</time>
      </trkpt>
      <trkpt lat="45.64377" lon="4.4123">
        <ele>580.3</ele>
        <time>2015-07-12T06:34:00.000Z</time>
      </trkpt>
      <trkpt lat="45.64381" lon="4.41234">
        <ele>578.9</ele>
        <time>2015-07-12T06:34:01.000Z</time>
      </trkpt>
      <trkpt lat="45.64389" lon="4.41241">
        <ele>576.7</ele>
        <time>2015-07-12T06:34:03.000Z</time>
      </trkpt>
      <trkpt lat="45.64408" lon="4.4125">
        <ele>573.8</ele>
        <time>2015-07-12T06:34:07.000Z</time>
      </trkpt>
      <trkpt lat="45.64424" lon="4.41244">
        <ele>571.1</ele>
        <time>2015-07-12T06:34:10.000Z</time>
      </trkpt>
      <trkpt lat="45.64434" lon="4.41236">
        <ele>570.1</ele>
        <time>2015-07-12T06:34:12.000Z</time>
      </trkpt>
      <trkpt lat="45.64449" lon="4.41219">
        <ele>569.2</ele>
        <time>2015-07-12T06:34:16.000Z</time>
      </trkpt>
      <trkpt lat="45.64464" lon="4.41203">
        <ele>570.2</ele>
        <time>2015-07-12T06:34:20.000Z</time>
      </trkpt>
      <trkpt lat="45.64469" lon="4.412">
        <ele>570.6</ele>
        <time>2015-07-12T06:34:21.000Z</time>
      </trkpt>
      <trkpt lat="45.64488" lon="4.4121">
        <ele>572.3</ele>
        <time>2015-07-12T06:34:26.000Z</time>
      </trkpt>
      <trkpt lat="45.64494" lon="4.41215">
        <ele>572.4</ele>
        <time>2015-07-12T06:34:28.000Z</time>
      </trkpt>
      <trkpt lat="45.64504" lon="4.41223">
        <ele>572.8</ele>
        <time>2015-07-12T06:34:32.000Z</time>
      </trkpt>
      <trkpt lat="45.64514" lon="4.41231">
        <ele>574.1</ele>
        <time>2015-07-12T06:34:36.000Z</time>
      </trkpt>
      <trkpt lat="45.64531" lon="4.41243">
        <ele>575.5</ele>
        <time>2015-07-12T06:34:44.000Z</time>
      </trkpt>
      <trkpt lat="45.64546" lon="4.41257">
        <ele>576.7</ele>
        <time>2015-07-12T06:34:52.000Z</time>
      </trkpt>
      <trkpt lat="45.64562" lon="4.41273">
        <ele>577.3</ele>
        <time>2015-07-12T06:35:01.000Z</time>
      </trkpt>
      <trkpt lat="45.64578" lon="4.4129">
        <ele>577.8</ele>
        <time>2015-07-12T06:35:09.000Z</time>
      </trkpt>
      <trkpt lat="45.64593" lon="4.41306">
        <ele>579.7</ele>
        <time>2015-07-12T06:35:18.000Z</time>
      </trkpt>
      <trkpt lat="45.64609" lon="4.41321">
        <ele>582.2</ele>
        <time>2015-07-12T06:35:28.000Z</time>
      </trkpt>
      <trkpt lat="45.64627" lon="4.41333">
        <ele>585.3</ele>
        <time>2015-07-12T06:35:40.000Z</time>
      </trkpt>
      <trkpt lat="45.64637" lon="4.41335">
        <ele>587.4</ele>
        <time>2015-07-12T06:35:48.000Z</time>
      </trkpt>
      <trkpt lat="45.64653" lon="4.41339">
        <ele>589.5</ele>
        <time>2015-07-12T06:35:58.000Z</time>
      </trkpt>
      <trkpt lat="45.6466" lon="4.41341">
        <ele>590.5</ele>
        <time>2015-07-12T06:36:03.000Z</time>
      </trkpt>
      <trkpt lat="45.64661" lon="4.41365">
        <ele>588.8</ele>
        <time>2015-07-12T06:36:11.000Z</time>
      </trkpt>
      <trkpt lat="45.6467" lon="4.41388">
        <ele>584.2</ele>
        <time>2015-07-12T06:36:15.000Z</time>
      </trkpt>
      <trkpt lat="45.64682" lon="4.41401">
        <ele>581.6</ele>
        <time>2015-07-12T06:36:19.000Z</time>
      </trkpt>
      <trkpt lat="45.64687" lon="4.41405">
        <ele>581</ele>
        <time>2015-07-12T06:36:20.000Z</time>
      </trkpt>
      <trkpt lat="45.64703" lon="4.41419">
        <ele>579.7</ele>
        <time>2015-07-12T06:36:23.000Z</time>
      </trkpt>
      <trkpt lat="45.64713" lon="4.41428">
        <ele>581.1</ele>
        <time>2015-07-12T06:36:26.000Z</time>
      </trkpt>
      <trkpt lat="45.64727" lon="4.41442">
        <ele>584.7</ele>
        <time>2015-07-12T06:36:36.000Z</time>
      </trkpt>
      <trkpt lat="45.64736" lon="4.41452">
        <ele>587.5</ele>
        <time>2015-07-12T06:36:44.000Z</time>
      </trkpt>
      <trkpt lat="45.64737" lon="4.41452">
        <ele>587.6</ele>
        <time>2015-07-12T06:36:45.000Z</time>
      </trkpt>
      <trkpt lat="45.64741" lon="4.41456">
        <ele>588.7</ele>
        <time>2015-07-12T06:36:54.000Z</time>
      </trkpt>
      <trkpt lat="45.64755" lon="4.41473">
        <ele>593</ele>
        <time>2015-07-12T06:37:16.000Z</time>
      </trkpt>
      <trkpt lat="45.64767" lon="4.41487">
        <ele>594.9</ele>
        <time>2015-07-12T06:38:41.000Z</time>
      </trkpt>
      <trkpt lat="45.64779" lon="4.41506">
        <ele>596.8</ele>
        <time>2015-07-12T06:38:54.000Z</time>
      </trkpt>
      <trkpt lat="45.64792" lon="4.41525">
        <ele>598.8</ele>
        <time>2015-07-12T06:39:06.000Z</time>
      </trkpt>
      <trkpt lat="45.64805" lon="4.41544">
        <ele>600.9</ele>
        <time>2015-07-12T06:39:17.000Z</time>
      </trkpt>
      <trkpt lat="45.64817" lon="4.41565">
        <ele>602.2</ele>
        <time>2015-07-12T06:39:29.000Z</time>
      </trkpt>
      <trkpt lat="45.64829" lon="4.41584">
        <ele>604.6</ele>
        <time>2015-07-12T06:39:41.000Z</time>
      </trkpt>
      <trkpt lat="45.64843" lon="4.41603">
        <ele>605.8</ele>
        <time>2015-07-12T06:39:53.000Z</time>
      </trkpt>
      <trkpt lat="45.64856" lon="4.41621">
        <ele>608.6</ele>
        <time>2015-07-12T06:40:06.000Z</time>
      </trkpt>
      <trkpt lat="45.6487" lon="4.41638">
        <ele>611.6</ele>
        <time>2015-07-12T06:40:19.000Z</time>
      </trkpt>
      <trkpt lat="45.64881" lon="4.41646">
        <ele>614.3</ele>
        <time>2015-07-12T06:40:30.000Z</time>
      </trkpt>
      <trkpt lat="45.64892" lon="4.41651">
        <ele>616.6</ele>
        <time>2015-07-12T06:40:40.000Z</time>
      </trkpt>
      <trkpt lat="45.649" lon="4.41655">
        <ele>617.7</ele>
        <time>2015-07-12T06:40:48.000Z</time>
      </trkpt>
      <trkpt lat="45.64919" lon="4.41649">
        <ele>620.8</ele>
        <time>2015-07-12T06:41:02.000Z</time>
      </trkpt>
      <trkpt lat="45.64937" lon="4.41641">
        <ele>621.7</ele>
        <time>2015-07-12T06:41:14.000Z</time>
      </trkpt>
      <trkpt lat="45.64955" lon="4.41634">
        <ele>622.6</ele>
        <time>2015-07-12T06:41:26.000Z</time>
      </trkpt>
      <trkpt lat="45.64968" lon="4.41637">
        <ele>623.6</ele>
        <time>2015-07-12T06:41:35.000Z</time>
      </trkpt>
      <trkpt lat="45.64967" lon="4.41648">
        <ele>623.9</ele>
        <time>2015-07-12T06:41:40.000Z</time>
      </trkpt>
      <trkpt lat="45.64956" lon="4.41672">
        <ele>623.2</ele>
        <time>2015-07-12T06:41:48.000Z</time>
      </trkpt>
      <trkpt lat="45.64949" lon="4.41701">
        <ele>621.2</ele>
        <time>2015-07-12T06:41:54.000Z</time>
      </trkpt>
      <trkpt lat="45.64944" lon="4.41728">
        <ele>618.5</ele>
        <time>2015-07-12T06:41:58.000Z</time>
      </trkpt>
      <trkpt lat="45.64937" lon="4.41758">
        <ele>615.3</ele>
        <time>2015-07-12T06:42:02.000Z</time>
      </trkpt>
      <trkpt lat="45.6493" lon="4.41783">
        <ele>612</ele>
        <time>2015-07-12T06:42:05.000Z</time>
      </trkpt>
      <trkpt lat="45.64928" lon="4.41791">
        <ele>611</ele>
        <time>2015-07-12T06:42:06.000Z</time>
      </trkpt>
      <trkpt lat="45.64927" lon="4.41799">
        <ele>610.1</ele>
        <time>2015-07-12T06:42:07.000Z</time>
      </trkpt>
      <trkpt lat="45.64926" lon="4.41834">
        <ele>607.1</ele>
        <time>2015-07-12T06:42:11.000Z</time>
      </trkpt>
      <trkpt lat="45.64927" lon="4.41843">
        <ele>606.5</ele>
        <time>2015-07-12T06:42:12.000Z</time>
      </trkpt>
      <trkpt lat="45.64931" lon="4.41869">
        <ele>605.2</ele>
        <time>2015-07-12T06:42:15.000Z</time>
      </trkpt>
      <trkpt lat="45.64936" lon="4.41901">
        <ele>603.3</ele>
        <time>2015-07-12T06:42:19.000Z</time>
      </trkpt>
      <trkpt lat="45.64941" lon="4.41926">
        <ele>601.5</ele>
        <time>2015-07-12T06:42:22.000Z</time>
      </trkpt>
      <trkpt lat="45.64943" lon="4.41935">
        <ele>601.1</ele>
        <time>2015-07-12T06:42:23.000Z</time>
      </trkpt>
      <trkpt lat="45.64944" lon="4.41962">
        <ele>599.5</ele>
        <time>2015-07-12T06:42:26.000Z</time>
      </trkpt>
      <trkpt lat="45.64944" lon="4.41979">
        <ele>598.5</ele>
        <time>2015-07-12T06:42:28.000Z</time>
      </trkpt>
      <trkpt lat="45.64948" lon="4.42009">
        <ele>597.2</ele>
        <time>2015-07-12T06:42:32.000Z</time>
      </trkpt>
      <trkpt lat="45.64949" lon="4.42027">
        <ele>595.9</ele>
        <time>2015-07-12T06:42:35.000Z</time>
      </trkpt>
      <trkpt lat="45.64944" lon="4.42053">
        <ele>593</ele>
        <time>2015-07-12T06:42:39.000Z</time>
      </trkpt>
      <trkpt lat="45.64936" lon="4.42077">
        <ele>591.5</ele>
        <time>2015-07-12T06:42:42.000Z</time>
      </trkpt>
      <trkpt lat="45.64932" lon="4.42097">
        <ele>590.6</ele>
        <time>2015-07-12T06:42:44.000Z</time>
      </trkpt>
      <trkpt lat="45.6493" lon="4.42106">
        <ele>590.1</ele>
        <time>2015-07-12T06:42:45.000Z</time>
      </trkpt>
      <trkpt lat="45.64926" lon="4.42122">
        <ele>589.3</ele>
        <time>2015-07-12T06:42:47.000Z</time>
      </trkpt>
      <trkpt lat="45.64913" lon="4.42143">
        <ele>590.2</ele>
        <time>2015-07-12T06:42:51.000Z</time>
      </trkpt>
      <trkpt lat="45.64906" lon="4.42166">
        <ele>594.7</ele>
        <time>2015-07-12T06:42:59.000Z</time>
      </trkpt>
      <trkpt lat="45.64917" lon="4.4218">
        <ele>595.3</ele>
        <time>2015-07-12T06:43:07.000Z</time>
      </trkpt>
      <trkpt lat="45.64934" lon="4.42194">
        <ele>597</ele>
        <time>2015-07-12T06:43:17.000Z</time>
      </trkpt>
      <trkpt lat="45.64944" lon="4.42207">
        <ele>599.7</ele>
        <time>2015-07-12T06:43:25.000Z</time>
      </trkpt>
      <trkpt lat="45.64958" lon="4.42222">
        <ele>602.4</ele>
        <time>2015-07-12T06:43:57.000Z</time>
      </trkpt>
      <trkpt lat="45.64972" lon="4.42239">
        <ele>603.5</ele>
        <time>2015-07-12T06:44:11.000Z</time>
      </trkpt>
      <trkpt lat="45.64973" lon="4.42243">
        <ele>603.8</ele>
        <time>2015-07-12T06:44:13.000Z</time>
      </trkpt>
      <trkpt lat="45.64976" lon="4.42256">
        <ele>604.8</ele>
        <time>2015-07-12T06:44:20.000Z</time>
      </trkpt>
      <trkpt lat="45.64975" lon="4.42261">
        <ele>605.2</ele>
        <time>2015-07-12T06:44:23.000Z</time>
      </trkpt>
      <trkpt lat="45.64972" lon="4.42283">
        <ele>607.4</ele>
        <time>2015-07-12T06:45:02.000Z</time>
      </trkpt>
      <trkpt lat="45.64955" lon="4.42293">
        <ele>612.4</ele>
        <time>2015-07-12T06:45:39.000Z</time>
      </trkpt>
      <trkpt lat="45.64939" lon="4.42298">
        <ele>617</ele>
        <time>2015-07-12T06:47:43.000Z</time>
      </trkpt>
      <trkpt lat="45.64921" lon="4.42305">
        <ele>621.1</ele>
        <time>2015-07-12T06:47:59.000Z</time>
      </trkpt>
      <trkpt lat="45.64904" lon="4.42313">
        <ele>623.3</ele>
        <time>2015-07-12T06:48:14.000Z</time>
      </trkpt>
      <trkpt lat="45.64886" lon="4.42307">
        <ele>625.4</ele>
        <time>2015-07-12T06:48:31.000Z</time>
      </trkpt>
      <trkpt lat="45.64868" lon="4.42302">
        <ele>627.7</ele>
        <time>2015-07-12T06:48:48.000Z</time>
      </trkpt>
      <trkpt lat="45.64867" lon="4.423">
        <ele>627.5</ele>
        <time>2015-07-12T06:48:49.000Z</time>
      </trkpt>
      <trkpt lat="45.64868" lon="4.42283">
        <ele>625.7</ele>
        <time>2015-07-12T06:48:53.000Z</time>
      </trkpt>
      <trkpt lat="45.64861" lon="4.42257">
        <ele>622.9</ele>
        <time>2015-07-12T06:48:59.000Z</time>
      </trkpt>
      <trkpt lat="45.64857" lon="4.42251">
        <ele>622.7</ele>
        <time>2015-07-12T06:49:00.000Z</time>
      </trkpt>
      <trkpt lat="45.64842" lon="4.42237">
        <ele>622.1</ele>
        <time>2015-07-12T06:49:03.000Z</time>
      </trkpt>
      <trkpt lat="45.64829" lon="4.42232">
        <ele>622.6</ele>
        <time>2015-07-12T06:49:05.000Z</time>
      </trkpt>
      <trkpt lat="45.64823" lon="4.42229">
        <ele>622.8</ele>
        <time>2015-07-12T06:49:06.000Z</time>
      </trkpt>
      <trkpt lat="45.64815" lon="4.42222">
        <ele>622.6</ele>
        <time>2015-07-12T06:49:08.000Z</time>
      </trkpt>
      <trkpt lat="45.64809" lon="4.42199">
        <ele>620.8</ele>
        <time>2015-07-12T06:49:16.000Z</time>
      </trkpt>
      <trkpt lat="45.64806" lon="4.42185">
        <ele>620.1</ele>
        <time>2015-07-12T06:49:21.000Z</time>
      </trkpt>
      <trkpt lat="45.64793" lon="4.42159">
        <ele>620.7</ele>
        <time>2015-07-12T06:49:26.000Z</time>
      </trkpt>
      <trkpt lat="45.64779" lon="4.42143">
        <ele>621.4</ele>
        <time>2015-07-12T06:49:29.000Z</time>
      </trkpt>
      <trkpt lat="45.64762" lon="4.42133">
        <ele>622.7</ele>
        <time>2015-07-12T06:49:33.000Z</time>
      </trkpt>
      <trkpt lat="45.64749" lon="4.42125">
        <ele>623.9</ele>
        <time>2015-07-12T06:49:39.000Z</time>
      </trkpt>
      <trkpt lat="45.64743" lon="4.4211">
        <ele>622.8</ele>
        <time>2015-07-12T06:49:46.000Z</time>
      </trkpt>
      <trkpt lat="45.64739" lon="4.4209">
        <ele>620.8</ele>
        <time>2015-07-12T06:49:52.000Z</time>
      </trkpt>
      <trkpt lat="45.64733" lon="4.42072">
        <ele>621.5</ele>
        <time>2015-07-12T06:49:58.000Z</time>
      </trkpt>
      <trkpt lat="45.64724" lon="4.42045">
        <ele>623.5</ele>
        <time>2015-07-12T06:50:07.000Z</time>
      </trkpt>
      <trkpt lat="45.64722" lon="4.42042">
        <ele>624.1</ele>
        <time>2015-07-12T06:50:08.000Z</time>
      </trkpt>
      <trkpt lat="45.64719" lon="4.42031">
        <ele>624.9</ele>
        <time>2015-07-12T06:50:16.000Z</time>
      </trkpt>
      <trkpt lat="45.64713" lon="4.42005">
        <ele>627.5</ele>
        <time>2015-07-12T06:50:27.000Z</time>
      </trkpt>
      <trkpt lat="45.64704" lon="4.41981">
        <ele>631.2</ele>
        <time>2015-07-12T06:50:38.000Z</time>
      </trkpt>
      <trkpt lat="45.64702" lon="4.41975">
        <ele>632</ele>
        <time>2015-07-12T06:50:40.000Z</time>
      </trkpt>
      <trkpt lat="45.64691" lon="4.41961">
        <ele>634.8</ele>
        <time>2015-07-12T06:50:52.000Z</time>
      </trkpt>
      <trkpt lat="45.64678" lon="4.41956">
        <ele>638.3</ele>
        <time>2015-07-12T06:51:04.000Z</time>
      </trkpt>
      <trkpt lat="45.64665" lon="4.41943">
        <ele>641.4</ele>
        <time>2015-07-12T06:51:31.000Z</time>
      </trkpt>
      <trkpt lat="45.64649" lon="4.41931">
        <ele>643.5</ele>
        <time>2015-07-12T06:51:51.000Z</time>
      </trkpt>
      <trkpt lat="45.64631" lon="4.4192">
        <ele>644.8</ele>
        <time>2015-07-12T06:52:04.000Z</time>
      </trkpt>
      <trkpt lat="45.64629" lon="4.41918">
        <ele>644.8</ele>
        <time>2015-07-12T06:52:05.000Z</time>
      </trkpt>
      <trkpt lat="45.64613" lon="4.41907">
        <ele>644</ele>
        <time>2015-07-12T06:52:19.000Z</time>
      </trkpt>
      <trkpt lat="45.64594" lon="4.41903">
        <ele>645.5</ele>
        <time>2015-07-12T06:52:31.000Z</time>
      </trkpt>
      <trkpt lat="45.64576" lon="4.41898">
        <ele>647.5</ele>
        <time>2015-07-12T06:52:44.000Z</time>
      </trkpt>
      <trkpt lat="45.64575" lon="4.41898">
        <ele>647.6</ele>
        <time>2015-07-12T06:52:45.000Z</time>
      </trkpt>
      <trkpt lat="45.64565" lon="4.4189">
        <ele>648</ele>
        <time>2015-07-12T06:52:51.000Z</time>
      </trkpt>
      <trkpt lat="45.64548" lon="4.41879">
        <ele>650.1</ele>
        <time>2015-07-12T06:53:08.000Z</time>
      </trkpt>
      <trkpt lat="45.64531" lon="4.41864">
        <ele>652.6</ele>
        <time>2015-07-12T06:53:18.000Z</time>
      </trkpt>
      <trkpt lat="45.64514" lon="4.41852">
        <ele>656.7</ele>
        <time>2015-07-12T06:53:30.000Z</time>
      </trkpt>
      <trkpt lat="45.64498" lon="4.4184">
        <ele>660.2</ele>
        <time>2015-07-12T06:53:45.000Z</time>
      </trkpt>
      <trkpt lat="45.64482" lon="4.41829">
        <ele>663</ele>
        <time>2015-07-12T06:53:59.000Z</time>
      </trkpt>
      <trkpt lat="45.64463" lon="4.41821">
        <ele>665.4</ele>
        <time>2015-07-12T06:54:14.000Z</time>
      </trkpt>
      <trkpt lat="45.64446" lon="4.4181">
        <ele>665.6</ele>
        <time>2015-07-12T06:54:26.000Z</time>
      </trkpt>
      <trkpt lat="45.64428" lon="4.418">
        <ele>665.3</ele>
        <time>2015-07-12T06:54:40.000Z</time>
      </trkpt>
      <trkpt lat="45.64409" lon="4.41797">
        <ele>665.7</ele>
        <time>2015-07-12T06:54:51.000Z</time>
      </trkpt>
      <trkpt lat="45.64391" lon="4.41791">
        <ele>665.8</ele>
        <time>2015-07-12T06:55:00.000Z</time>
      </trkpt>
      <trkpt lat="45.64372" lon="4.41796">
        <ele>666.8</ele>
        <time>2015-07-12T06:55:11.000Z</time>
      </trkpt>
      <trkpt lat="45.64355" lon="4.41805">
        <ele>667.9</ele>
        <time>2015-07-12T06:55:22.000Z</time>
      </trkpt>
      <trkpt lat="45.64354" lon="4.41806">
        <ele>668</ele>
        <time>2015-07-12T06:55:23.000Z</time>
      </trkpt>
      <trkpt lat="45.64348" lon="4.41811">
        <ele>668.7</ele>
        <time>2015-07-12T06:55:28.000Z</time>
      </trkpt>
      <trkpt lat="45.64347" lon="4.41812">
        <ele>668.8</ele>
        <time>2015-07-12T06:55:29.000Z</time>
      </trkpt>
      <trkpt lat="45.64358" lon="4.41822">
        <ele>670.3</ele>
        <time>2015-07-12T06:57:11.000Z</time>
      </trkpt>
      <trkpt lat="45.64375" lon="4.41835">
        <ele>672.2</ele>
        <time>2015-07-12T06:57:22.000Z</time>
      </trkpt>
      <trkpt lat="45.64391" lon="4.41846">
        <ele>674.3</ele>
        <time>2015-07-12T06:57:32.000Z</time>
      </trkpt>
      <trkpt lat="45.64408" lon="4.41858">
        <ele>675.8</ele>
        <time>2015-07-12T06:57:43.000Z</time>
      </trkpt>
      <trkpt lat="45.64421" lon="4.41875">
        <ele>677.6</ele>
        <time>2015-07-12T06:57:54.000Z</time>
      </trkpt>
      <trkpt lat="45.6443" lon="4.41899">
        <ele>679.7</ele>
        <time>2015-07-12T06:58:06.000Z</time>
      </trkpt>
      <trkpt lat="45.64437" lon="4.41923">
        <ele>681.5</ele>
        <time>2015-07-12T06:58:17.000Z</time>
      </trkpt>
      <trkpt lat="45.64446" lon="4.41948">
        <ele>683</ele>
        <time>2015-07-12T06:58:29.000Z</time>
      </trkpt>
      <trkpt lat="45.64456" lon="4.41971">
        <ele>684.1</ele>
        <time>2015-07-12T06:58:40.000Z</time>
      </trkpt>
      <trkpt lat="45.64465" lon="4.41995">
        <ele>686.5</ele>
        <time>2015-07-12T06:58:52.000Z</time>
      </trkpt>
      <trkpt lat="45.64477" lon="4.42014">
        <ele>688</ele>
        <time>2015-07-12T06:59:03.000Z</time>
      </trkpt>
      <trkpt lat="45.64489" lon="4.42035">
        <ele>689</ele>
        <time>2015-07-12T06:59:13.000Z</time>
      </trkpt>
      <trkpt lat="45.64491" lon="4.42041">
        <ele>689.5</ele>
        <time>2015-07-12T06:59:16.000Z</time>
      </trkpt>
      <trkpt lat="45.64494" lon="4.42059">
        <ele>690.9</ele>
        <time>2015-07-12T06:59:23.000Z</time>
      </trkpt>
      <trkpt lat="45.64494" lon="4.42085">
        <ele>692.7</ele>
        <time>2015-07-12T06:59:32.000Z</time>
      </trkpt>
      <trkpt lat="45.64491" lon="4.42112">
        <ele>694</ele>
        <time>2015-07-12T06:59:42.000Z</time>
      </trkpt>
      <trkpt lat="45.64485" lon="4.42137">
        <ele>695.5</ele>
        <time>2015-07-12T06:59:51.000Z</time>
      </trkpt>
      <trkpt lat="45.64481" lon="4.42163">
        <ele>696.2</ele>
        <time>2015-07-12T07:00:01.000Z</time>
      </trkpt>
      <trkpt lat="45.64486" lon="4.42187">
        <ele>697.2</ele>
        <time>2015-07-12T07:00:13.000Z</time>
      </trkpt>
      <trkpt lat="45.64492" lon="4.4221">
        <ele>698.8</ele>
        <time>2015-07-12T07:00:25.000Z</time>
      </trkpt>
      <trkpt lat="45.64496" lon="4.42231">
        <ele>700.5</ele>
        <time>2015-07-12T07:00:35.000Z</time>
      </trkpt>
      <trkpt lat="45.645" lon="4.42247">
        <ele>701.8</ele>
        <time>2015-07-12T07:00:42.000Z</time>
      </trkpt>
      <trkpt lat="45.64505" lon="4.42262">
        <ele>702.2</ele>
        <time>2015-07-12T07:00:50.000Z</time>
      </trkpt>
      <trkpt lat="45.64512" lon="4.42285">
        <ele>703.1</ele>
        <time>2015-07-12T07:00:58.000Z</time>
      </trkpt>
      <trkpt lat="45.6452" lon="4.42303">
        <ele>704.1</ele>
        <time>2015-07-12T07:01:06.000Z</time>
      </trkpt>
      <trkpt lat="45.64526" lon="4.42315">
        <ele>704.7</ele>
        <time>2015-07-12T07:01:10.000Z</time>
      </trkpt>
      <trkpt lat="45.64536" lon="4.42339">
        <ele>704.3</ele>
        <time>2015-07-12T07:01:15.000Z</time>
      </trkpt>
      <trkpt lat="45.6454" lon="4.42351">
        <ele>703.9</ele>
        <time>2015-07-12T07:01:17.000Z</time>
      </trkpt>
      <trkpt lat="45.64544" lon="4.42378">
        <ele>703.9</ele>
        <time>2015-07-12T07:01:21.000Z</time>
      </trkpt>
      <trkpt lat="45.64548" lon="4.42406">
        <ele>702.5</ele>
        <time>2015-07-12T07:01:25.000Z</time>
      </trkpt>
      <trkpt lat="45.6456" lon="4.42429">
        <ele>699.3</ele>
        <time>2015-07-12T07:01:28.000Z</time>
      </trkpt>
      <trkpt lat="45.6457" lon="4.42441">
        <ele>696.9</ele>
        <time>2015-07-12T07:01:30.000Z</time>
      </trkpt>
      <trkpt lat="45.64584" lon="4.42464">
        <ele>693.8</ele>
        <time>2015-07-12T07:01:33.000Z</time>
      </trkpt>
      <trkpt lat="45.64587" lon="4.42472">
        <ele>693.2</ele>
        <time>2015-07-12T07:01:34.000Z</time>
      </trkpt>
      <trkpt lat="45.64596" lon="4.42497">
        <ele>690.8</ele>
        <time>2015-07-12T07:01:37.000Z</time>
      </trkpt>
      <trkpt lat="45.646" lon="4.42505">
        <ele>690</ele>
        <time>2015-07-12T07:01:38.000Z</time>
      </trkpt>
      <trkpt lat="45.64605" lon="4.42513">
        <ele>689.4</ele>
        <time>2015-07-12T07:01:39.000Z</time>
      </trkpt>
      <trkpt lat="45.64622" lon="4.42536">
        <ele>687.4</ele>
        <time>2015-07-12T07:01:42.000Z</time>
      </trkpt>
      <trkpt lat="45.6464" lon="4.42561">
        <ele>685.1</ele>
        <time>2015-07-12T07:01:45.000Z</time>
      </trkpt>
      <trkpt lat="45.64652" lon="4.42575">
        <ele>684.6</ele>
        <time>2015-07-12T07:01:47.000Z</time>
      </trkpt>
      <trkpt lat="45.64668" lon="4.42591">
        <ele>684.4</ele>
        <time>2015-07-12T07:01:50.000Z</time>
      </trkpt>
      <trkpt lat="45.64685" lon="4.42612">
        <ele>684.8</ele>
        <time>2015-07-12T07:01:54.000Z</time>
      </trkpt>
      <trkpt lat="45.64691" lon="4.42621">
        <ele>685</ele>
        <time>2015-07-12T07:01:56.000Z</time>
      </trkpt>
      <trkpt lat="45.64703" lon="4.42635">
        <ele>684.8</ele>
        <time>2015-07-12T07:02:00.000Z</time>
      </trkpt>
      <trkpt lat="45.64717" lon="4.42651">
        <ele>685.2</ele>
        <time>2015-07-12T07:02:05.000Z</time>
      </trkpt>
      <trkpt lat="45.64731" lon="4.42672">
        <ele>686.6</ele>
        <time>2015-07-12T07:02:11.000Z</time>
      </trkpt>
      <trkpt lat="45.64742" lon="4.42693">
        <ele>687.7</ele>
        <time>2015-07-12T07:02:17.000Z</time>
      </trkpt>
      <trkpt lat="45.64752" lon="4.42716">
        <ele>689</ele>
        <time>2015-07-12T07:02:24.000Z</time>
      </trkpt>
      <trkpt lat="45.64762" lon="4.42739">
        <ele>689.5</ele>
        <time>2015-07-12T07:02:30.000Z</time>
      </trkpt>
      <trkpt lat="45.64769" lon="4.42764">
        <ele>689.9</ele>
        <time>2015-07-12T07:02:35.000Z</time>
      </trkpt>
      <trkpt lat="45.64778" lon="4.4279">
        <ele>689.4</ele>
        <time>2015-07-12T07:02:41.000Z</time>
      </trkpt>
      <trkpt lat="45.64785" lon="4.42818">
        <ele>688.9</ele>
        <time>2015-07-12T07:02:48.000Z</time>
      </trkpt>
      <trkpt lat="45.6479" lon="4.42847">
        <ele>687.8</ele>
        <time>2015-07-12T07:02:53.000Z</time>
      </trkpt>
      <trkpt lat="45.64795" lon="4.4288">
        <ele>685.6</ele>
        <time>2015-07-12T07:02:57.000Z</time>
      </trkpt>
      <trkpt lat="45.64799" lon="4.42905">
        <ele>683.5</ele>
        <time>2015-07-12T07:03:00.000Z</time>
      </trkpt>
      <trkpt lat="45.64802" lon="4.4292">
        <ele>682.2</ele>
        <time>2015-07-12T07:03:03.000Z</time>
      </trkpt>
      <trkpt lat="45.64814" lon="4.42944">
        <ele>679.7</ele>
        <time>2015-07-12T07:03:07.000Z</time>
      </trkpt>
      <trkpt lat="45.6482" lon="4.42957">
        <ele>679.3</ele>
        <time>2015-07-12T07:03:09.000Z</time>
      </trkpt>
      <trkpt lat="45.64831" lon="4.42976">
        <ele>679.7</ele>
        <time>2015-07-12T07:03:12.000Z</time>
      </trkpt>
      <trkpt lat="45.64849" lon="4.42984">
        <ele>680.1</ele>
        <time>2015-07-12T07:03:16.000Z</time>
      </trkpt>
      <trkpt lat="45.64869" lon="4.42989">
        <ele>681.1</ele>
        <time>2015-07-12T07:03:21.000Z</time>
      </trkpt>
      <trkpt lat="45.64875" lon="4.42991">
        <ele>681.5</ele>
        <time>2015-07-12T07:03:23.000Z</time>
      </trkpt>
      <trkpt lat="45.64894" lon="4.42998">
        <ele>682.9</ele>
        <time>2015-07-12T07:03:30.000Z</time>
      </trkpt>
      <trkpt lat="45.64912" lon="4.43007">
        <ele>683.5</ele>
        <time>2015-07-12T07:03:37.000Z</time>
      </trkpt>
      <trkpt lat="45.64929" lon="4.43017">
        <ele>683.5</ele>
        <time>2015-07-12T07:03:43.000Z</time>
      </trkpt>
      <trkpt lat="45.64948" lon="4.43027">
        <ele>683.8</ele>
        <time>2015-07-12T07:03:49.000Z</time>
      </trkpt>
      <trkpt lat="45.64966" lon="4.43038">
        <ele>683.9</ele>
        <time>2015-07-12T07:03:55.000Z</time>
      </trkpt>
      <trkpt lat="45.64985" lon="4.43048">
        <ele>683.5</ele>
        <time>2015-07-12T07:04:01.000Z</time>
      </trkpt>
      <trkpt lat="45.65004" lon="4.4306">
        <ele>682.7</ele>
        <time>2015-07-12T07:04:06.000Z</time>
      </trkpt>
      <trkpt lat="45.65022" lon="4.4307">
        <ele>681.8</ele>
        <time>2015-07-12T07:04:10.000Z</time>
      </trkpt>
      <trkpt lat="45.65039" lon="4.43088">
        <ele>681.8</ele>
        <time>2015-07-12T07:04:15.000Z</time>
      </trkpt>
      <trkpt lat="45.65054" lon="4.43105">
        <ele>681.6</ele>
        <time>2015-07-12T07:04:20.000Z</time>
      </trkpt>
      <trkpt lat="45.6507" lon="4.43123">
        <ele>681.1</ele>
        <time>2015-07-12T07:04:25.000Z</time>
      </trkpt>
      <trkpt lat="45.65085" lon="4.43143">
        <ele>681</ele>
        <time>2015-07-12T07:04:30.000Z</time>
      </trkpt>
      <trkpt lat="45.65089" lon="4.43172">
        <ele>681.7</ele>
        <time>2015-07-12T07:04:36.000Z</time>
      </trkpt>
      <trkpt lat="45.65087" lon="4.43197">
        <ele>683.9</ele>
        <time>2015-07-12T07:04:43.000Z</time>
      </trkpt>
      <trkpt lat="45.65084" lon="4.43223">
        <ele>686.1</ele>
        <time>2015-07-12T07:04:52.000Z</time>
      </trkpt>
      <trkpt lat="45.6508" lon="4.4325">
        <ele>690.2</ele>
        <time>2015-07-12T07:05:05.000Z</time>
      </trkpt>
      <trkpt lat="45.6508" lon="4.43269">
        <ele>693.5</ele>
        <time>2015-07-12T07:05:16.000Z</time>
      </trkpt>
      <trkpt lat="45.65073" lon="4.43278">
        <ele>695</ele>
        <time>2015-07-12T07:05:23.000Z</time>
      </trkpt>
      <trkpt lat="45.65056" lon="4.43289">
        <ele>697</ele>
        <time>2015-07-12T07:05:36.000Z</time>
      </trkpt>
      <trkpt lat="45.6504" lon="4.43304">
        <ele>699.8</ele>
        <time>2015-07-12T07:05:48.000Z</time>
      </trkpt>
      <trkpt lat="45.65024" lon="4.43315">
        <ele>701.4</ele>
        <time>2015-07-12T07:06:01.000Z</time>
      </trkpt>
      <trkpt lat="45.65008" lon="4.4333">
        <ele>703</ele>
        <time>2015-07-12T07:06:14.000Z</time>
      </trkpt>
      <trkpt lat="45.65" lon="4.43354">
        <ele>705.2</ele>
        <time>2015-07-12T07:06:26.000Z</time>
      </trkpt>
      <trkpt lat="45.64997" lon="4.43369">
        <ele>706.3</ele>
        <time>2015-07-12T07:06:34.000Z</time>
      </trkpt>
      <trkpt lat="45.64998" lon="4.43375">
        <ele>706.7</ele>
        <time>2015-07-12T07:06:37.000Z</time>
      </trkpt>
      <trkpt lat="45.65015" lon="4.43383">
        <ele>709.1</ele>
        <time>2015-07-12T07:06:50.000Z</time>
      </trkpt>
      <trkpt lat="45.65018" lon="4.43385">
        <ele>709.5</ele>
        <time>2015-07-12T07:06:52.000Z</time>
      </trkpt>
      <trkpt lat="45.65035" lon="4.43397">
        <ele>712.1</ele>
        <time>2015-07-12T07:07:06.000Z</time>
      </trkpt>
      <trkpt lat="45.65042" lon="4.43402">
        <ele>713.5</ele>
        <time>2015-07-12T07:07:13.000Z</time>
      </trkpt>
      <trkpt lat="45.65052" lon="4.43412">
        <ele>716.5</ele>
        <time>2015-07-12T07:07:25.000Z</time>
      </trkpt>
      <trkpt lat="45.65046" lon="4.43437">
        <ele>717.8</ele>
        <time>2015-07-12T07:07:39.000Z</time>
      </trkpt>
      <trkpt lat="45.65047" lon="4.43444">
        <ele>718.8</ele>
        <time>2015-07-12T07:07:43.000Z</time>
      </trkpt>
      <trkpt lat="45.65051" lon="4.43456">
        <ele>720.3</ele>
        <time>2015-07-12T07:07:51.000Z</time>
      </trkpt>
      <trkpt lat="45.65059" lon="4.43479">
        <ele>722.5</ele>
        <time>2015-07-12T07:08:06.000Z</time>
      </trkpt>
      <trkpt lat="45.65068" lon="4.43503">
        <ele>724</ele>
        <time>2015-07-12T07:08:20.000Z</time>
      </trkpt>
      <trkpt lat="45.65074" lon="4.4353">
        <ele>725.8</ele>
        <time>2015-07-12T07:08:30.000Z</time>
      </trkpt>
      <trkpt lat="45.65078" lon="4.43558">
        <ele>726</ele>
        <time>2015-07-12T07:08:39.000Z</time>
      </trkpt>
      <trkpt lat="45.65083" lon="4.43585">
        <ele>725.8</ele>
        <time>2015-07-12T07:08:48.000Z</time>
      </trkpt>
      <trkpt lat="45.65092" lon="4.43608">
        <ele>727.6</ele>
        <time>2015-07-12T07:08:56.000Z</time>
      </trkpt>
      <trkpt lat="45.65102" lon="4.43631">
        <ele>729.1</ele>
        <time>2015-07-12T07:09:05.000Z</time>
      </trkpt>
      <trkpt lat="45.65113" lon="4.43653">
        <ele>730.2</ele>
        <time>2015-07-12T07:09:15.000Z</time>
      </trkpt>
      <trkpt lat="45.65126" lon="4.43676">
        <ele>729.8</ele>
        <time>2015-07-12T07:09:25.000Z</time>
      </trkpt>
      <trkpt lat="45.65131" lon="4.43703">
        <ele>728.4</ele>
        <time>2015-07-12T07:09:30.000Z</time>
      </trkpt>
      <trkpt lat="45.65135" lon="4.43731">
        <ele>727.7</ele>
        <time>2015-07-12T07:09:35.000Z</time>
      </trkpt>
      <trkpt lat="45.65147" lon="4.43751">
        <ele>729.4</ele>
        <time>2015-07-12T07:09:45.000Z</time>
      </trkpt>
      <trkpt lat="45.6516" lon="4.4377">
        <ele>731.4</ele>
        <time>2015-07-12T07:09:56.000Z</time>
      </trkpt>
      <trkpt lat="45.65162" lon="4.43771">
        <ele>731.8</ele>
        <time>2015-07-12T07:09:57.000Z</time>
      </trkpt>
      <trkpt lat="45.65177" lon="4.43787">
        <ele>733.6</ele>
        <time>2015-07-12T07:10:08.000Z</time>
      </trkpt>
      <trkpt lat="45.65189" lon="4.43807">
        <ele>735.7</ele>
        <time>2015-07-12T07:10:22.000Z</time>
      </trkpt>
      <trkpt lat="45.65191" lon="4.43809">
        <ele>736.2</ele>
        <time>2015-07-12T07:10:24.000Z</time>
      </trkpt>
      <trkpt lat="45.65206" lon="4.43827">
        <ele>739</ele>
        <time>2015-07-12T07:10:37.000Z</time>
      </trkpt>
      <trkpt lat="45.65212" lon="4.4383">
        <ele>740</ele>
        <time>2015-07-12T07:10:41.000Z</time>
      </trkpt>
      <trkpt lat="45.65226" lon="4.43846">
        <ele>743.3</ele>
        <time>2015-07-12T07:10:54.000Z</time>
      </trkpt>
      <trkpt lat="45.65238" lon="4.43866">
        <ele>745.9</ele>
        <time>2015-07-12T07:11:08.000Z</time>
      </trkpt>
      <trkpt lat="45.65239" lon="4.43868">
        <ele>746.1</ele>
        <time>2015-07-12T07:11:09.000Z</time>
      </trkpt>
      <trkpt lat="45.65243" lon="4.43879">
        <ele>747</ele>
        <time>2015-07-12T07:11:15.000Z</time>
      </trkpt>
      <trkpt lat="45.65244" lon="4.43907">
        <ele>746.9</ele>
        <time>2015-07-12T07:11:27.000Z</time>
      </trkpt>
      <trkpt lat="45.65251" lon="4.43932">
        <ele>747</ele>
        <time>2015-07-12T07:11:37.000Z</time>
      </trkpt>
      <trkpt lat="45.65267" lon="4.43952">
        <ele>747.7</ele>
        <time>2015-07-12T07:11:43.000Z</time>
      </trkpt>
      <trkpt lat="45.65282" lon="4.43966">
        <ele>748.7</ele>
        <time>2015-07-12T07:11:49.000Z</time>
      </trkpt>
      <trkpt lat="45.653" lon="4.43976">
        <ele>749.4</ele>
        <time>2015-07-12T07:11:59.000Z</time>
      </trkpt>
      <trkpt lat="45.65316" lon="4.43992">
        <ele>749.8</ele>
        <time>2015-07-12T07:12:09.000Z</time>
      </trkpt>
      <trkpt lat="45.65318" lon="4.43995">
        <ele>749.9</ele>
        <time>2015-07-12T07:12:11.000Z</time>
      </trkpt>
      <trkpt lat="45.65332" lon="4.44015">
        <ele>750.3</ele>
        <time>2015-07-12T07:12:21.000Z</time>
      </trkpt>
      <trkpt lat="45.65346" lon="4.44033">
        <ele>750.8</ele>
        <time>2015-07-12T07:12:28.000Z</time>
      </trkpt>
      <trkpt lat="45.6536" lon="4.44055">
        <ele>751.8</ele>
        <time>2015-07-12T07:12:35.000Z</time>
      </trkpt>
      <trkpt lat="45.65369" lon="4.44079">
        <ele>752.2</ele>
        <time>2015-07-12T07:12:43.000Z</time>
      </trkpt>
      <trkpt lat="45.65374" lon="4.44097">
        <ele>752.7</ele>
        <time>2015-07-12T07:12:50.000Z</time>
      </trkpt>
      <trkpt lat="45.65373" lon="4.44108">
        <ele>752.8</ele>
        <time>2015-07-12T07:12:55.000Z</time>
      </trkpt>
      <trkpt lat="45.65374" lon="4.44132">
        <ele>752.9</ele>
        <time>2015-07-12T07:13:06.000Z</time>
      </trkpt>
      <trkpt lat="45.65377" lon="4.44145">
        <ele>753.1</ele>
        <time>2015-07-12T07:13:11.000Z</time>
      </trkpt>
      <trkpt lat="45.65385" lon="4.4417">
        <ele>753.9</ele>
        <time>2015-07-12T07:13:21.000Z</time>
      </trkpt>
      <trkpt lat="45.65393" lon="4.44193">
        <ele>754.5</ele>
        <time>2015-07-12T07:13:30.000Z</time>
      </trkpt>
      <trkpt lat="45.65406" lon="4.44212">
        <ele>756</ele>
        <time>2015-07-12T07:13:37.000Z</time>
      </trkpt>
      <trkpt lat="45.6542" lon="4.44234">
        <ele>757.8</ele>
        <time>2015-07-12T07:13:45.000Z</time>
      </trkpt>
      <trkpt lat="45.65429" lon="4.44257">
        <ele>758.2</ele>
        <time>2015-07-12T07:13:53.000Z</time>
      </trkpt>
      <trkpt lat="45.65434" lon="4.44273">
        <ele>758.8</ele>
        <time>2015-07-12T07:14:00.000Z</time>
      </trkpt>
      <trkpt lat="45.65441" lon="4.44295">
        <ele>759.4</ele>
        <time>2015-07-12T07:14:08.000Z</time>
      </trkpt>
      <trkpt lat="45.65445" lon="4.443">
        <ele>760.3</ele>
        <time>2015-07-12T07:14:11.000Z</time>
      </trkpt>
      <trkpt lat="45.6545" lon="4.44307">
        <ele>760.7</ele>
        <time>2015-07-12T07:14:15.000Z</time>
      </trkpt>
      <trkpt lat="45.65451" lon="4.44309">
        <ele>760.6</ele>
        <time>2015-07-12T07:14:16.000Z</time>
      </trkpt>
      <trkpt lat="45.65452" lon="4.44313">
        <ele>760.5</ele>
        <time>2015-07-12T07:14:18.000Z</time>
      </trkpt>
      <trkpt lat="45.65459" lon="4.44322">
        <ele>761.2</ele>
        <time>2015-07-12T07:14:23.000Z</time>
      </trkpt>
      <trkpt lat="45.65471" lon="4.44332">
        <ele>762.7</ele>
        <time>2015-07-12T07:14:31.000Z</time>
      </trkpt>
      <trkpt lat="45.65472" lon="4.44334">
        <ele>762.9</ele>
        <time>2015-07-12T07:14:33.000Z</time>
      </trkpt>
      <trkpt lat="45.65479" lon="4.44347">
        <ele>762.3</ele>
        <time>2015-07-12T07:14:39.000Z</time>
      </trkpt>
      <trkpt lat="45.65483" lon="4.44355">
        <ele>762</ele>
        <time>2015-07-12T07:14:42.000Z</time>
      </trkpt>
      <trkpt lat="45.65484" lon="4.44358">
        <ele>762</ele>
        <time>2015-07-12T07:14:43.000Z</time>
      </trkpt>
      <trkpt lat="45.65494" lon="4.4438">
        <ele>761.4</ele>
        <time>2015-07-12T07:14:50.000Z</time>
      </trkpt>
      <trkpt lat="45.65506" lon="4.44402">
        <ele>760.8</ele>
        <time>2015-07-12T07:14:59.000Z</time>
      </trkpt>
      <trkpt lat="45.65518" lon="4.44422">
        <ele>760</ele>
        <time>2015-07-12T07:15:07.000Z</time>
      </trkpt>
      <trkpt lat="45.65536" lon="4.44434">
        <ele>761</ele>
        <time>2015-07-12T07:15:14.000Z</time>
      </trkpt>
      <trkpt lat="45.65555" lon="4.44438">
        <ele>763</ele>
        <time>2015-07-12T07:15:20.000Z</time>
      </trkpt>
      <trkpt lat="45.65575" lon="4.44444">
        <ele>763</ele>
        <time>2015-07-12T07:15:27.000Z</time>
      </trkpt>
      <trkpt lat="45.65594" lon="4.44449">
        <ele>761.8</ele>
        <time>2015-07-12T07:15:35.000Z</time>
      </trkpt>
      <trkpt lat="45.65613" lon="4.44453">
        <ele>760.1</ele>
        <time>2015-07-12T07:15:41.000Z</time>
      </trkpt>
      <trkpt lat="45.65631" lon="4.44468">
        <ele>759.3</ele>
        <time>2015-07-12T07:15:46.000Z</time>
      </trkpt>
      <trkpt lat="45.65646" lon="4.44486">
        <ele>758.1</ele>
        <time>2015-07-12T07:15:50.000Z</time>
      </trkpt>
      <trkpt lat="45.65652" lon="4.44492">
        <ele>757.5</ele>
        <time>2015-07-12T07:15:51.000Z</time>
      </trkpt>
      <trkpt lat="45.65671" lon="4.44508">
        <ele>756</ele>
        <time>2015-07-12T07:15:54.000Z</time>
      </trkpt>
      <trkpt lat="45.6569" lon="4.44521">
        <ele>755.7</ele>
        <time>2015-07-12T07:15:57.000Z</time>
      </trkpt>
      <trkpt lat="45.65699" lon="4.44526">
        <ele>755.6</ele>
        <time>2015-07-12T07:15:59.000Z</time>
      </trkpt>
      <trkpt lat="45.65715" lon="4.44532">
        <ele>755.6</ele>
        <time>2015-07-12T07:16:05.000Z</time>
      </trkpt>
      <trkpt lat="45.65737" lon="4.44533">
        <ele>754.1</ele>
        <time>2015-07-12T07:16:12.000Z</time>
      </trkpt>
      <trkpt lat="45.6576" lon="4.44536">
        <ele>751.9</ele>
        <time>2015-07-12T07:16:16.000Z</time>
      </trkpt>
      <trkpt lat="45.65783" lon="4.44539">
        <ele>749.1</ele>
        <time>2015-07-12T07:16:19.000Z</time>
      </trkpt>
      <trkpt lat="45.6581" lon="4.44541">
        <ele>745.1</ele>
        <time>2015-07-12T07:16:22.000Z</time>
      </trkpt>
      <trkpt lat="45.65835" lon="4.44544">
        <ele>741.5</ele>
        <time>2015-07-12T07:16:25.000Z</time>
      </trkpt>
      <trkpt lat="45.65859" lon="4.44547">
        <ele>737.5</ele>
        <time>2015-07-12T07:16:28.000Z</time>
      </trkpt>
      <trkpt lat="45.65866" lon="4.44548">
        <ele>736.2</ele>
        <time>2015-07-12T07:16:29.000Z</time>
      </trkpt>
      <trkpt lat="45.65888" lon="4.4456">
        <ele>732.9</ele>
        <time>2015-07-12T07:16:32.000Z</time>
      </trkpt>
      <trkpt lat="45.65895" lon="4.44564">
        <ele>731.8</ele>
        <time>2015-07-12T07:16:33.000Z</time>
      </trkpt>
      <trkpt lat="45.65908" lon="4.44574">
        <ele>729.8</ele>
        <time>2015-07-12T07:16:35.000Z</time>
      </trkpt>
      <trkpt lat="45.65924" lon="4.44587">
        <ele>728</ele>
        <time>2015-07-12T07:16:38.000Z</time>
      </trkpt>
      <trkpt lat="45.65929" lon="4.44593">
        <ele>727.9</ele>
        <time>2015-07-12T07:16:39.000Z</time>
      </trkpt>
      <trkpt lat="45.65938" lon="4.4462">
        <ele>730.7</ele>
        <time>2015-07-12T07:16:44.000Z</time>
      </trkpt>
      <trkpt lat="45.65944" lon="4.44647">
        <ele>734.2</ele>
        <time>2015-07-12T07:16:54.000Z</time>
      </trkpt>
      <trkpt lat="45.65947" lon="4.44654">
        <ele>734.6</ele>
        <time>2015-07-12T07:16:57.000Z</time>
      </trkpt>
      <trkpt lat="45.65956" lon="4.44679">
        <ele>736</ele>
        <time>2015-07-12T07:17:08.000Z</time>
      </trkpt>
      <trkpt lat="45.65966" lon="4.44703">
        <ele>736.9</ele>
        <time>2015-07-12T07:17:14.000Z</time>
      </trkpt>
      <trkpt lat="45.6597" lon="4.44731">
        <ele>737.8</ele>
        <time>2015-07-12T07:17:21.000Z</time>
      </trkpt>
      <trkpt lat="45.65981" lon="4.4475">
        <ele>736.2</ele>
        <time>2015-07-12T07:17:25.000Z</time>
      </trkpt>
      <trkpt lat="45.66002" lon="4.44757">
        <ele>731.8</ele>
        <time>2015-07-12T07:17:28.000Z</time>
      </trkpt>
      <trkpt lat="45.66021" lon="4.44773">
        <ele>728.1</ele>
        <time>2015-07-12T07:17:31.000Z</time>
      </trkpt>
      <trkpt lat="45.66027" lon="4.44778">
        <ele>727.2</ele>
        <time>2015-07-12T07:17:32.000Z</time>
      </trkpt>
      <trkpt lat="45.66033" lon="4.44782">
        <ele>726.2</ele>
        <time>2015-07-12T07:17:33.000Z</time>
      </trkpt>
      <trkpt lat="45.66054" lon="4.4479">
        <ele>722.1</ele>
        <time>2015-07-12T07:17:36.000Z</time>
      </trkpt>
      <trkpt lat="45.66074" lon="4.44797">
        <ele>718.9</ele>
        <time>2015-07-12T07:17:42.000Z</time>
      </trkpt>
      <trkpt lat="45.66076" lon="4.44796">
        <ele>718.4</ele>
        <time>2015-07-12T07:17:43.000Z</time>
      </trkpt>
      <trkpt lat="45.66094" lon="4.44792">
        <ele>714.6</ele>
        <time>2015-07-12T07:17:50.000Z</time>
      </trkpt>
      <trkpt lat="45.66105" lon="4.4481">
        <ele>714.4</ele>
        <time>2015-07-12T07:17:58.000Z</time>
      </trkpt>
      <trkpt lat="45.66105" lon="4.44819">
        <ele>714.8</ele>
        <time>2015-07-12T07:18:01.000Z</time>
      </trkpt>
      <trkpt lat="45.66104" lon="4.44846">
        <ele>715.8</ele>
        <time>2015-07-12T07:18:10.000Z</time>
      </trkpt>
      <trkpt lat="45.66103" lon="4.44851">
        <ele>715.9</ele>
        <time>2015-07-12T07:18:12.000Z</time>
      </trkpt>
      <trkpt lat="45.66103" lon="4.44859">
        <ele>716.1</ele>
        <time>2015-07-12T07:18:16.000Z</time>
      </trkpt>
      <trkpt lat="45.661" lon="4.44886">
        <ele>716.3</ele>
        <time>2015-07-12T07:18:27.000Z</time>
      </trkpt>
      <trkpt lat="45.66097" lon="4.44904">
        <ele>716.6</ele>
        <time>2015-07-12T07:18:34.000Z</time>
      </trkpt>
      <trkpt lat="45.66089" lon="4.44924">
        <ele>718</ele>
        <time>2015-07-12T07:18:42.000Z</time>
      </trkpt>
      <trkpt lat="45.6608" lon="4.44949">
        <ele>718.6</ele>
        <time>2015-07-12T07:18:52.000Z</time>
      </trkpt>
      <trkpt lat="45.66072" lon="4.44974">
        <ele>718.2</ele>
        <time>2015-07-12T07:19:01.000Z</time>
      </trkpt>
      <trkpt lat="45.66066" lon="4.45">
        <ele>718</ele>
        <time>2015-07-12T07:19:08.000Z</time>
      </trkpt>
      <trkpt lat="45.66067" lon="4.45005">
        <ele>717.5</ele>
        <time>2015-07-12T07:19:09.000Z</time>
      </trkpt>
      <trkpt lat="45.66062" lon="4.45033">
        <ele>718.6</ele>
        <time>2015-07-12T07:19:16.000Z</time>
      </trkpt>
      <trkpt lat="45.66059" lon="4.45059">
        <ele>720.5</ele>
        <time>2015-07-12T07:19:23.000Z</time>
      </trkpt>
      <trkpt lat="45.6606" lon="4.45086">
        <ele>722.4</ele>
        <time>2015-07-12T07:19:33.000Z</time>
      </trkpt>
      <trkpt lat="45.66058" lon="4.45106">
        <ele>723.2</ele>
        <time>2015-07-12T07:19:41.000Z</time>
      </trkpt>
      <trkpt lat="45.66048" lon="4.45126">
        <ele>725.4</ele>
        <time>2015-07-12T07:19:51.000Z</time>
      </trkpt>
      <trkpt lat="45.66047" lon="4.45128">
        <ele>725.5</ele>
        <time>2015-07-12T07:19:52.000Z</time>
      </trkpt>
      <trkpt lat="45.66046" lon="4.45131">
        <ele>725.8</ele>
        <time>2015-07-12T07:19:53.000Z</time>
      </trkpt>
      <trkpt lat="45.66038" lon="4.45157">
        <ele>726.7</ele>
        <time>2015-07-12T07:20:02.000Z</time>
      </trkpt>
      <trkpt lat="45.66035" lon="4.45183">
        <ele>727.2</ele>
        <time>2015-07-12T07:20:10.000Z</time>
      </trkpt>
      <trkpt lat="45.6603" lon="4.4521">
        <ele>728</ele>
        <time>2015-07-12T07:20:18.000Z</time>
      </trkpt>
      <trkpt lat="45.6602" lon="4.4523">
        <ele>729.8</ele>
        <time>2015-07-12T07:20:26.000Z</time>
      </trkpt>
      <trkpt lat="45.66004" lon="4.45243">
        <ele>731.8</ele>
        <time>2015-07-12T07:20:35.000Z</time>
      </trkpt>
      <trkpt lat="45.65987" lon="4.45253">
        <ele>733.3</ele>
        <time>2015-07-12T07:20:44.000Z</time>
      </trkpt>
      <trkpt lat="45.65969" lon="4.45262">
        <ele>734.4</ele>
        <time>2015-07-12T07:20:54.000Z</time>
      </trkpt>
      <trkpt lat="45.65967" lon="4.45263">
        <ele>734.4</ele>
        <time>2015-07-12T07:20:55.000Z</time>
      </trkpt>
      <trkpt lat="45.65973" lon="4.45279">
        <ele>733</ele>
        <time>2015-07-12T07:21:01.000Z</time>
      </trkpt>
      <trkpt lat="45.65984" lon="4.453">
        <ele>732.5</ele>
        <time>2015-07-12T07:21:08.000Z</time>
      </trkpt>
      <trkpt lat="45.65993" lon="4.45325">
        <ele>732.7</ele>
        <time>2015-07-12T07:21:15.000Z</time>
      </trkpt>
      <trkpt lat="45.66002" lon="4.45349">
        <ele>732.5</ele>
        <time>2015-07-12T07:21:21.000Z</time>
      </trkpt>
      <trkpt lat="45.66013" lon="4.45371">
        <ele>732</ele>
        <time>2015-07-12T07:21:26.000Z</time>
      </trkpt>
      <trkpt lat="45.66026" lon="4.45391">
        <ele>730.8</ele>
        <time>2015-07-12T07:21:30.000Z</time>
      </trkpt>
      <trkpt lat="45.6604" lon="4.45416">
        <ele>729.5</ele>
        <time>2015-07-12T07:21:34.000Z</time>
      </trkpt>
      <trkpt lat="45.66053" lon="4.45436">
        <ele>728</ele>
        <time>2015-07-12T07:21:37.000Z</time>
      </trkpt>
      <trkpt lat="45.66057" lon="4.45443">
        <ele>727.1</ele>
        <time>2015-07-12T07:21:38.000Z</time>
      </trkpt>
      <trkpt lat="45.66072" lon="4.45471">
        <ele>724.6</ele>
        <time>2015-07-12T07:21:41.000Z</time>
      </trkpt>
      <trkpt lat="45.66088" lon="4.45499">
        <ele>722.9</ele>
        <time>2015-07-12T07:21:44.000Z</time>
      </trkpt>
      <trkpt lat="45.66106" lon="4.45525">
        <ele>720.9</ele>
        <time>2015-07-12T07:21:47.000Z</time>
      </trkpt>
      <trkpt lat="45.66124" lon="4.4555">
        <ele>720.2</ele>
        <time>2015-07-12T07:21:50.000Z</time>
      </trkpt>
      <trkpt lat="45.66135" lon="4.45567">
        <ele>720.6</ele>
        <time>2015-07-12T07:21:52.000Z</time>
      </trkpt>
      <trkpt lat="45.66145" lon="4.45593">
        <ele>720.7</ele>
        <time>2015-07-12T07:21:55.000Z</time>
      </trkpt>
      <trkpt lat="45.6615" lon="4.4561">
        <ele>720.4</ele>
        <time>2015-07-12T07:21:57.000Z</time>
      </trkpt>
      <trkpt lat="45.66158" lon="4.45641">
        <ele>720.5</ele>
        <time>2015-07-12T07:22:01.000Z</time>
      </trkpt>
      <trkpt lat="45.66165" lon="4.45669">
        <ele>722</ele>
        <time>2015-07-12T07:22:05.000Z</time>
      </trkpt>
      <trkpt lat="45.66168" lon="4.45675">
        <ele>722.3</ele>
        <time>2015-07-12T07:22:06.000Z</time>
      </trkpt>
      <trkpt lat="45.66184" lon="4.45684">
        <ele>723</ele>
        <time>2015-07-12T07:22:10.000Z</time>
      </trkpt>
      <trkpt lat="45.66203" lon="4.45691">
        <ele>723.5</ele>
        <time>2015-07-12T07:22:15.000Z</time>
      </trkpt>
      <trkpt lat="45.66222" lon="4.45703">
        <ele>723.6</ele>
        <time>2015-07-12T07:22:21.000Z</time>
      </trkpt>
      <trkpt lat="45.66223" lon="4.45707">
        <ele>723.8</ele>
        <time>2015-07-12T07:22:22.000Z</time>
      </trkpt>
      <trkpt lat="45.66222" lon="4.45724">
        <ele>725.1</ele>
        <time>2015-07-12T07:22:26.000Z</time>
      </trkpt>
      <trkpt lat="45.6622" lon="4.4575">
        <ele>726</ele>
        <time>2015-07-12T07:22:33.000Z</time>
      </trkpt>
      <trkpt lat="45.6622" lon="4.45777">
        <ele>728</ele>
        <time>2015-07-12T07:22:41.000Z</time>
      </trkpt>
      <trkpt lat="45.66218" lon="4.45804">
        <ele>728.9</ele>
        <time>2015-07-12T07:22:49.000Z</time>
      </trkpt>
      <trkpt lat="45.66216" lon="4.45831">
        <ele>730.1</ele>
        <time>2015-07-12T07:22:57.000Z</time>
      </trkpt>
      <trkpt lat="45.66215" lon="4.45857">
        <ele>731.1</ele>
        <time>2015-07-12T07:23:05.000Z</time>
      </trkpt>
      <trkpt lat="45.66216" lon="4.45884">
        <ele>732.2</ele>
        <time>2015-07-12T07:23:13.000Z</time>
      </trkpt>
      <trkpt lat="45.66216" lon="4.45911">
        <ele>734.1</ele>
        <time>2015-07-12T07:23:23.000Z</time>
      </trkpt>
      <trkpt lat="45.66212" lon="4.45938">
        <ele>736.3</ele>
        <time>2015-07-12T07:23:34.000Z</time>
      </trkpt>
      <trkpt lat="45.6621" lon="4.4596">
        <ele>738.6</ele>
        <time>2015-07-12T07:23:44.000Z</time>
      </trkpt>
      <trkpt lat="45.66214" lon="4.4597">
        <ele>739.7</ele>
        <time>2015-07-12T07:23:49.000Z</time>
      </trkpt>
      <trkpt lat="45.66229" lon="4.45985">
        <ele>741.1</ele>
        <time>2015-07-12T07:24:01.000Z</time>
      </trkpt>
      <trkpt lat="45.66246" lon="4.45999">
        <ele>742</ele>
        <time>2015-07-12T07:24:11.000Z</time>
      </trkpt>
      <trkpt lat="45.66262" lon="4.46014">
        <ele>742.6</ele>
        <time>2015-07-12T07:24:19.000Z</time>
      </trkpt>
      <trkpt lat="45.66268" lon="4.46019">
        <ele>742.9</ele>
        <time>2015-07-12T07:24:22.000Z</time>
      </trkpt>
      <trkpt lat="45.66285" lon="4.46031">
        <ele>744.1</ele>
        <time>2015-07-12T07:24:30.000Z</time>
      </trkpt>
      <trkpt lat="45.66302" lon="4.46043">
        <ele>744.8</ele>
        <time>2015-07-12T07:24:38.000Z</time>
      </trkpt>
      <trkpt lat="45.66318" lon="4.46058">
        <ele>745.5</ele>
        <time>2015-07-12T07:24:45.000Z</time>
      </trkpt>
      <trkpt lat="45.66332" lon="4.46078">
        <ele>747.3</ele>
        <time>2015-07-12T07:24:53.000Z</time>
      </trkpt>
      <trkpt lat="45.66345" lon="4.46095">
        <ele>747.7</ele>
        <time>2015-07-12T07:25:00.000Z</time>
      </trkpt>
      <trkpt lat="45.66357" lon="4.46117">
        <ele>748.2</ele>
        <time>2015-07-12T07:25:08.000Z</time>
      </trkpt>
      <trkpt lat="45.66368" lon="4.46137">
        <ele>749</ele>
        <time>2015-07-12T07:25:15.000Z</time>
      </trkpt>
      <trkpt lat="45.66381" lon="4.46157">
        <ele>749.6</ele>
        <time>2015-07-12T07:25:22.000Z</time>
      </trkpt>
      <trkpt lat="45.66397" lon="4.46174">
        <ele>750.7</ele>
        <time>2015-07-12T07:25:30.000Z</time>
      </trkpt>
      <trkpt lat="45.6641" lon="4.46193">
        <ele>753.1</ele>
        <time>2015-07-12T07:25:41.000Z</time>
      </trkpt>
      <trkpt lat="45.66427" lon="4.46204">
        <ele>754.4</ele>
        <time>2015-07-12T07:25:51.000Z</time>
      </trkpt>
      <trkpt lat="45.66444" lon="4.46216">
        <ele>756.3</ele>
        <time>2015-07-12T07:26:02.000Z</time>
      </trkpt>
      <trkpt lat="45.6646" lon="4.4623">
        <ele>757.8</ele>
        <time>2015-07-12T07:26:13.000Z</time>
      </trkpt>
      <trkpt lat="45.66474" lon="4.46246">
        <ele>759.4</ele>
        <time>2015-07-12T07:26:25.000Z</time>
      </trkpt>
      <trkpt lat="45.6648" lon="4.4627">
        <ele>761.5</ele>
        <time>2015-07-12T07:26:38.000Z</time>
      </trkpt>
      <trkpt lat="45.66482" lon="4.46282">
        <ele>762.7</ele>
        <time>2015-07-12T07:26:46.000Z</time>
      </trkpt>
      <trkpt lat="45.66493" lon="4.46304">
        <ele>764.3</ele>
        <time>2015-07-12T07:27:00.000Z</time>
      </trkpt>
      <trkpt lat="45.66506" lon="4.46322">
        <ele>765.7</ele>
        <time>2015-07-12T07:27:12.000Z</time>
      </trkpt>
      <trkpt lat="45.66516" lon="4.46332">
        <ele>766</ele>
        <time>2015-07-12T07:27:20.000Z</time>
      </trkpt>
      <trkpt lat="45.66532" lon="4.46351">
        <ele>766.2</ele>
        <time>2015-07-12T07:27:29.000Z</time>
      </trkpt>
      <trkpt lat="45.66536" lon="4.46356">
        <ele>766.3</ele>
        <time>2015-07-12T07:27:31.000Z</time>
      </trkpt>
      <trkpt lat="45.66551" lon="4.46376">
        <ele>766.1</ele>
        <time>2015-07-12T07:27:38.000Z</time>
      </trkpt>
      <trkpt lat="45.66567" lon="4.46396">
        <ele>765.8</ele>
        <time>2015-07-12T07:27:44.000Z</time>
      </trkpt>
      <trkpt lat="45.66582" lon="4.46416">
        <ele>765.2</ele>
        <time>2015-07-12T07:27:49.000Z</time>
      </trkpt>
      <trkpt lat="45.66594" lon="4.46438">
        <ele>765.4</ele>
        <time>2015-07-12T07:27:55.000Z</time>
      </trkpt>
      <trkpt lat="45.66597" lon="4.46465">
        <ele>767</ele>
        <time>2015-07-12T07:28:01.000Z</time>
      </trkpt>
      <trkpt lat="45.66594" lon="4.46492">
        <ele>768.9</ele>
        <time>2015-07-12T07:28:09.000Z</time>
      </trkpt>
      <trkpt lat="45.66583" lon="4.46515">
        <ele>770</ele>
        <time>2015-07-12T07:28:17.000Z</time>
      </trkpt>
      <trkpt lat="45.66579" lon="4.46527">
        <ele>769.9</ele>
        <time>2015-07-12T07:28:21.000Z</time>
      </trkpt>
      <trkpt lat="45.66588" lon="4.46542">
        <ele>769.5</ele>
        <time>2015-07-12T07:28:25.000Z</time>
      </trkpt>
      <trkpt lat="45.66602" lon="4.46559">
        <ele>769.6</ele>
        <time>2015-07-12T07:28:30.000Z</time>
      </trkpt>
      <trkpt lat="45.66614" lon="4.46579">
        <ele>770.2</ele>
        <time>2015-07-12T07:28:36.000Z</time>
      </trkpt>
      <trkpt lat="45.66624" lon="4.46601">
        <ele>771.2</ele>
        <time>2015-07-12T07:28:43.000Z</time>
      </trkpt>
      <trkpt lat="45.66634" lon="4.46623">
        <ele>773.3</ele>
        <time>2015-07-12T07:28:52.000Z</time>
      </trkpt>
      <trkpt lat="45.6665" lon="4.46636">
        <ele>776</ele>
        <time>2015-07-12T07:29:02.000Z</time>
      </trkpt>
      <trkpt lat="45.66669" lon="4.46644">
        <ele>778.7</ele>
        <time>2015-07-12T07:29:13.000Z</time>
      </trkpt>
      <trkpt lat="45.66685" lon="4.46655">
        <ele>780.7</ele>
        <time>2015-07-12T07:29:24.000Z</time>
      </trkpt>
      <trkpt lat="45.66694" lon="4.46677">
        <ele>782.4</ele>
        <time>2015-07-12T07:29:36.000Z</time>
      </trkpt>
      <trkpt lat="45.66701" lon="4.46703">
        <ele>783.7</ele>
        <time>2015-07-12T07:29:47.000Z</time>
      </trkpt>
      <trkpt lat="45.66706" lon="4.46728">
        <ele>784.2</ele>
        <time>2015-07-12T07:29:56.000Z</time>
      </trkpt>
      <trkpt lat="45.66706" lon="4.46731">
        <ele>784.3</ele>
        <time>2015-07-12T07:29:58.000Z</time>
      </trkpt>
      <trkpt lat="45.6671" lon="4.46739">
        <ele>784.7</ele>
        <time>2015-07-12T07:33:19.000Z</time>
      </trkpt>
      <trkpt lat="45.6671" lon="4.46735">
        <ele>784.7</ele>
        <time>2015-07-12T07:33:29.000Z</time>
      </trkpt>
      <trkpt lat="45.6671" lon="4.46733">
        <ele>784.7</ele>
        <time>2015-07-12T07:35:57.000Z</time>
      </trkpt>
      <trkpt lat="45.66714" lon="4.4676">
        <ele>784.6</ele>
        <time>2015-07-12T07:36:13.000Z</time>
      </trkpt>
      <trkpt lat="45.66723" lon="4.46785">
        <ele>784.8</ele>
        <time>2015-07-12T07:36:21.000Z</time>
      </trkpt>
      <trkpt lat="45.66734" lon="4.46806">
        <ele>784.8</ele>
        <time>2015-07-12T07:36:29.000Z</time>
      </trkpt>
      <trkpt lat="45.66748" lon="4.46826">
        <ele>785.8</ele>
        <time>2015-07-12T07:36:36.000Z</time>
      </trkpt>
      <trkpt lat="45.66764" lon="4.46841">
        <ele>785.4</ele>
        <time>2015-07-12T07:36:43.000Z</time>
      </trkpt>
      <trkpt lat="45.66782" lon="4.46858">
        <ele>784.6</ele>
        <time>2015-07-12T07:36:49.000Z</time>
      </trkpt>
      <trkpt lat="45.66801" lon="4.46875">
        <ele>782.4</ele>
        <time>2015-07-12T07:36:53.000Z</time>
      </trkpt>
      <trkpt lat="45.66807" lon="4.4688">
        <ele>781.9</ele>
        <time>2015-07-12T07:36:54.000Z</time>
      </trkpt>
      <trkpt lat="45.66822" lon="4.46899">
        <ele>781.3</ele>
        <time>2015-07-12T07:36:57.000Z</time>
      </trkpt>
      <trkpt lat="45.66826" lon="4.46907">
        <ele>781.1</ele>
        <time>2015-07-12T07:36:58.000Z</time>
      </trkpt>
      <trkpt lat="45.6684" lon="4.46926">
        <ele>780.8</ele>
        <time>2015-07-12T07:37:01.000Z</time>
      </trkpt>
      <trkpt lat="45.66855" lon="4.46949">
        <ele>780.9</ele>
        <time>2015-07-12T07:37:05.000Z</time>
      </trkpt>
      <trkpt lat="45.66858" lon="4.46954">
        <ele>780.7</ele>
        <time>2015-07-12T07:37:06.000Z</time>
      </trkpt>
      <trkpt lat="45.6687" lon="4.46975">
        <ele>780.2</ele>
        <time>2015-07-12T07:37:10.000Z</time>
      </trkpt>
      <trkpt lat="45.66881" lon="4.46995">
        <ele>779.9</ele>
        <time>2015-07-12T07:37:14.000Z</time>
      </trkpt>
      <trkpt lat="45.66892" lon="4.47011">
        <ele>780.2</ele>
        <time>2015-07-12T07:37:18.000Z</time>
      </trkpt>
      <trkpt lat="45.66905" lon="4.4703">
        <ele>780</ele>
        <time>2015-07-12T07:37:23.000Z</time>
      </trkpt>
      <trkpt lat="45.6692" lon="4.4705">
        <ele>778.9</ele>
        <time>2015-07-12T07:37:28.000Z</time>
      </trkpt>
      <trkpt lat="45.66923" lon="4.47054">
        <ele>778.4</ele>
        <time>2015-07-12T07:37:29.000Z</time>
      </trkpt>
      <trkpt lat="45.66929" lon="4.47064">
        <ele>777.5</ele>
        <time>2015-07-12T07:37:31.000Z</time>
      </trkpt>
      <trkpt lat="45.6694" lon="4.47092">
        <ele>774.6</ele>
        <time>2015-07-12T07:37:35.000Z</time>
      </trkpt>
      <trkpt lat="45.66942" lon="4.47098">
        <ele>773.9</ele>
        <time>2015-07-12T07:37:36.000Z</time>
      </trkpt>
      <trkpt lat="45.66947" lon="4.47107">
        <ele>772.4</ele>
        <time>2015-07-12T07:37:39.000Z</time>
      </trkpt>
      <trkpt lat="45.66962" lon="4.47121">
        <ele>770.5</ele>
        <time>2015-07-12T07:37:44.000Z</time>
      </trkpt>
      <trkpt lat="45.66981" lon="4.4713">
        <ele>768.7</ele>
        <time>2015-07-12T07:37:47.000Z</time>
      </trkpt>
      <trkpt lat="45.67004" lon="4.4714">
        <ele>765.5</ele>
        <time>2015-07-12T07:37:50.000Z</time>
      </trkpt>
      <trkpt lat="45.6702" lon="4.47148">
        <ele>763.4</ele>
        <time>2015-07-12T07:37:52.000Z</time>
      </trkpt>
      <trkpt lat="45.67041" lon="4.47172">
        <ele>760.9</ele>
        <time>2015-07-12T07:37:55.000Z</time>
      </trkpt>
      <trkpt lat="45.67053" lon="4.4719">
        <ele>760.1</ele>
        <time>2015-07-12T07:37:57.000Z</time>
      </trkpt>
      <trkpt lat="45.67069" lon="4.47216">
        <ele>760</ele>
        <time>2015-07-12T07:38:00.000Z</time>
      </trkpt>
      <trkpt lat="45.67073" lon="4.47225">
        <ele>760.1</ele>
        <time>2015-07-12T07:38:01.000Z</time>
      </trkpt>
      <trkpt lat="45.67085" lon="4.47249">
        <ele>760.9</ele>
        <time>2015-07-12T07:38:04.000Z</time>
      </trkpt>
      <trkpt lat="45.67095" lon="4.47271">
        <ele>761.7</ele>
        <time>2015-07-12T07:38:07.000Z</time>
      </trkpt>
      <trkpt lat="45.67107" lon="4.47296">
        <ele>762.5</ele>
        <time>2015-07-12T07:38:11.000Z</time>
      </trkpt>
      <trkpt lat="45.67118" lon="4.47318">
        <ele>762.3</ele>
        <time>2015-07-12T07:38:15.000Z</time>
      </trkpt>
      <trkpt lat="45.67128" lon="4.4734">
        <ele>762.4</ele>
        <time>2015-07-12T07:38:20.000Z</time>
      </trkpt>
      <trkpt lat="45.6714" lon="4.47365">
        <ele>764.4</ele>
        <time>2015-07-12T07:38:26.000Z</time>
      </trkpt>
      <trkpt lat="45.6715" lon="4.47387">
        <ele>766.4</ele>
        <time>2015-07-12T07:38:32.000Z</time>
      </trkpt>
      <trkpt lat="45.67159" lon="4.47409">
        <ele>768.2</ele>
        <time>2015-07-12T07:38:40.000Z</time>
      </trkpt>
      <trkpt lat="45.67167" lon="4.47433">
        <ele>770.1</ele>
        <time>2015-07-12T07:38:49.000Z</time>
      </trkpt>
      <trkpt lat="45.67176" lon="4.47457">
        <ele>770.2</ele>
        <time>2015-07-12T07:38:57.000Z</time>
      </trkpt>
      <trkpt lat="45.67185" lon="4.47481">
        <ele>769.6</ele>
        <time>2015-07-12T07:39:03.000Z</time>
      </trkpt>
      <trkpt lat="45.6719" lon="4.47506">
        <ele>769.7</ele>
        <time>2015-07-12T07:39:08.000Z</time>
      </trkpt>
      <trkpt lat="45.67195" lon="4.47534">
        <ele>770</ele>
        <time>2015-07-12T07:39:13.000Z</time>
      </trkpt>
      <trkpt lat="45.672" lon="4.47564">
        <ele>769.7</ele>
        <time>2015-07-12T07:39:18.000Z</time>
      </trkpt>
      <trkpt lat="45.67208" lon="4.47591">
        <ele>770.3</ele>
        <time>2015-07-12T07:39:23.000Z</time>
      </trkpt>
      <trkpt lat="45.67216" lon="4.47617">
        <ele>770.9</ele>
        <time>2015-07-12T07:39:28.000Z</time>
      </trkpt>
      <trkpt lat="45.67224" lon="4.47644">
        <ele>772.2</ele>
        <time>2015-07-12T07:39:34.000Z</time>
      </trkpt>
      <trkpt lat="45.67234" lon="4.4767">
        <ele>772.8</ele>
        <time>2015-07-12T07:39:41.000Z</time>
      </trkpt>
      <trkpt lat="45.67243" lon="4.47696">
        <ele>772.7</ele>
        <time>2015-07-12T07:39:47.000Z</time>
      </trkpt>
      <trkpt lat="45.67249" lon="4.47727">
        <ele>771.9</ele>
        <time>2015-07-12T07:39:52.000Z</time>
      </trkpt>
      <trkpt lat="45.67254" lon="4.47758">
        <ele>770.3</ele>
        <time>2015-07-12T07:39:56.000Z</time>
      </trkpt>
      <trkpt lat="45.67259" lon="4.4779">
        <ele>768.4</ele>
        <time>2015-07-12T07:40:00.000Z</time>
      </trkpt>
      <trkpt lat="45.67266" lon="4.4782">
        <ele>767.8</ele>
        <time>2015-07-12T07:40:04.000Z</time>
      </trkpt>
      <trkpt lat="45.67272" lon="4.47849">
        <ele>768.2</ele>
        <time>2015-07-12T07:40:08.000Z</time>
      </trkpt>
      <trkpt lat="45.67276" lon="4.47874">
        <ele>769.3</ele>
        <time>2015-07-12T07:40:12.000Z</time>
      </trkpt>
      <trkpt lat="45.67277" lon="4.47881">
        <ele>769.6</ele>
        <time>2015-07-12T07:40:13.000Z</time>
      </trkpt>
      <trkpt lat="45.67277" lon="4.47905">
        <ele>769.9</ele>
        <time>2015-07-12T07:40:17.000Z</time>
      </trkpt>
      <trkpt lat="45.67276" lon="4.47917">
        <ele>769.9</ele>
        <time>2015-07-12T07:40:19.000Z</time>
      </trkpt>
      <trkpt lat="45.67274" lon="4.47939">
        <ele>770.3</ele>
        <time>2015-07-12T07:40:23.000Z</time>
      </trkpt>
      <trkpt lat="45.67273" lon="4.47964">
        <ele>770.8</ele>
        <time>2015-07-12T07:40:28.000Z</time>
      </trkpt>
      <trkpt lat="45.67273" lon="4.47974">
        <ele>771</ele>
        <time>2015-07-12T07:40:30.000Z</time>
      </trkpt>
      <trkpt lat="45.67276" lon="4.47998">
        <ele>770.7</ele>
        <time>2015-07-12T07:40:35.000Z</time>
      </trkpt>
      <trkpt lat="45.67276" lon="4.48015">
        <ele>770.7</ele>
        <time>2015-07-12T07:40:39.000Z</time>
      </trkpt>
      <trkpt lat="45.67277" lon="4.4802">
        <ele>770.9</ele>
        <time>2015-07-12T07:40:40.000Z</time>
      </trkpt>
      <trkpt lat="45.6729" lon="4.48039">
        <ele>772</ele>
        <time>2015-07-12T07:40:50.000Z</time>
      </trkpt>
      <trkpt lat="45.67291" lon="4.48041">
        <ele>772</ele>
        <time>2015-07-12T07:40:51.000Z</time>
      </trkpt>
      <trkpt lat="45.67302" lon="4.4805">
        <ele>772.6</ele>
        <time>2015-07-12T07:40:58.000Z</time>
      </trkpt>
      <trkpt lat="45.6732" lon="4.48056">
        <ele>773</ele>
        <time>2015-07-12T07:41:06.000Z</time>
      </trkpt>
      <trkpt lat="45.67338" lon="4.48062">
        <ele>773.5</ele>
        <time>2015-07-12T07:41:12.000Z</time>
      </trkpt>
      <trkpt lat="45.67356" lon="4.48068">
        <ele>773.5</ele>
        <time>2015-07-12T07:41:17.000Z</time>
      </trkpt>
      <trkpt lat="45.67375" lon="4.48077">
        <ele>773</ele>
        <time>2015-07-12T07:41:22.000Z</time>
      </trkpt>
      <trkpt lat="45.67394" lon="4.48089">
        <ele>772.6</ele>
        <time>2015-07-12T07:41:27.000Z</time>
      </trkpt>
      <trkpt lat="45.67409" lon="4.48103">
        <ele>771.5</ele>
        <time>2015-07-12T07:41:33.000Z</time>
      </trkpt>
      <trkpt lat="45.6741" lon="4.48106">
        <ele>771.4</ele>
        <time>2015-07-12T07:41:34.000Z</time>
      </trkpt>
      <trkpt lat="45.67413" lon="4.48133">
        <ele>773.4</ele>
        <time>2015-07-12T07:41:42.000Z</time>
      </trkpt>
      <trkpt lat="45.67421" lon="4.48158">
        <ele>775.4</ele>
        <time>2015-07-12T07:41:50.000Z</time>
      </trkpt>
      <trkpt lat="45.67429" lon="4.48183">
        <ele>776</ele>
        <time>2015-07-12T07:41:59.000Z</time>
      </trkpt>
      <trkpt lat="45.67438" lon="4.48208">
        <ele>776.4</ele>
        <time>2015-07-12T07:42:10.000Z</time>
      </trkpt>
      <trkpt lat="45.67445" lon="4.48232">
        <ele>777.4</ele>
        <time>2015-07-12T07:42:20.000Z</time>
      </trkpt>
      <trkpt lat="45.67452" lon="4.48256">
        <ele>778.5</ele>
        <time>2015-07-12T07:42:30.000Z</time>
      </trkpt>
      <trkpt lat="45.67459" lon="4.4828">
        <ele>779.7</ele>
        <time>2015-07-12T07:42:40.000Z</time>
      </trkpt>
      <trkpt lat="45.6746" lon="4.48282">
        <ele>779.9</ele>
        <time>2015-07-12T07:42:42.000Z</time>
      </trkpt>
      <trkpt lat="45.67449" lon="4.48301">
        <ele>780.8</ele>
        <time>2015-07-12T07:43:28.000Z</time>
      </trkpt>
      <trkpt lat="45.67432" lon="4.48316">
        <ele>780.5</ele>
        <time>2015-07-12T07:43:36.000Z</time>
      </trkpt>
      <trkpt lat="45.67416" lon="4.48332">
        <ele>779.9</ele>
        <time>2015-07-12T07:43:44.000Z</time>
      </trkpt>
      <trkpt lat="45.67411" lon="4.48342">
        <ele>780.2</ele>
        <time>2015-07-12T07:43:49.000Z</time>
      </trkpt>
      <trkpt lat="45.67417" lon="4.48366">
        <ele>782.3</ele>
        <time>2015-07-12T07:43:58.000Z</time>
      </trkpt>
      <trkpt lat="45.6741" lon="4.4839">
        <ele>783.3</ele>
        <time>2015-07-12T07:44:06.000Z</time>
      </trkpt>
      <trkpt lat="45.67404" lon="4.48415">
        <ele>783.6</ele>
        <time>2015-07-12T07:44:14.000Z</time>
      </trkpt>
      <trkpt lat="45.67403" lon="4.48442">
        <ele>784.5</ele>
        <time>2015-07-12T07:44:22.000Z</time>
      </trkpt>
      <trkpt lat="45.67403" lon="4.48471">
        <ele>784.5</ele>
        <time>2015-07-12T07:44:30.000Z</time>
      </trkpt>
      <trkpt lat="45.67402" lon="4.485">
        <ele>785.3</ele>
        <time>2015-07-12T07:44:38.000Z</time>
      </trkpt>
      <trkpt lat="45.67405" lon="4.48528">
        <ele>785.4</ele>
        <time>2015-07-12T07:44:45.000Z</time>
      </trkpt>
      <trkpt lat="45.67409" lon="4.48553">
        <ele>785.7</ele>
        <time>2015-07-12T07:44:51.000Z</time>
      </trkpt>
      <trkpt lat="45.67415" lon="4.4858">
        <ele>785.8</ele>
        <time>2015-07-12T07:44:58.000Z</time>
      </trkpt>
      <trkpt lat="45.6742" lon="4.48605">
        <ele>784.8</ele>
        <time>2015-07-12T07:45:04.000Z</time>
      </trkpt>
      <trkpt lat="45.67428" lon="4.48613">
        <ele>785.1</ele>
        <time>2015-07-12T07:45:09.000Z</time>
      </trkpt>
      <trkpt lat="45.67441" lon="4.48623">
        <ele>786.2</ele>
        <time>2015-07-12T07:45:16.000Z</time>
      </trkpt>
      <trkpt lat="45.67453" lon="4.48642">
        <ele>786.8</ele>
        <time>2015-07-12T07:45:24.000Z</time>
      </trkpt>
      <trkpt lat="45.67455" lon="4.48657">
        <ele>786.7</ele>
        <time>2015-07-12T07:45:29.000Z</time>
      </trkpt>
      <trkpt lat="45.67457" lon="4.48684">
        <ele>787.1</ele>
        <time>2015-07-12T07:45:36.000Z</time>
      </trkpt>
      <trkpt lat="45.67452" lon="4.4871">
        <ele>787.4</ele>
        <time>2015-07-12T07:45:42.000Z</time>
      </trkpt>
      <trkpt lat="45.67442" lon="4.48733">
        <ele>787</ele>
        <time>2015-07-12T07:45:48.000Z</time>
      </trkpt>
      <trkpt lat="45.67427" lon="4.48754">
        <ele>785.6</ele>
        <time>2015-07-12T07:45:53.000Z</time>
      </trkpt>
      <trkpt lat="45.67415" lon="4.48779">
        <ele>784.9</ele>
        <time>2015-07-12T07:45:57.000Z</time>
      </trkpt>
      <trkpt lat="45.67407" lon="4.48804">
        <ele>785.6</ele>
        <time>2015-07-12T07:46:01.000Z</time>
      </trkpt>
      <trkpt lat="45.67401" lon="4.4883">
        <ele>785.6</ele>
        <time>2015-07-12T07:46:05.000Z</time>
      </trkpt>
      <trkpt lat="45.674" lon="4.48836">
        <ele>785.6</ele>
        <time>2015-07-12T07:46:06.000Z</time>
      </trkpt>
      <trkpt lat="45.67398" lon="4.48863">
        <ele>785.3</ele>
        <time>2015-07-12T07:46:10.000Z</time>
      </trkpt>
      <trkpt lat="45.67398" lon="4.48869">
        <ele>785.3</ele>
        <time>2015-07-12T07:46:11.000Z</time>
      </trkpt>
      <trkpt lat="45.67395" lon="4.48889">
        <ele>785</ele>
        <time>2015-07-12T07:46:14.000Z</time>
      </trkpt>
      <trkpt lat="45.67383" lon="4.48911">
        <ele>784.6</ele>
        <time>2015-07-12T07:46:18.000Z</time>
      </trkpt>
      <trkpt lat="45.67365" lon="4.48921">
        <ele>785.6</ele>
        <time>2015-07-12T07:46:22.000Z</time>
      </trkpt>
      <trkpt lat="45.67343" lon="4.48919">
        <ele>786.6</ele>
        <time>2015-07-12T07:46:27.000Z</time>
      </trkpt>
      <trkpt lat="45.67335" lon="4.48915">
        <ele>786.6</ele>
        <time>2015-07-12T07:46:29.000Z</time>
      </trkpt>
      <trkpt lat="45.67319" lon="4.48909">
        <ele>786.3</ele>
        <time>2015-07-12T07:46:33.000Z</time>
      </trkpt>
      <trkpt lat="45.67311" lon="4.48908">
        <ele>786.5</ele>
        <time>2015-07-12T07:46:35.000Z</time>
      </trkpt>
      <trkpt lat="45.673" lon="4.48918">
        <ele>788.3</ele>
        <time>2015-07-12T07:46:42.000Z</time>
      </trkpt>
      <trkpt lat="45.67306" lon="4.48925">
        <ele>789.2</ele>
        <time>2015-07-12T07:46:45.000Z</time>
      </trkpt>
      <trkpt lat="45.67321" lon="4.48942">
        <ele>791.1</ele>
        <time>2015-07-12T07:46:53.000Z</time>
      </trkpt>
      <trkpt lat="45.67337" lon="4.48959">
        <ele>793.4</ele>
        <time>2015-07-12T07:47:01.000Z</time>
      </trkpt>
      <trkpt lat="45.67353" lon="4.48978">
        <ele>795.3</ele>
        <time>2015-07-12T07:47:09.000Z</time>
      </trkpt>
      <trkpt lat="45.67366" lon="4.48998">
        <ele>797.4</ele>
        <time>2015-07-12T07:47:17.000Z</time>
      </trkpt>
      <trkpt lat="45.67379" lon="4.4902">
        <ele>798.8</ele>
        <time>2015-07-12T07:47:25.000Z</time>
      </trkpt>
      <trkpt lat="45.67392" lon="4.49042">
        <ele>800.3</ele>
        <time>2015-07-12T07:47:33.000Z</time>
      </trkpt>
      <trkpt lat="45.67404" lon="4.49064">
        <ele>801.8</ele>
        <time>2015-07-12T07:47:41.000Z</time>
      </trkpt>
      <trkpt lat="45.67416" lon="4.49085">
        <ele>803.2</ele>
        <time>2015-07-12T07:47:49.000Z</time>
      </trkpt>
      <trkpt lat="45.67428" lon="4.49106">
        <ele>803.8</ele>
        <time>2015-07-12T07:47:57.000Z</time>
      </trkpt>
      <trkpt lat="45.6744" lon="4.49127">
        <ele>805.1</ele>
        <time>2015-07-12T07:48:05.000Z</time>
      </trkpt>
      <trkpt lat="45.67452" lon="4.49148">
        <ele>806.2</ele>
        <time>2015-07-12T07:48:13.000Z</time>
      </trkpt>
      <trkpt lat="45.67464" lon="4.4917">
        <ele>806.8</ele>
        <time>2015-07-12T07:48:21.000Z</time>
      </trkpt>
      <trkpt lat="45.67476" lon="4.49192">
        <ele>808</ele>
        <time>2015-07-12T07:48:29.000Z</time>
      </trkpt>
      <trkpt lat="45.67489" lon="4.49214">
        <ele>810</ele>
        <time>2015-07-12T07:48:37.000Z</time>
      </trkpt>
      <trkpt lat="45.675" lon="4.49234">
        <ele>811.8</ele>
        <time>2015-07-12T07:48:45.000Z</time>
      </trkpt>
      <trkpt lat="45.67512" lon="4.49254">
        <ele>813.4</ele>
        <time>2015-07-12T07:48:53.000Z</time>
      </trkpt>
      <trkpt lat="45.67525" lon="4.49274">
        <ele>814.8</ele>
        <time>2015-07-12T07:49:01.000Z</time>
      </trkpt>
      <trkpt lat="45.67542" lon="4.4929">
        <ele>814.4</ele>
        <time>2015-07-12T07:49:09.000Z</time>
      </trkpt>
      <trkpt lat="45.67557" lon="4.49303">
        <ele>813.8</ele>
        <time>2015-07-12T07:49:15.000Z</time>
      </trkpt>
      <trkpt lat="45.67568" lon="4.49325">
        <ele>814</ele>
        <time>2015-07-12T07:49:20.000Z</time>
      </trkpt>
      <trkpt lat="45.67572" lon="4.49351">
        <ele>815.5</ele>
        <time>2015-07-12T07:49:27.000Z</time>
      </trkpt>
      <trkpt lat="45.67576" lon="4.49377">
        <ele>817</ele>
        <time>2015-07-12T07:49:35.000Z</time>
      </trkpt>
      <trkpt lat="45.6758" lon="4.49405">
        <ele>818.5</ele>
        <time>2015-07-12T07:49:43.000Z</time>
      </trkpt>
      <trkpt lat="45.67583" lon="4.49431">
        <ele>820.6</ele>
        <time>2015-07-12T07:49:51.000Z</time>
      </trkpt>
      <trkpt lat="45.67586" lon="4.49458">
        <ele>822.7</ele>
        <time>2015-07-12T07:50:00.000Z</time>
      </trkpt>
      <trkpt lat="45.67587" lon="4.49484">
        <ele>824.6</ele>
        <time>2015-07-12T07:50:08.000Z</time>
      </trkpt>
      <trkpt lat="45.67587" lon="4.49511">
        <ele>827</ele>
        <time>2015-07-12T07:50:17.000Z</time>
      </trkpt>
      <trkpt lat="45.67584" lon="4.49538">
        <ele>830.1</ele>
        <time>2015-07-12T07:50:26.000Z</time>
      </trkpt>
      <trkpt lat="45.67579" lon="4.49564">
        <ele>833.3</ele>
        <time>2015-07-12T07:50:36.000Z</time>
      </trkpt>
      <trkpt lat="45.67575" lon="4.4959">
        <ele>836.5</ele>
        <time>2015-07-12T07:50:47.000Z</time>
      </trkpt>
      <trkpt lat="45.67572" lon="4.49617">
        <ele>839</ele>
        <time>2015-07-12T07:50:58.000Z</time>
      </trkpt>
      <trkpt lat="45.67572" lon="4.49644">
        <ele>841.5</ele>
        <time>2015-07-12T07:51:10.000Z</time>
      </trkpt>
      <trkpt lat="45.6757" lon="4.49671">
        <ele>843.5</ele>
        <time>2015-07-12T07:51:22.000Z</time>
      </trkpt>
      <trkpt lat="45.67565" lon="4.49698">
        <ele>844.9</ele>
        <time>2015-07-12T07:51:32.000Z</time>
      </trkpt>
      <trkpt lat="45.67561" lon="4.49724">
        <ele>846.7</ele>
        <time>2015-07-12T07:51:43.000Z</time>
      </trkpt>
      <trkpt lat="45.67557" lon="4.49749">
        <ele>847.5</ele>
        <time>2015-07-12T07:51:52.000Z</time>
      </trkpt>
      <trkpt lat="45.67553" lon="4.49775">
        <ele>849.5</ele>
        <time>2015-07-12T07:52:00.000Z</time>
      </trkpt>
      <trkpt lat="45.67556" lon="4.49802">
        <ele>849.7</ele>
        <time>2015-07-12T07:52:08.000Z</time>
      </trkpt>
      <trkpt lat="45.67556" lon="4.49829">
        <ele>850.7</ele>
        <time>2015-07-12T07:52:15.000Z</time>
      </trkpt>
      <trkpt lat="45.67558" lon="4.49858">
        <ele>851.4</ele>
        <time>2015-07-12T07:52:22.000Z</time>
      </trkpt>
      <trkpt lat="45.6756" lon="4.49884">
        <ele>852.8</ele>
        <time>2015-07-12T07:52:29.000Z</time>
      </trkpt>
      <trkpt lat="45.67562" lon="4.49912">
        <ele>853.9</ele>
        <time>2015-07-12T07:52:37.000Z</time>
      </trkpt>
      <trkpt lat="45.67563" lon="4.49928">
        <ele>854.7</ele>
        <time>2015-07-12T07:52:42.000Z</time>
      </trkpt>
      <trkpt lat="45.67565" lon="4.49956">
        <ele>856.6</ele>
        <time>2015-07-12T07:52:51.000Z</time>
      </trkpt>
      <trkpt lat="45.67563" lon="4.49984">
        <ele>859.2</ele>
        <time>2015-07-12T07:53:01.000Z</time>
      </trkpt>
      <trkpt lat="45.67556" lon="4.5001">
        <ele>861.7</ele>
        <time>2015-07-12T07:53:11.000Z</time>
      </trkpt>
      <trkpt lat="45.67553" lon="4.50037">
        <ele>864</ele>
        <time>2015-07-12T07:53:21.000Z</time>
      </trkpt>
      <trkpt lat="45.67554" lon="4.50064">
        <ele>866.1</ele>
        <time>2015-07-12T07:53:31.000Z</time>
      </trkpt>
      <trkpt lat="45.67557" lon="4.50092">
        <ele>868.5</ele>
        <time>2015-07-12T07:53:41.000Z</time>
      </trkpt>
      <trkpt lat="45.67555" lon="4.5012">
        <ele>870.7</ele>
        <time>2015-07-12T07:53:51.000Z</time>
      </trkpt>
      <trkpt lat="45.67559" lon="4.50145">
        <ele>872.1</ele>
        <time>2015-07-12T07:54:00.000Z</time>
      </trkpt>
      <trkpt lat="45.67563" lon="4.5017">
        <ele>873.5</ele>
        <time>2015-07-12T07:54:09.000Z</time>
      </trkpt>
      <trkpt lat="45.67568" lon="4.50198">
        <ele>875</ele>
        <time>2015-07-12T07:54:20.000Z</time>
      </trkpt>
      <trkpt lat="45.67572" lon="4.50223">
        <ele>876.3</ele>
        <time>2015-07-12T07:54:28.000Z</time>
      </trkpt>
      <trkpt lat="45.6758" lon="4.50249">
        <ele>877.2</ele>
        <time>2015-07-12T07:54:37.000Z</time>
      </trkpt>
      <trkpt lat="45.67589" lon="4.50271">
        <ele>879.3</ele>
        <time>2015-07-12T07:54:46.000Z</time>
      </trkpt>
      <trkpt lat="45.676" lon="4.50291">
        <ele>881.3</ele>
        <time>2015-07-12T07:54:56.000Z</time>
      </trkpt>
      <trkpt lat="45.6761" lon="4.50315">
        <ele>883.7</ele>
        <time>2015-07-12T07:55:08.000Z</time>
      </trkpt>
      <trkpt lat="45.67612" lon="4.50319">
        <ele>884</ele>
        <time>2015-07-12T07:55:10.000Z</time>
      </trkpt>
      <trkpt lat="45.67616" lon="4.50332">
        <ele>885.6</ele>
        <time>2015-07-12T07:55:16.000Z</time>
      </trkpt>
      <trkpt lat="45.67622" lon="4.50357">
        <ele>889.1</ele>
        <time>2015-07-12T07:55:27.000Z</time>
      </trkpt>
      <trkpt lat="45.67624" lon="4.50364">
        <ele>890.1</ele>
        <time>2015-07-12T07:55:31.000Z</time>
      </trkpt>
      <trkpt lat="45.67636" lon="4.50387">
        <ele>892.6</ele>
        <time>2015-07-12T07:55:43.000Z</time>
      </trkpt>
      <trkpt lat="45.67644" lon="4.50404">
        <ele>894</ele>
        <time>2015-07-12T07:55:52.000Z</time>
      </trkpt>
      <trkpt lat="45.67655" lon="4.50425">
        <ele>895.4</ele>
        <time>2015-07-12T07:56:02.000Z</time>
      </trkpt>
      <trkpt lat="45.67667" lon="4.50445">
        <ele>897</ele>
        <time>2015-07-12T07:56:12.000Z</time>
      </trkpt>
      <trkpt lat="45.6768" lon="4.50463">
        <ele>897.9</ele>
        <time>2015-07-12T07:56:22.000Z</time>
      </trkpt>
      <trkpt lat="45.67693" lon="4.50483">
        <ele>899.4</ele>
        <time>2015-07-12T07:56:31.000Z</time>
      </trkpt>
      <trkpt lat="45.67705" lon="4.50503">
        <ele>900.4</ele>
        <time>2015-07-12T07:56:41.000Z</time>
      </trkpt>
      <trkpt lat="45.67717" lon="4.50524">
        <ele>901.3</ele>
        <time>2015-07-12T07:56:52.000Z</time>
      </trkpt>
      <trkpt lat="45.67731" lon="4.5054">
        <ele>901.7</ele>
        <time>2015-07-12T07:57:04.000Z</time>
      </trkpt>
      <trkpt lat="45.67747" lon="4.50552">
        <ele>902</ele>
        <time>2015-07-12T07:57:14.000Z</time>
      </trkpt>
      <trkpt lat="45.67765" lon="4.50562">
        <ele>902.8</ele>
        <time>2015-07-12T07:57:22.000Z</time>
      </trkpt>
      <trkpt lat="45.67783" lon="4.50573">
        <ele>903.4</ele>
        <time>2015-07-12T07:57:30.000Z</time>
      </trkpt>
      <trkpt lat="45.678" lon="4.50583">
        <ele>903</ele>
        <time>2015-07-12T07:57:36.000Z</time>
      </trkpt>
      <trkpt lat="45.67821" lon="4.50593">
        <ele>903</ele>
        <time>2015-07-12T07:57:42.000Z</time>
      </trkpt>
      <trkpt lat="45.67841" lon="4.50601">
        <ele>902.9</ele>
        <time>2015-07-12T07:57:48.000Z</time>
      </trkpt>
      <trkpt lat="45.67859" lon="4.50609">
        <ele>903</ele>
        <time>2015-07-12T07:57:54.000Z</time>
      </trkpt>
      <trkpt lat="45.67879" lon="4.50619">
        <ele>902.3</ele>
        <time>2015-07-12T07:58:00.000Z</time>
      </trkpt>
      <trkpt lat="45.67896" lon="4.50631">
        <ele>901.5</ele>
        <time>2015-07-12T07:58:05.000Z</time>
      </trkpt>
      <trkpt lat="45.67911" lon="4.50646">
        <ele>900.2</ele>
        <time>2015-07-12T07:58:09.000Z</time>
      </trkpt>
      <trkpt lat="45.67924" lon="4.50667">
        <ele>898.3</ele>
        <time>2015-07-12T07:58:12.000Z</time>
      </trkpt>
      <trkpt lat="45.67929" lon="4.50675">
        <ele>897.8</ele>
        <time>2015-07-12T07:58:13.000Z</time>
      </trkpt>
      <trkpt lat="45.6794" lon="4.50702">
        <ele>896.6</ele>
        <time>2015-07-12T07:58:16.000Z</time>
      </trkpt>
      <trkpt lat="45.67946" lon="4.50721">
        <ele>896</ele>
        <time>2015-07-12T07:58:18.000Z</time>
      </trkpt>
      <trkpt lat="45.67954" lon="4.50753">
        <ele>894.2</ele>
        <time>2015-07-12T07:58:21.000Z</time>
      </trkpt>
      <trkpt lat="45.67962" lon="4.50786">
        <ele>892.7</ele>
        <time>2015-07-12T07:58:24.000Z</time>
      </trkpt>
      <trkpt lat="45.6797" lon="4.5082">
        <ele>891.5</ele>
        <time>2015-07-12T07:58:27.000Z</time>
      </trkpt>
      <trkpt lat="45.67978" lon="4.50855">
        <ele>889.8</ele>
        <time>2015-07-12T07:58:30.000Z</time>
      </trkpt>
      <trkpt lat="45.67986" lon="4.50889">
        <ele>888.9</ele>
        <time>2015-07-12T07:58:33.000Z</time>
      </trkpt>
      <trkpt lat="45.67991" lon="4.50919">
        <ele>889</ele>
        <time>2015-07-12T07:58:36.000Z</time>
      </trkpt>
      <trkpt lat="45.67993" lon="4.50928">
        <ele>888.8</ele>
        <time>2015-07-12T07:58:37.000Z</time>
      </trkpt>
      <trkpt lat="45.67999" lon="4.50956">
        <ele>887.6</ele>
        <time>2015-07-12T07:58:40.000Z</time>
      </trkpt>
      <trkpt lat="45.68007" lon="4.50985">
        <ele>885.6</ele>
        <time>2015-07-12T07:58:43.000Z</time>
      </trkpt>
      <trkpt lat="45.68019" lon="4.51014">
        <ele>883.6</ele>
        <time>2015-07-12T07:58:46.000Z</time>
      </trkpt>
      <trkpt lat="45.68031" lon="4.5104">
        <ele>881</ele>
        <time>2015-07-12T07:58:49.000Z</time>
      </trkpt>
      <trkpt lat="45.68037" lon="4.51049">
        <ele>879.9</ele>
        <time>2015-07-12T07:58:50.000Z</time>
      </trkpt>
      <trkpt lat="45.68057" lon="4.51069">
        <ele>877.6</ele>
        <time>2015-07-12T07:58:53.000Z</time>
      </trkpt>
      <trkpt lat="45.68072" lon="4.5108">
        <ele>876.7</ele>
        <time>2015-07-12T07:58:55.000Z</time>
      </trkpt>
      <trkpt lat="45.68094" lon="4.51094">
        <ele>875.9</ele>
        <time>2015-07-12T07:58:58.000Z</time>
      </trkpt>
      <trkpt lat="45.681" lon="4.51099">
        <ele>875.9</ele>
        <time>2015-07-12T07:58:59.000Z</time>
      </trkpt>
      <trkpt lat="45.68117" lon="4.51113">
        <ele>876.1</ele>
        <time>2015-07-12T07:59:02.000Z</time>
      </trkpt>
      <trkpt lat="45.68121" lon="4.51117">
        <ele>875.8</ele>
        <time>2015-07-12T07:59:03.000Z</time>
      </trkpt>
      <trkpt lat="45.68127" lon="4.51124">
        <ele>875.4</ele>
        <time>2015-07-12T07:59:07.000Z</time>
      </trkpt>
      <trkpt lat="45.68132" lon="4.51134">
        <ele>874.9</ele>
        <time>2015-07-12T07:59:17.000Z</time>
      </trkpt>
      <trkpt lat="45.68146" lon="4.51151">
        <ele>873.8</ele>
        <time>2015-07-12T07:59:24.000Z</time>
      </trkpt>
      <trkpt lat="45.68161" lon="4.51171">
        <ele>872.5</ele>
        <time>2015-07-12T07:59:30.000Z</time>
      </trkpt>
      <trkpt lat="45.68168" lon="4.51179">
        <ele>872.1</ele>
        <time>2015-07-12T07:59:32.000Z</time>
      </trkpt>
      <trkpt lat="45.68178" lon="4.51192">
        <ele>871.2</ele>
        <time>2015-07-12T07:59:35.000Z</time>
      </trkpt>
      <trkpt lat="45.68193" lon="4.51211">
        <ele>870.4</ele>
        <time>2015-07-12T07:59:39.000Z</time>
      </trkpt>
      <trkpt lat="45.68206" lon="4.51232">
        <ele>869.2</ele>
        <time>2015-07-12T07:59:43.000Z</time>
      </trkpt>
      <trkpt lat="45.68209" lon="4.51237">
        <ele>868.9</ele>
        <time>2015-07-12T07:59:44.000Z</time>
      </trkpt>
      <trkpt lat="45.6822" lon="4.5126">
        <ele>867.7</ele>
        <time>2015-07-12T07:59:48.000Z</time>
      </trkpt>
      <trkpt lat="45.68232" lon="4.51273">
        <ele>867.2</ele>
        <time>2015-07-12T08:00:00.000Z</time>
      </trkpt>
      <trkpt lat="45.68241" lon="4.51251">
        <ele>868</ele>
        <time>2015-07-12T08:00:31.000Z</time>
      </trkpt>
      <trkpt lat="45.68248" lon="4.51225">
        <ele>868.1</ele>
        <time>2015-07-12T08:00:39.000Z</time>
      </trkpt>
      <trkpt lat="45.6825" lon="4.51196">
        <ele>868.9</ele>
        <time>2015-07-12T08:00:47.000Z</time>
      </trkpt>
      <trkpt lat="45.68251" lon="4.51169">
        <ele>868.9</ele>
        <time>2015-07-12T08:00:54.000Z</time>
      </trkpt>
      <trkpt lat="45.68251" lon="4.51142">
        <ele>868</ele>
        <time>2015-07-12T08:01:00.000Z</time>
      </trkpt>
      <trkpt lat="45.6825" lon="4.51114">
        <ele>867.1</ele>
        <time>2015-07-12T08:01:06.000Z</time>
      </trkpt>
      <trkpt lat="45.68249" lon="4.51086">
        <ele>868.1</ele>
        <time>2015-07-12T08:01:12.000Z</time>
      </trkpt>
      <trkpt lat="45.68249" lon="4.5106">
        <ele>868.2</ele>
        <time>2015-07-12T08:01:18.000Z</time>
      </trkpt>
      <trkpt lat="45.68251" lon="4.51031">
        <ele>868.6</ele>
        <time>2015-07-12T08:01:25.000Z</time>
      </trkpt>
      <trkpt lat="45.68253" lon="4.51004">
        <ele>869.4</ele>
        <time>2015-07-12T08:01:31.000Z</time>
      </trkpt>
      <trkpt lat="45.68253" lon="4.50977">
        <ele>870.3</ele>
        <time>2015-07-12T08:01:37.000Z</time>
      </trkpt>
      <trkpt lat="45.68253" lon="4.50948">
        <ele>872.2</ele>
        <time>2015-07-12T08:01:45.000Z</time>
      </trkpt>
      <trkpt lat="45.68253" lon="4.5092">
        <ele>874</ele>
        <time>2015-07-12T08:01:54.000Z</time>
      </trkpt>
      <trkpt lat="45.68254" lon="4.50893">
        <ele>873.9</ele>
        <time>2015-07-12T08:02:02.000Z</time>
      </trkpt>
      <trkpt lat="45.68255" lon="4.50865">
        <ele>872.8</ele>
        <time>2015-07-12T08:02:08.000Z</time>
      </trkpt>
      <trkpt lat="45.68255" lon="4.50839">
        <ele>871.9</ele>
        <time>2015-07-12T08:02:12.000Z</time>
      </trkpt>
      <trkpt lat="45.68252" lon="4.50808">
        <ele>870.6</ele>
        <time>2015-07-12T08:02:16.000Z</time>
      </trkpt>
      <trkpt lat="45.68248" lon="4.50775">
        <ele>869.3</ele>
        <time>2015-07-12T08:02:20.000Z</time>
      </trkpt>
      <trkpt lat="45.68245" lon="4.50749">
        <ele>868.1</ele>
        <time>2015-07-12T08:02:23.000Z</time>
      </trkpt>
      <trkpt lat="45.68241" lon="4.50717">
        <ele>865.8</ele>
        <time>2015-07-12T08:02:26.000Z</time>
      </trkpt>
      <trkpt lat="45.68237" lon="4.50681">
        <ele>864.2</ele>
        <time>2015-07-12T08:02:29.000Z</time>
      </trkpt>
      <trkpt lat="45.68236" lon="4.50671">
        <ele>863.4</ele>
        <time>2015-07-12T08:02:30.000Z</time>
      </trkpt>
      <trkpt lat="45.68238" lon="4.50643">
        <ele>862.8</ele>
        <time>2015-07-12T08:02:33.000Z</time>
      </trkpt>
      <trkpt lat="45.68244" lon="4.50616">
        <ele>860.5</ele>
        <time>2015-07-12T08:02:36.000Z</time>
      </trkpt>
      <trkpt lat="45.68246" lon="4.50607">
        <ele>859.4</ele>
        <time>2015-07-12T08:02:37.000Z</time>
      </trkpt>
      <trkpt lat="45.68253" lon="4.50574">
        <ele>855.9</ele>
        <time>2015-07-12T08:02:40.000Z</time>
      </trkpt>
      <trkpt lat="45.68259" lon="4.50544">
        <ele>853.8</ele>
        <time>2015-07-12T08:02:43.000Z</time>
      </trkpt>
      <trkpt lat="45.68265" lon="4.50516">
        <ele>851.6</ele>
        <time>2015-07-12T08:02:46.000Z</time>
      </trkpt>
      <trkpt lat="45.68268" lon="4.50508">
        <ele>850.7</ele>
        <time>2015-07-12T08:02:47.000Z</time>
      </trkpt>
      <trkpt lat="45.68271" lon="4.50501">
        <ele>849.6</ele>
        <time>2015-07-12T08:02:48.000Z</time>
      </trkpt>
      <trkpt lat="45.68279" lon="4.50478">
        <ele>847.1</ele>
        <time>2015-07-12T08:02:51.000Z</time>
      </trkpt>
      <trkpt lat="45.68292" lon="4.50449">
        <ele>845</ele>
        <time>2015-07-12T08:02:55.000Z</time>
      </trkpt>
      <trkpt lat="45.68304" lon="4.50422">
        <ele>844.6</ele>
        <time>2015-07-12T08:02:59.000Z</time>
      </trkpt>
      <trkpt lat="45.68306" lon="4.50416">
        <ele>844.9</ele>
        <time>2015-07-12T08:03:00.000Z</time>
      </trkpt>
      <trkpt lat="45.68315" lon="4.50391">
        <ele>845.3</ele>
        <time>2015-07-12T08:03:04.000Z</time>
      </trkpt>
      <trkpt lat="45.68317" lon="4.50384">
        <ele>845.7</ele>
        <time>2015-07-12T08:03:05.000Z</time>
      </trkpt>
      <trkpt lat="45.68321" lon="4.50352">
        <ele>846.6</ele>
        <time>2015-07-12T08:03:09.000Z</time>
      </trkpt>
      <trkpt lat="45.68322" lon="4.50336">
        <ele>846.6</ele>
        <time>2015-07-12T08:03:11.000Z</time>
      </trkpt>
      <trkpt lat="45.68321" lon="4.503">
        <ele>847.1</ele>
        <time>2015-07-12T08:03:15.000Z</time>
      </trkpt>
      <trkpt lat="45.68319" lon="4.50268">
        <ele>848</ele>
        <time>2015-07-12T08:03:18.000Z</time>
      </trkpt>
      <trkpt lat="45.68319" lon="4.50258">
        <ele>847.9</ele>
        <time>2015-07-12T08:03:19.000Z</time>
      </trkpt>
      <trkpt lat="45.68318" lon="4.5023">
        <ele>848.3</ele>
        <time>2015-07-12T08:03:22.000Z</time>
      </trkpt>
      <trkpt lat="45.68318" lon="4.50212">
        <ele>848.2</ele>
        <time>2015-07-12T08:03:24.000Z</time>
      </trkpt>
      <trkpt lat="45.68316" lon="4.50176">
        <ele>848.1</ele>
        <time>2015-07-12T08:03:28.000Z</time>
      </trkpt>
      <trkpt lat="45.68315" lon="4.5015">
        <ele>846.4</ele>
        <time>2015-07-12T08:03:31.000Z</time>
      </trkpt>
      <trkpt lat="45.68312" lon="4.50139">
        <ele>846.1</ele>
        <time>2015-07-12T08:03:32.000Z</time>
      </trkpt>
      <trkpt lat="45.68307" lon="4.50109">
        <ele>842.3</ele>
        <time>2015-07-12T08:03:35.000Z</time>
      </trkpt>
      <trkpt lat="45.68304" lon="4.50084">
        <ele>840</ele>
        <time>2015-07-12T08:03:37.000Z</time>
      </trkpt>
      <trkpt lat="45.68299" lon="4.50057">
        <ele>841.2</ele>
        <time>2015-07-12T08:03:39.000Z</time>
      </trkpt>
      <trkpt lat="45.68294" lon="4.50031">
        <ele>841.5</ele>
        <time>2015-07-12T08:03:41.000Z</time>
      </trkpt>
      <trkpt lat="45.6829" lon="4.50017">
        <ele>841.9</ele>
        <time>2015-07-12T08:03:42.000Z</time>
      </trkpt>
      <trkpt lat="45.68277" lon="4.49985">
        <ele>841.1</ele>
        <time>2015-07-12T08:03:45.000Z</time>
      </trkpt>
      <trkpt lat="45.68273" lon="4.49975">
        <ele>839.9</ele>
        <time>2015-07-12T08:03:46.000Z</time>
      </trkpt>
      <trkpt lat="45.68262" lon="4.49944">
        <ele>835.8</ele>
        <time>2015-07-12T08:03:49.000Z</time>
      </trkpt>
      <trkpt lat="45.68251" lon="4.49916">
        <ele>832.6</ele>
        <time>2015-07-12T08:03:52.000Z</time>
      </trkpt>
      <trkpt lat="45.68245" lon="4.49897">
        <ele>829.6</ele>
        <time>2015-07-12T08:03:54.000Z</time>
      </trkpt>
      <trkpt lat="45.6824" lon="4.49867">
        <ele>823.6</ele>
        <time>2015-07-12T08:03:57.000Z</time>
      </trkpt>
      <trkpt lat="45.68234" lon="4.49837">
        <ele>819.6</ele>
        <time>2015-07-12T08:04:00.000Z</time>
      </trkpt>
      <trkpt lat="45.68232" lon="4.4982">
        <ele>817.4</ele>
        <time>2015-07-12T08:04:02.000Z</time>
      </trkpt>
      <trkpt lat="45.68229" lon="4.49789">
        <ele>813.5</ele>
        <time>2015-07-12T08:04:06.000Z</time>
      </trkpt>
      <trkpt lat="45.68227" lon="4.49783">
        <ele>813.1</ele>
        <time>2015-07-12T08:04:07.000Z</time>
      </trkpt>
      <trkpt lat="45.68223" lon="4.49765">
        <ele>812.5</ele>
        <time>2015-07-12T08:04:10.000Z</time>
      </trkpt>
      <trkpt lat="45.68217" lon="4.49738">
        <ele>812.1</ele>
        <time>2015-07-12T08:04:15.000Z</time>
      </trkpt>
      <trkpt lat="45.6822" lon="4.4971">
        <ele>808.9</ele>
        <time>2015-07-12T08:04:22.000Z</time>
      </trkpt>
      <trkpt lat="45.68219" lon="4.49699">
        <ele>808.6</ele>
        <time>2015-07-12T08:04:24.000Z</time>
      </trkpt>
      <trkpt lat="45.68214" lon="4.4967">
        <ele>808.9</ele>
        <time>2015-07-12T08:04:29.000Z</time>
      </trkpt>
      <trkpt lat="45.68212" lon="4.49644">
        <ele>807.8</ele>
        <time>2015-07-12T08:04:33.000Z</time>
      </trkpt>
      <trkpt lat="45.68209" lon="4.49616">
        <ele>807.2</ele>
        <time>2015-07-12T08:04:37.000Z</time>
      </trkpt>
      <trkpt lat="45.68205" lon="4.49589">
        <ele>806.9</ele>
        <time>2015-07-12T08:04:41.000Z</time>
      </trkpt>
      <trkpt lat="45.68201" lon="4.49562">
        <ele>806.6</ele>
        <time>2015-07-12T08:04:45.000Z</time>
      </trkpt>
      <trkpt lat="45.68198" lon="4.49536">
        <ele>806.4</ele>
        <time>2015-07-12T08:04:49.000Z</time>
      </trkpt>
      <trkpt lat="45.68197" lon="4.4953">
        <ele>806.4</ele>
        <time>2015-07-12T08:04:50.000Z</time>
      </trkpt>
      <trkpt lat="45.68193" lon="4.49504">
        <ele>805.4</ele>
        <time>2015-07-12T08:04:54.000Z</time>
      </trkpt>
      <trkpt lat="45.68191" lon="4.49477">
        <ele>804.7</ele>
        <time>2015-07-12T08:04:58.000Z</time>
      </trkpt>
      <trkpt lat="45.68188" lon="4.49451">
        <ele>804.7</ele>
        <time>2015-07-12T08:05:02.000Z</time>
      </trkpt>
      <trkpt lat="45.68186" lon="4.49433">
        <ele>804.5</ele>
        <time>2015-07-12T08:05:05.000Z</time>
      </trkpt>
      <trkpt lat="45.68183" lon="4.49402">
        <ele>803.7</ele>
        <time>2015-07-12T08:05:10.000Z</time>
      </trkpt>
      <trkpt lat="45.68182" lon="4.49396">
        <ele>803.6</ele>
        <time>2015-07-12T08:05:11.000Z</time>
      </trkpt>
      <trkpt lat="45.68179" lon="4.49366">
        <ele>803.2</ele>
        <time>2015-07-12T08:05:16.000Z</time>
      </trkpt>
      <trkpt lat="45.68179" lon="4.49348">
        <ele>803.1</ele>
        <time>2015-07-12T08:05:19.000Z</time>
      </trkpt>
      <trkpt lat="45.6818" lon="4.49322">
        <ele>802.8</ele>
        <time>2015-07-12T08:05:23.000Z</time>
      </trkpt>
      <trkpt lat="45.6818" lon="4.49296">
        <ele>802.7</ele>
        <time>2015-07-12T08:05:27.000Z</time>
      </trkpt>
      <trkpt lat="45.6818" lon="4.49275">
        <ele>803</ele>
        <time>2015-07-12T08:05:30.000Z</time>
      </trkpt>
      <trkpt lat="45.6818" lon="4.49248">
        <ele>802.5</ele>
        <time>2015-07-12T08:05:34.000Z</time>
      </trkpt>
      <trkpt lat="45.68181" lon="4.4922">
        <ele>802</ele>
        <time>2015-07-12T08:05:38.000Z</time>
      </trkpt>
      <trkpt lat="45.68181" lon="4.4919">
        <ele>801.9</ele>
        <time>2015-07-12T08:05:42.000Z</time>
      </trkpt>
      <trkpt lat="45.68181" lon="4.4916">
        <ele>801.5</ele>
        <time>2015-07-12T08:05:46.000Z</time>
      </trkpt>
      <trkpt lat="45.68181" lon="4.49129">
        <ele>801.4</ele>
        <time>2015-07-12T08:05:50.000Z</time>
      </trkpt>
      <trkpt lat="45.68181" lon="4.49099">
        <ele>801.3</ele>
        <time>2015-07-12T08:05:54.000Z</time>
      </trkpt>
      <trkpt lat="45.68181" lon="4.4907">
        <ele>801.6</ele>
        <time>2015-07-12T08:05:58.000Z</time>
      </trkpt>
      <trkpt lat="45.68182" lon="4.49042">
        <ele>801.5</ele>
        <time>2015-07-12T08:06:02.000Z</time>
      </trkpt>
      <trkpt lat="45.68182" lon="4.49016">
        <ele>801.1</ele>
        <time>2015-07-12T08:06:06.000Z</time>
      </trkpt>
      <trkpt lat="45.68182" lon="4.4899">
        <ele>800.7</ele>
        <time>2015-07-12T08:06:10.000Z</time>
      </trkpt>
      <trkpt lat="45.68183" lon="4.48964">
        <ele>800.4</ele>
        <time>2015-07-12T08:06:14.000Z</time>
      </trkpt>
      <trkpt lat="45.68184" lon="4.48957">
        <ele>800.4</ele>
        <time>2015-07-12T08:06:15.000Z</time>
      </trkpt>
      <trkpt lat="45.68193" lon="4.4894">
        <ele>801.8</ele>
        <time>2015-07-12T08:06:19.000Z</time>
      </trkpt>
      <trkpt lat="45.68196" lon="4.48934">
        <ele>802.3</ele>
        <time>2015-07-12T08:06:22.000Z</time>
      </trkpt>
      <trkpt lat="45.68214" lon="4.48934">
        <ele>805.3</ele>
        <time>2015-07-12T08:06:31.000Z</time>
      </trkpt>
      <trkpt lat="45.68234" lon="4.48933">
        <ele>808.3</ele>
        <time>2015-07-12T08:06:40.000Z</time>
      </trkpt>
      <trkpt lat="45.68252" lon="4.48932">
        <ele>810.8</ele>
        <time>2015-07-12T08:06:50.000Z</time>
      </trkpt>
      <trkpt lat="45.68272" lon="4.48931">
        <ele>813.3</ele>
        <time>2015-07-12T08:07:01.000Z</time>
      </trkpt>
      <trkpt lat="45.68281" lon="4.4893">
        <ele>813.9</ele>
        <time>2015-07-12T08:07:06.000Z</time>
      </trkpt>
      <trkpt lat="45.68292" lon="4.48908">
        <ele>813.5</ele>
        <time>2015-07-12T08:07:17.000Z</time>
      </trkpt>
      <trkpt lat="45.68292" lon="4.48886">
        <ele>813.4</ele>
        <time>2015-07-12T08:07:25.000Z</time>
      </trkpt>
      <trkpt lat="45.68297" lon="4.48858">
        <ele>812.3</ele>
        <time>2015-07-12T08:07:31.000Z</time>
      </trkpt>
      <trkpt lat="45.683" lon="4.48832">
        <ele>811.5</ele>
        <time>2015-07-12T08:07:35.000Z</time>
      </trkpt>
      <trkpt lat="45.68301" lon="4.48813">
        <ele>810.8</ele>
        <time>2015-07-12T08:07:38.000Z</time>
      </trkpt>
      <trkpt lat="45.68301" lon="4.48787">
        <ele>810.7</ele>
        <time>2015-07-12T08:07:43.000Z</time>
      </trkpt>
      <trkpt lat="45.68302" lon="4.48781">
        <ele>810.7</ele>
        <time>2015-07-12T08:07:44.000Z</time>
      </trkpt>
      <trkpt lat="45.683" lon="4.48756">
        <ele>811.3</ele>
        <time>2015-07-12T08:07:49.000Z</time>
      </trkpt>
      <trkpt lat="45.68295" lon="4.48734">
        <ele>813.1</ele>
        <time>2015-07-12T08:07:58.000Z</time>
      </trkpt>
      <trkpt lat="45.6829" lon="4.48709">
        <ele>815.8</ele>
        <time>2015-07-12T08:08:24.000Z</time>
      </trkpt>
      <trkpt lat="45.68282" lon="4.48694">
        <ele>818.8</ele>
        <time>2015-07-12T08:08:30.000Z</time>
      </trkpt>
      <trkpt lat="45.68272" lon="4.48678">
        <ele>821.1</ele>
        <time>2015-07-12T08:08:37.000Z</time>
      </trkpt>
      <trkpt lat="45.68259" lon="4.48658">
        <ele>823.3</ele>
        <time>2015-07-12T08:08:47.000Z</time>
      </trkpt>
      <trkpt lat="45.68249" lon="4.48638">
        <ele>825</ele>
        <time>2015-07-12T08:08:57.000Z</time>
      </trkpt>
      <trkpt lat="45.68244" lon="4.48614">
        <ele>825.9</ele>
        <time>2015-07-12T08:09:08.000Z</time>
      </trkpt>
      <trkpt lat="45.6824" lon="4.48589">
        <ele>827.4</ele>
        <time>2015-07-12T08:09:19.000Z</time>
      </trkpt>
      <trkpt lat="45.68239" lon="4.48585">
        <ele>827.7</ele>
        <time>2015-07-12T08:09:21.000Z</time>
      </trkpt>
      <trkpt lat="45.68228" lon="4.48561">
        <ele>829.4</ele>
        <time>2015-07-12T08:09:30.000Z</time>
      </trkpt>
      <trkpt lat="45.68222" lon="4.48548">
        <ele>830.3</ele>
        <time>2015-07-12T08:09:35.000Z</time>
      </trkpt>
      <trkpt lat="45.68218" lon="4.48533">
        <ele>830.7</ele>
        <time>2015-07-12T08:09:40.000Z</time>
      </trkpt>
      <trkpt lat="45.68221" lon="4.48503">
        <ele>829.2</ele>
        <time>2015-07-12T08:09:46.000Z</time>
      </trkpt>
      <trkpt lat="45.68217" lon="4.48489">
        <ele>827.9</ele>
        <time>2015-07-12T08:09:48.000Z</time>
      </trkpt>
      <trkpt lat="45.68208" lon="4.48465">
        <ele>825.6</ele>
        <time>2015-07-12T08:09:51.000Z</time>
      </trkpt>
      <trkpt lat="45.68203" lon="4.48445">
        <ele>823.5</ele>
        <time>2015-07-12T08:09:53.000Z</time>
      </trkpt>
      <trkpt lat="45.68196" lon="4.48428">
        <ele>822.1</ele>
        <time>2015-07-12T08:09:55.000Z</time>
      </trkpt>
      <trkpt lat="45.68179" lon="4.4841">
        <ele>819.6</ele>
        <time>2015-07-12T08:09:58.000Z</time>
      </trkpt>
      <trkpt lat="45.68169" lon="4.48391">
        <ele>817.2</ele>
        <time>2015-07-12T08:10:01.000Z</time>
      </trkpt>
      <trkpt lat="45.68162" lon="4.48378">
        <ele>814.8</ele>
        <time>2015-07-12T08:10:04.000Z</time>
      </trkpt>
      <trkpt lat="45.68169" lon="4.48355">
        <ele>812.2</ele>
        <time>2015-07-12T08:10:09.000Z</time>
      </trkpt>
      <trkpt lat="45.68179" lon="4.48338">
        <ele>810.1</ele>
        <time>2015-07-12T08:10:12.000Z</time>
      </trkpt>
      <trkpt lat="45.68186" lon="4.48322">
        <ele>808.6</ele>
        <time>2015-07-12T08:10:14.000Z</time>
      </trkpt>
      <trkpt lat="45.68195" lon="4.48291">
        <ele>805.9</ele>
        <time>2015-07-12T08:10:17.000Z</time>
      </trkpt>
      <trkpt lat="45.68204" lon="4.48257">
        <ele>803.5</ele>
        <time>2015-07-12T08:10:20.000Z</time>
      </trkpt>
      <trkpt lat="45.68207" lon="4.48247">
        <ele>802.8</ele>
        <time>2015-07-12T08:10:21.000Z</time>
      </trkpt>
      <trkpt lat="45.68218" lon="4.4822">
        <ele>801</ele>
        <time>2015-07-12T08:10:24.000Z</time>
      </trkpt>
      <trkpt lat="45.68221" lon="4.48211">
        <ele>800.7</ele>
        <time>2015-07-12T08:10:25.000Z</time>
      </trkpt>
      <trkpt lat="45.68223" lon="4.48202">
        <ele>800.4</ele>
        <time>2015-07-12T08:10:26.000Z</time>
      </trkpt>
      <trkpt lat="45.68231" lon="4.4817">
        <ele>799.1</ele>
        <time>2015-07-12T08:10:30.000Z</time>
      </trkpt>
      <trkpt lat="45.68235" lon="4.48145">
        <ele>798.2</ele>
        <time>2015-07-12T08:10:33.000Z</time>
      </trkpt>
      <trkpt lat="45.68238" lon="4.48128">
        <ele>797.5</ele>
        <time>2015-07-12T08:10:35.000Z</time>
      </trkpt>
      <trkpt lat="45.68241" lon="4.481">
        <ele>795.9</ele>
        <time>2015-07-12T08:10:38.000Z</time>
      </trkpt>
      <trkpt lat="45.68246" lon="4.4807">
        <ele>793</ele>
        <time>2015-07-12T08:10:41.000Z</time>
      </trkpt>
      <trkpt lat="45.68251" lon="4.48037">
        <ele>790.7</ele>
        <time>2015-07-12T08:10:44.000Z</time>
      </trkpt>
      <trkpt lat="45.68252" lon="4.48025">
        <ele>790.3</ele>
        <time>2015-07-12T08:10:45.000Z</time>
      </trkpt>
      <trkpt lat="45.68256" lon="4.4799">
        <ele>789.5</ele>
        <time>2015-07-12T08:10:48.000Z</time>
      </trkpt>
      <trkpt lat="45.68258" lon="4.47956">
        <ele>788.6</ele>
        <time>2015-07-12T08:10:51.000Z</time>
      </trkpt>
      <trkpt lat="45.68258" lon="4.47926">
        <ele>788.5</ele>
        <time>2015-07-12T08:10:54.000Z</time>
      </trkpt>
      <trkpt lat="45.68257" lon="4.47899">
        <ele>788.5</ele>
        <time>2015-07-12T08:10:57.000Z</time>
      </trkpt>
      <trkpt lat="45.68258" lon="4.4789">
        <ele>788.4</ele>
        <time>2015-07-12T08:10:58.000Z</time>
      </trkpt>
      <trkpt lat="45.68259" lon="4.47862">
        <ele>788.4</ele>
        <time>2015-07-12T08:11:02.000Z</time>
      </trkpt>
      <trkpt lat="45.68276" lon="4.4786">
        <ele>787.1</ele>
        <time>2015-07-12T08:11:06.000Z</time>
      </trkpt>
      <trkpt lat="45.68287" lon="4.47868">
        <ele>786.3</ele>
        <time>2015-07-12T08:11:08.000Z</time>
      </trkpt>
      <trkpt lat="45.68305" lon="4.47884">
        <ele>784.3</ele>
        <time>2015-07-12T08:11:12.000Z</time>
      </trkpt>
      <trkpt lat="45.68308" lon="4.47886">
        <ele>784</ele>
        <time>2015-07-12T08:11:14.000Z</time>
      </trkpt>
      <trkpt lat="45.68295" lon="4.47873">
        <ele>785.5</ele>
        <time>2015-07-12T08:11:23.000Z</time>
      </trkpt>
      <trkpt lat="45.68297" lon="4.47869">
        <ele>785.4</ele>
        <time>2015-07-12T08:11:27.000Z</time>
      </trkpt>
      <trkpt lat="45.68305" lon="4.47843">
        <ele>785.7</ele>
        <time>2015-07-12T08:11:38.000Z</time>
      </trkpt>
      <trkpt lat="45.68305" lon="4.4783">
        <ele>786.1</ele>
        <time>2015-07-12T08:11:41.000Z</time>
      </trkpt>
      <trkpt lat="45.68292" lon="4.47825">
        <ele>786.6</ele>
        <time>2015-07-12T08:11:45.000Z</time>
      </trkpt>
      <trkpt lat="45.68286" lon="4.4782">
        <ele>786.8</ele>
        <time>2015-07-12T08:11:47.000Z</time>
      </trkpt>
      <trkpt lat="45.68276" lon="4.478">
        <ele>787</ele>
        <time>2015-07-12T08:11:54.000Z</time>
      </trkpt>
      <trkpt lat="45.68275" lon="4.47793">
        <ele>787</ele>
        <time>2015-07-12T08:12:16.000Z</time>
      </trkpt>
      <trkpt lat="45.6827" lon="4.47797">
        <ele>787.2</ele>
        <time>2015-07-12T08:14:07.000Z</time>
      </trkpt>
      <trkpt lat="45.68272" lon="4.47796">
        <ele>787.1</ele>
        <time>2015-07-12T08:14:08.000Z</time>
      </trkpt>
      <trkpt lat="45.6828" lon="4.47785">
        <ele>787</ele>
        <time>2015-07-12T08:15:39.000Z</time>
      </trkpt>
      <trkpt lat="45.6828" lon="4.47772">
        <ele>787</ele>
        <time>2015-07-12T08:15:45.000Z</time>
      </trkpt>
      <trkpt lat="45.68271" lon="4.47763">
        <ele>787</ele>
        <time>2015-07-12T08:15:51.000Z</time>
      </trkpt>
      <trkpt lat="45.6827" lon="4.47762">
        <ele>787</ele>
        <time>2015-07-12T08:15:52.000Z</time>
      </trkpt>
      <trkpt lat="45.6827" lon="4.47751">
        <ele>787</ele>
        <time>2015-07-12T08:15:57.000Z</time>
      </trkpt>
      <trkpt lat="45.68269" lon="4.47722">
        <ele>787</ele>
        <time>2015-07-12T08:16:05.000Z</time>
      </trkpt>
      <trkpt lat="45.68271" lon="4.47703">
        <ele>786.8</ele>
        <time>2015-07-12T08:16:10.000Z</time>
      </trkpt>
      <trkpt lat="45.68258" lon="4.47682">
        <ele>786</ele>
        <time>2015-07-12T08:16:17.000Z</time>
      </trkpt>
      <trkpt lat="45.68254" lon="4.47673">
        <ele>785.9</ele>
        <time>2015-07-12T08:16:19.000Z</time>
      </trkpt>
      <trkpt lat="45.68243" lon="4.47645">
        <ele>784.7</ele>
        <time>2015-07-12T08:16:24.000Z</time>
      </trkpt>
      <trkpt lat="45.68232" lon="4.47615">
        <ele>782.2</ele>
        <time>2015-07-12T08:16:28.000Z</time>
      </trkpt>
      <trkpt lat="45.68222" lon="4.47588">
        <ele>781.1</ele>
        <time>2015-07-12T08:16:31.000Z</time>
      </trkpt>
      <trkpt lat="45.6821" lon="4.47561">
        <ele>779.7</ele>
        <time>2015-07-12T08:16:34.000Z</time>
      </trkpt>
      <trkpt lat="45.68197" lon="4.47538">
        <ele>779.9</ele>
        <time>2015-07-12T08:16:37.000Z</time>
      </trkpt>
      <trkpt lat="45.68184" lon="4.47518">
        <ele>779.4</ele>
        <time>2015-07-12T08:16:40.000Z</time>
      </trkpt>
      <trkpt lat="45.68169" lon="4.47502">
        <ele>779</ele>
        <time>2015-07-12T08:16:43.000Z</time>
      </trkpt>
      <trkpt lat="45.68154" lon="4.47488">
        <ele>778.5</ele>
        <time>2015-07-12T08:16:46.000Z</time>
      </trkpt>
      <trkpt lat="45.68137" lon="4.47473">
        <ele>777.9</ele>
        <time>2015-07-12T08:16:49.000Z</time>
      </trkpt>
      <trkpt lat="45.6812" lon="4.47459">
        <ele>776.7</ele>
        <time>2015-07-12T08:16:52.000Z</time>
      </trkpt>
      <trkpt lat="45.68104" lon="4.47446">
        <ele>776.3</ele>
        <time>2015-07-12T08:16:55.000Z</time>
      </trkpt>
      <trkpt lat="45.68084" lon="4.47431">
        <ele>776.5</ele>
        <time>2015-07-12T08:16:59.000Z</time>
      </trkpt>
      <trkpt lat="45.6808" lon="4.47427">
        <ele>776.6</ele>
        <time>2015-07-12T08:17:00.000Z</time>
      </trkpt>
      <trkpt lat="45.6807" lon="4.47403">
        <ele>776.9</ele>
        <time>2015-07-12T08:17:06.000Z</time>
      </trkpt>
      <trkpt lat="45.6807" lon="4.47392">
        <ele>776.9</ele>
        <time>2015-07-12T08:17:08.000Z</time>
      </trkpt>
      <trkpt lat="45.68072" lon="4.47364">
        <ele>776.1</ele>
        <time>2015-07-12T08:17:13.000Z</time>
      </trkpt>
      <trkpt lat="45.68072" lon="4.47338">
        <ele>775.8</ele>
        <time>2015-07-12T08:17:18.000Z</time>
      </trkpt>
      <trkpt lat="45.68074" lon="4.47311">
        <ele>775.9</ele>
        <time>2015-07-12T08:17:23.000Z</time>
      </trkpt>
      <trkpt lat="45.68075" lon="4.47284">
        <ele>775.5</ele>
        <time>2015-07-12T08:17:29.000Z</time>
      </trkpt>
      <trkpt lat="45.68074" lon="4.4727">
        <ele>775.9</ele>
        <time>2015-07-12T08:17:32.000Z</time>
      </trkpt>
      <trkpt lat="45.68076" lon="4.47243">
        <ele>776.1</ele>
        <time>2015-07-12T08:17:37.000Z</time>
      </trkpt>
      <trkpt lat="45.68076" lon="4.47214">
        <ele>775.7</ele>
        <time>2015-07-12T08:17:43.000Z</time>
      </trkpt>
      <trkpt lat="45.68075" lon="4.47184">
        <ele>775.6</ele>
        <time>2015-07-12T08:17:47.000Z</time>
      </trkpt>
      <trkpt lat="45.68073" lon="4.47154">
        <ele>776</ele>
        <time>2015-07-12T08:17:51.000Z</time>
      </trkpt>
      <trkpt lat="45.68072" lon="4.47124">
        <ele>775.4</ele>
        <time>2015-07-12T08:17:55.000Z</time>
      </trkpt>
      <trkpt lat="45.68071" lon="4.47116">
        <ele>775.7</ele>
        <time>2015-07-12T08:17:56.000Z</time>
      </trkpt>
      <trkpt lat="45.68066" lon="4.47088">
        <ele>775.7</ele>
        <time>2015-07-12T08:18:00.000Z</time>
      </trkpt>
      <trkpt lat="45.68065" lon="4.47081">
        <ele>775.9</ele>
        <time>2015-07-12T08:18:01.000Z</time>
      </trkpt>
      <trkpt lat="45.68057" lon="4.47058">
        <ele>776.6</ele>
        <time>2015-07-12T08:18:05.000Z</time>
      </trkpt>
      <trkpt lat="45.68048" lon="4.47035">
        <ele>776.4</ele>
        <time>2015-07-12T08:18:09.000Z</time>
      </trkpt>
      <trkpt lat="45.68039" lon="4.47013">
        <ele>776</ele>
        <time>2015-07-12T08:18:13.000Z</time>
      </trkpt>
      <trkpt lat="45.68028" lon="4.46988">
        <ele>776.2</ele>
        <time>2015-07-12T08:18:18.000Z</time>
      </trkpt>
      <trkpt lat="45.68022" lon="4.4697">
        <ele>775.6</ele>
        <time>2015-07-12T08:18:21.000Z</time>
      </trkpt>
      <trkpt lat="45.6801" lon="4.46946">
        <ele>777</ele>
        <time>2015-07-12T08:18:26.000Z</time>
      </trkpt>
      <trkpt lat="45.68009" lon="4.46941">
        <ele>777.3</ele>
        <time>2015-07-12T08:18:27.000Z</time>
      </trkpt>
      <trkpt lat="45.68009" lon="4.46919">
        <ele>776.3</ele>
        <time>2015-07-12T08:18:31.000Z</time>
      </trkpt>
      <trkpt lat="45.6801" lon="4.46911">
        <ele>775.5</ele>
        <time>2015-07-12T08:18:32.000Z</time>
      </trkpt>
      <trkpt lat="45.68016" lon="4.46874">
        <ele>770.2</ele>
        <time>2015-07-12T08:18:35.000Z</time>
      </trkpt>
      <trkpt lat="45.68028" lon="4.46846">
        <ele>764.7</ele>
        <time>2015-07-12T08:18:37.000Z</time>
      </trkpt>
      <trkpt lat="45.68036" lon="4.46822">
        <ele>761.5</ele>
        <time>2015-07-12T08:18:39.000Z</time>
      </trkpt>
      <trkpt lat="45.68043" lon="4.46802">
        <ele>760.2</ele>
        <time>2015-07-12T08:18:41.000Z</time>
      </trkpt>
      <trkpt lat="45.6805" lon="4.46775">
        <ele>761.9</ele>
        <time>2015-07-12T08:18:44.000Z</time>
      </trkpt>
      <trkpt lat="45.68051" lon="4.46767">
        <ele>762.6</ele>
        <time>2015-07-12T08:18:45.000Z</time>
      </trkpt>
      <trkpt lat="45.68054" lon="4.46749">
        <ele>764.5</ele>
        <time>2015-07-12T08:18:47.000Z</time>
      </trkpt>
      <trkpt lat="45.68053" lon="4.46715">
        <ele>764.8</ele>
        <time>2015-07-12T08:18:50.000Z</time>
      </trkpt>
      <trkpt lat="45.68049" lon="4.46694">
        <ele>763.7</ele>
        <time>2015-07-12T08:18:52.000Z</time>
      </trkpt>
      <trkpt lat="45.68046" lon="4.46659">
        <ele>759.7</ele>
        <time>2015-07-12T08:18:55.000Z</time>
      </trkpt>
      <trkpt lat="45.68046" lon="4.46646">
        <ele>758.2</ele>
        <time>2015-07-12T08:18:56.000Z</time>
      </trkpt>
      <trkpt lat="45.68046" lon="4.46615">
        <ele>754.7</ele>
        <time>2015-07-12T08:18:59.000Z</time>
      </trkpt>
      <trkpt lat="45.68042" lon="4.46579">
        <ele>751.9</ele>
        <time>2015-07-12T08:19:02.000Z</time>
      </trkpt>
      <trkpt lat="45.68035" lon="4.46543">
        <ele>750.2</ele>
        <time>2015-07-12T08:19:05.000Z</time>
      </trkpt>
      <trkpt lat="45.68025" lon="4.4651">
        <ele>748.7</ele>
        <time>2015-07-12T08:19:08.000Z</time>
      </trkpt>
      <trkpt lat="45.68012" lon="4.46483">
        <ele>748.8</ele>
        <time>2015-07-12T08:19:11.000Z</time>
      </trkpt>
      <trkpt lat="45.68004" lon="4.4646">
        <ele>748</ele>
        <time>2015-07-12T08:19:16.000Z</time>
      </trkpt>
      <trkpt lat="45.67998" lon="4.46437">
        <ele>746.3</ele>
        <time>2015-07-12T08:19:20.000Z</time>
      </trkpt>
      <trkpt lat="45.67994" lon="4.46411">
        <ele>743.7</ele>
        <time>2015-07-12T08:19:23.000Z</time>
      </trkpt>
      <trkpt lat="45.67989" lon="4.46382">
        <ele>741.5</ele>
        <time>2015-07-12T08:19:26.000Z</time>
      </trkpt>
      <trkpt lat="45.67983" lon="4.46354">
        <ele>739.6</ele>
        <time>2015-07-12T08:19:29.000Z</time>
      </trkpt>
      <trkpt lat="45.67978" lon="4.46324">
        <ele>736.9</ele>
        <time>2015-07-12T08:19:32.000Z</time>
      </trkpt>
      <trkpt lat="45.67975" lon="4.46295">
        <ele>733.5</ele>
        <time>2015-07-12T08:19:35.000Z</time>
      </trkpt>
      <trkpt lat="45.67973" lon="4.46267">
        <ele>730.3</ele>
        <time>2015-07-12T08:19:38.000Z</time>
      </trkpt>
      <trkpt lat="45.67972" lon="4.4624">
        <ele>726.7</ele>
        <time>2015-07-12T08:19:41.000Z</time>
      </trkpt>
      <trkpt lat="45.67971" lon="4.46226">
        <ele>724.7</ele>
        <time>2015-07-12T08:19:43.000Z</time>
      </trkpt>
      <trkpt lat="45.67958" lon="4.46211">
        <ele>723.5</ele>
        <time>2015-07-12T08:19:48.000Z</time>
      </trkpt>
      <trkpt lat="45.6795" lon="4.4621">
        <ele>724</ele>
        <time>2015-07-12T08:19:50.000Z</time>
      </trkpt>
      <trkpt lat="45.67929" lon="4.46208">
        <ele>724.8</ele>
        <time>2015-07-12T08:19:55.000Z</time>
      </trkpt>
      <trkpt lat="45.6791" lon="4.46207">
        <ele>725.6</ele>
        <time>2015-07-12T08:20:00.000Z</time>
      </trkpt>
      <trkpt lat="45.67892" lon="4.46205">
        <ele>726.1</ele>
        <time>2015-07-12T08:20:05.000Z</time>
      </trkpt>
      <trkpt lat="45.6787" lon="4.46209">
        <ele>727.1</ele>
        <time>2015-07-12T08:20:11.000Z</time>
      </trkpt>
      <trkpt lat="45.67849" lon="4.46213">
        <ele>727.6</ele>
        <time>2015-07-12T08:20:17.000Z</time>
      </trkpt>
      <trkpt lat="45.67831" lon="4.46215">
        <ele>727.8</ele>
        <time>2015-07-12T08:20:22.000Z</time>
      </trkpt>
      <trkpt lat="45.67812" lon="4.46215">
        <ele>728.4</ele>
        <time>2015-07-12T08:20:27.000Z</time>
      </trkpt>
      <trkpt lat="45.67793" lon="4.46212">
        <ele>728.5</ele>
        <time>2015-07-12T08:20:32.000Z</time>
      </trkpt>
      <trkpt lat="45.67774" lon="4.4621">
        <ele>729</ele>
        <time>2015-07-12T08:20:37.000Z</time>
      </trkpt>
      <trkpt lat="45.67755" lon="4.46209">
        <ele>730</ele>
        <time>2015-07-12T08:20:42.000Z</time>
      </trkpt>
      <trkpt lat="45.67735" lon="4.46209">
        <ele>731.5</ele>
        <time>2015-07-12T08:20:48.000Z</time>
      </trkpt>
      <trkpt lat="45.67716" lon="4.46206">
        <ele>732.8</ele>
        <time>2015-07-12T08:20:55.000Z</time>
      </trkpt>
      <trkpt lat="45.67697" lon="4.46199">
        <ele>734.1</ele>
        <time>2015-07-12T08:21:02.000Z</time>
      </trkpt>
      <trkpt lat="45.67679" lon="4.46187">
        <ele>734.8</ele>
        <time>2015-07-12T08:21:09.000Z</time>
      </trkpt>
      <trkpt lat="45.6766" lon="4.46177">
        <ele>736.1</ele>
        <time>2015-07-12T08:21:16.000Z</time>
      </trkpt>
      <trkpt lat="45.67641" lon="4.46167">
        <ele>737.7</ele>
        <time>2015-07-12T08:21:24.000Z</time>
      </trkpt>
      <trkpt lat="45.67623" lon="4.46154">
        <ele>739.1</ele>
        <time>2015-07-12T08:21:32.000Z</time>
      </trkpt>
      <trkpt lat="45.67611" lon="4.46133">
        <ele>739.7</ele>
        <time>2015-07-12T08:21:39.000Z</time>
      </trkpt>
      <trkpt lat="45.67602" lon="4.46107">
        <ele>740.1</ele>
        <time>2015-07-12T08:21:46.000Z</time>
      </trkpt>
      <trkpt lat="45.67597" lon="4.46079">
        <ele>740.5</ele>
        <time>2015-07-12T08:21:53.000Z</time>
      </trkpt>
      <trkpt lat="45.67594" lon="4.46052">
        <ele>741.1</ele>
        <time>2015-07-12T08:22:00.000Z</time>
      </trkpt>
      <trkpt lat="45.67593" lon="4.46024">
        <ele>741.8</ele>
        <time>2015-07-12T08:22:08.000Z</time>
      </trkpt>
      <trkpt lat="45.67593" lon="4.46022">
        <ele>742</ele>
        <time>2015-07-12T08:22:09.000Z</time>
      </trkpt>
      <trkpt lat="45.67586" lon="4.46027">
        <ele>744.2</ele>
        <time>2015-07-12T08:22:14.000Z</time>
      </trkpt>
      <trkpt lat="45.67574" lon="4.46049">
        <ele>747.4</ele>
        <time>2015-07-12T08:22:24.000Z</time>
      </trkpt>
      <trkpt lat="45.67564" lon="4.46071">
        <ele>750.6</ele>
        <time>2015-07-12T08:22:34.000Z</time>
      </trkpt>
      <trkpt lat="45.67558" lon="4.46095">
        <ele>752.4</ele>
        <time>2015-07-12T08:22:43.000Z</time>
      </trkpt>
      <trkpt lat="45.67546" lon="4.46118">
        <ele>756.5</ele>
        <time>2015-07-12T08:22:54.000Z</time>
      </trkpt>
      <trkpt lat="45.6754" lon="4.46139">
        <ele>759.1</ele>
        <time>2015-07-12T08:23:05.000Z</time>
      </trkpt>
      <trkpt lat="45.67536" lon="4.46165">
        <ele>761.3</ele>
        <time>2015-07-12T08:23:19.000Z</time>
      </trkpt>
      <trkpt lat="45.67536" lon="4.46166">
        <ele>761.4</ele>
        <time>2015-07-12T08:23:20.000Z</time>
      </trkpt>
      <trkpt lat="45.67534" lon="4.46172">
        <ele>762.1</ele>
        <time>2015-07-12T08:23:24.000Z</time>
      </trkpt>
      <trkpt lat="45.67532" lon="4.46183">
        <ele>763.3</ele>
        <time>2015-07-12T08:23:29.000Z</time>
      </trkpt>
      <trkpt lat="45.6753" lon="4.4621">
        <ele>765.4</ele>
        <time>2015-07-12T08:23:42.000Z</time>
      </trkpt>
      <trkpt lat="45.6753" lon="4.46211">
        <ele>765.7</ele>
        <time>2015-07-12T08:23:43.000Z</time>
      </trkpt>
      <trkpt lat="45.67524" lon="4.46215">
        <ele>767.4</ele>
        <time>2015-07-12T08:23:47.000Z</time>
      </trkpt>
      <trkpt lat="45.67519" lon="4.46219">
        <ele>768.9</ele>
        <time>2015-07-12T08:23:51.000Z</time>
      </trkpt>
      <trkpt lat="45.67514" lon="4.46227">
        <ele>770.8</ele>
        <time>2015-07-12T08:23:57.000Z</time>
      </trkpt>
      <trkpt lat="45.67506" lon="4.46235">
        <ele>773</ele>
        <time>2015-07-12T08:24:04.000Z</time>
      </trkpt>
      <trkpt lat="45.67505" lon="4.46254">
        <ele>774.1</ele>
        <time>2015-07-12T08:24:13.000Z</time>
      </trkpt>
      <trkpt lat="45.67515" lon="4.46276">
        <ele>773.2</ele>
        <time>2015-07-12T08:24:18.000Z</time>
      </trkpt>
      <trkpt lat="45.67527" lon="4.46302">
        <ele>772.1</ele>
        <time>2015-07-12T08:24:23.000Z</time>
      </trkpt>
      <trkpt lat="45.6754" lon="4.46324">
        <ele>773.8</ele>
        <time>2015-07-12T08:24:29.000Z</time>
      </trkpt>
      <trkpt lat="45.67553" lon="4.46341">
        <ele>775.3</ele>
        <time>2015-07-12T08:24:37.000Z</time>
      </trkpt>
      <trkpt lat="45.6756" lon="4.46356">
        <ele>777.1</ele>
        <time>2015-07-12T08:24:46.000Z</time>
      </trkpt>
      <trkpt lat="45.67564" lon="4.46369">
        <ele>778.8</ele>
        <time>2015-07-12T08:24:53.000Z</time>
      </trkpt>
      <trkpt lat="45.6756" lon="4.46395">
        <ele>781.8</ele>
        <time>2015-07-12T08:25:06.000Z</time>
      </trkpt>
      <trkpt lat="45.67551" lon="4.46417">
        <ele>783.5</ele>
        <time>2015-07-12T08:25:16.000Z</time>
      </trkpt>
      <trkpt lat="45.67541" lon="4.46441">
        <ele>783.2</ele>
        <time>2015-07-12T08:25:25.000Z</time>
      </trkpt>
      <trkpt lat="45.67533" lon="4.46464">
        <ele>782.3</ele>
        <time>2015-07-12T08:25:31.000Z</time>
      </trkpt>
      <trkpt lat="45.67527" lon="4.4649">
        <ele>780.3</ele>
        <time>2015-07-12T08:25:35.000Z</time>
      </trkpt>
      <trkpt lat="45.67521" lon="4.46514">
        <ele>777.8</ele>
        <time>2015-07-12T08:25:39.000Z</time>
      </trkpt>
      <trkpt lat="45.67507" lon="4.46507">
        <ele>774.7</ele>
        <time>2015-07-12T08:25:45.000Z</time>
      </trkpt>
      <trkpt lat="45.67497" lon="4.46483">
        <ele>774.7</ele>
        <time>2015-07-12T08:25:51.000Z</time>
      </trkpt>
      <trkpt lat="45.67493" lon="4.46476">
        <ele>774.6</ele>
        <time>2015-07-12T08:25:53.000Z</time>
      </trkpt>
      <trkpt lat="45.67482" lon="4.46458">
        <ele>773.7</ele>
        <time>2015-07-12T08:25:58.000Z</time>
      </trkpt>
      <trkpt lat="45.67481" lon="4.46476">
        <ele>770.9</ele>
        <time>2015-07-12T08:26:04.000Z</time>
      </trkpt>
      <trkpt lat="45.67486" lon="4.46506">
        <ele>768.3</ele>
        <time>2015-07-12T08:26:09.000Z</time>
      </trkpt>
      <trkpt lat="45.67491" lon="4.46535">
        <ele>766.2</ele>
        <time>2015-07-12T08:26:14.000Z</time>
      </trkpt>
      <trkpt lat="45.67496" lon="4.4656">
        <ele>764.3</ele>
        <time>2015-07-12T08:26:18.000Z</time>
      </trkpt>
      <trkpt lat="45.67498" lon="4.46591">
        <ele>761</ele>
        <time>2015-07-12T08:26:24.000Z</time>
      </trkpt>
      <trkpt lat="45.675" lon="4.46623">
        <ele>758.6</ele>
        <time>2015-07-12T08:26:28.000Z</time>
      </trkpt>
      <trkpt lat="45.675" lon="4.46645">
        <ele>756.2</ele>
        <time>2015-07-12T08:26:30.000Z</time>
      </trkpt>
      <trkpt lat="45.6749" lon="4.46679">
        <ele>750.7</ele>
        <time>2015-07-12T08:26:33.000Z</time>
      </trkpt>
      <trkpt lat="45.67479" lon="4.46701">
        <ele>747.1</ele>
        <time>2015-07-12T08:26:35.000Z</time>
      </trkpt>
      <trkpt lat="45.67467" lon="4.46723">
        <ele>744.2</ele>
        <time>2015-07-12T08:26:37.000Z</time>
      </trkpt>
      <trkpt lat="45.6746" lon="4.46749">
        <ele>742.3</ele>
        <time>2015-07-12T08:26:39.000Z</time>
      </trkpt>
      <trkpt lat="45.67458" lon="4.46777">
        <ele>741</ele>
        <time>2015-07-12T08:26:41.000Z</time>
      </trkpt>
      <trkpt lat="45.67457" lon="4.46791">
        <ele>740.6</ele>
        <time>2015-07-12T08:26:42.000Z</time>
      </trkpt>
      <trkpt lat="45.67455" lon="4.46818">
        <ele>739.7</ele>
        <time>2015-07-12T08:26:44.000Z</time>
      </trkpt>
      <trkpt lat="45.67453" lon="4.46844">
        <ele>738.9</ele>
        <time>2015-07-12T08:26:46.000Z</time>
      </trkpt>
      <trkpt lat="45.6745" lon="4.46881">
        <ele>739</ele>
        <time>2015-07-12T08:26:49.000Z</time>
      </trkpt>
      <trkpt lat="45.67447" lon="4.46914">
        <ele>739.2</ele>
        <time>2015-07-12T08:26:52.000Z</time>
      </trkpt>
      <trkpt lat="45.67445" lon="4.46923">
        <ele>739.3</ele>
        <time>2015-07-12T08:26:53.000Z</time>
      </trkpt>
      <trkpt lat="45.67433" lon="4.46935">
        <ele>738.8</ele>
        <time>2015-07-12T08:26:58.000Z</time>
      </trkpt>
      <trkpt lat="45.67425" lon="4.4692">
        <ele>737.7</ele>
        <time>2015-07-12T08:27:01.000Z</time>
      </trkpt>
      <trkpt lat="45.67413" lon="4.46893">
        <ele>735.6</ele>
        <time>2015-07-12T08:27:05.000Z</time>
      </trkpt>
      <trkpt lat="45.6741" lon="4.46884">
        <ele>734.7</ele>
        <time>2015-07-12T08:27:06.000Z</time>
      </trkpt>
      <trkpt lat="45.67401" lon="4.46854">
        <ele>732.9</ele>
        <time>2015-07-12T08:27:09.000Z</time>
      </trkpt>
      <trkpt lat="45.67392" lon="4.46824">
        <ele>732.3</ele>
        <time>2015-07-12T08:27:12.000Z</time>
      </trkpt>
      <trkpt lat="45.67388" lon="4.46815">
        <ele>731.9</ele>
        <time>2015-07-12T08:27:13.000Z</time>
      </trkpt>
      <trkpt lat="45.67373" lon="4.46791">
        <ele>730.5</ele>
        <time>2015-07-12T08:27:16.000Z</time>
      </trkpt>
      <trkpt lat="45.67354" lon="4.46766">
        <ele>729</ele>
        <time>2015-07-12T08:27:19.000Z</time>
      </trkpt>
      <trkpt lat="45.67336" lon="4.46743">
        <ele>727.5</ele>
        <time>2015-07-12T08:27:22.000Z</time>
      </trkpt>
      <trkpt lat="45.67318" lon="4.46718">
        <ele>726.3</ele>
        <time>2015-07-12T08:27:25.000Z</time>
      </trkpt>
      <trkpt lat="45.67302" lon="4.46692">
        <ele>724.6</ele>
        <time>2015-07-12T08:27:28.000Z</time>
      </trkpt>
      <trkpt lat="45.67297" lon="4.46682">
        <ele>724.2</ele>
        <time>2015-07-12T08:27:29.000Z</time>
      </trkpt>
      <trkpt lat="45.67285" lon="4.46653">
        <ele>724</ele>
        <time>2015-07-12T08:27:32.000Z</time>
      </trkpt>
      <trkpt lat="45.67273" lon="4.46626">
        <ele>724.5</ele>
        <time>2015-07-12T08:27:35.000Z</time>
      </trkpt>
      <trkpt lat="45.67261" lon="4.46602">
        <ele>724.8</ele>
        <time>2015-07-12T08:27:38.000Z</time>
      </trkpt>
      <trkpt lat="45.67251" lon="4.46579">
        <ele>725.5</ele>
        <time>2015-07-12T08:27:41.000Z</time>
      </trkpt>
      <trkpt lat="45.6724" lon="4.46551">
        <ele>727.6</ele>
        <time>2015-07-12T08:27:45.000Z</time>
      </trkpt>
      <trkpt lat="45.67228" lon="4.46521">
        <ele>728</ele>
        <time>2015-07-12T08:27:50.000Z</time>
      </trkpt>
      <trkpt lat="45.67218" lon="4.46494">
        <ele>728.5</ele>
        <time>2015-07-12T08:27:55.000Z</time>
      </trkpt>
      <trkpt lat="45.67215" lon="4.46489">
        <ele>728.1</ele>
        <time>2015-07-12T08:27:56.000Z</time>
      </trkpt>
      <trkpt lat="45.67203" lon="4.46466">
        <ele>726.5</ele>
        <time>2015-07-12T08:28:00.000Z</time>
      </trkpt>
      <trkpt lat="45.67188" lon="4.46442">
        <ele>725.2</ele>
        <time>2015-07-12T08:28:04.000Z</time>
      </trkpt>
      <trkpt lat="45.67171" lon="4.46418">
        <ele>723.8</ele>
        <time>2015-07-12T08:28:08.000Z</time>
      </trkpt>
      <trkpt lat="45.67166" lon="4.46412">
        <ele>723.5</ele>
        <time>2015-07-12T08:28:09.000Z</time>
      </trkpt>
      <trkpt lat="45.67149" lon="4.46399">
        <ele>723.6</ele>
        <time>2015-07-12T08:28:12.000Z</time>
      </trkpt>
      <trkpt lat="45.67137" lon="4.46392">
        <ele>723.5</ele>
        <time>2015-07-12T08:28:14.000Z</time>
      </trkpt>
      <trkpt lat="45.67116" lon="4.46379">
        <ele>723.5</ele>
        <time>2015-07-12T08:28:18.000Z</time>
      </trkpt>
      <trkpt lat="45.67111" lon="4.46375">
        <ele>723.5</ele>
        <time>2015-07-12T08:28:19.000Z</time>
      </trkpt>
      <trkpt lat="45.67094" lon="4.46355">
        <ele>722.7</ele>
        <time>2015-07-12T08:28:23.000Z</time>
      </trkpt>
      <trkpt lat="45.67089" lon="4.4635">
        <ele>722.6</ele>
        <time>2015-07-12T08:28:24.000Z</time>
      </trkpt>
      <trkpt lat="45.67074" lon="4.46329">
        <ele>722.9</ele>
        <time>2015-07-12T08:28:28.000Z</time>
      </trkpt>
      <trkpt lat="45.67057" lon="4.46311">
        <ele>722.4</ele>
        <time>2015-07-12T08:28:32.000Z</time>
      </trkpt>
      <trkpt lat="45.67052" lon="4.46307">
        <ele>722.1</ele>
        <time>2015-07-12T08:28:33.000Z</time>
      </trkpt>
      <trkpt lat="45.67031" lon="4.4629">
        <ele>720.9</ele>
        <time>2015-07-12T08:28:37.000Z</time>
      </trkpt>
      <trkpt lat="45.67026" lon="4.46285">
        <ele>720.7</ele>
        <time>2015-07-12T08:28:38.000Z</time>
      </trkpt>
      <trkpt lat="45.67017" lon="4.46274">
        <ele>720.2</ele>
        <time>2015-07-12T08:28:40.000Z</time>
      </trkpt>
      <trkpt lat="45.67003" lon="4.46257">
        <ele>719</ele>
        <time>2015-07-12T08:28:43.000Z</time>
      </trkpt>
      <trkpt lat="45.66998" lon="4.46251">
        <ele>718.4</ele>
        <time>2015-07-12T08:28:44.000Z</time>
      </trkpt>
      <trkpt lat="45.66982" lon="4.46234">
        <ele>717.2</ele>
        <time>2015-07-12T08:28:47.000Z</time>
      </trkpt>
      <trkpt lat="45.66966" lon="4.46217">
        <ele>716.6</ele>
        <time>2015-07-12T08:28:50.000Z</time>
      </trkpt>
      <trkpt lat="45.66949" lon="4.46202">
        <ele>715.8</ele>
        <time>2015-07-12T08:28:53.000Z</time>
      </trkpt>
      <trkpt lat="45.66934" lon="4.46187">
        <ele>715.2</ele>
        <time>2015-07-12T08:28:56.000Z</time>
      </trkpt>
      <trkpt lat="45.66929" lon="4.46183">
        <ele>714.9</ele>
        <time>2015-07-12T08:28:57.000Z</time>
      </trkpt>
      <trkpt lat="45.66914" lon="4.46168">
        <ele>714.3</ele>
        <time>2015-07-12T08:29:00.000Z</time>
      </trkpt>
      <trkpt lat="45.66899" lon="4.4615">
        <ele>713</ele>
        <time>2015-07-12T08:29:03.000Z</time>
      </trkpt>
      <trkpt lat="45.66884" lon="4.4613">
        <ele>711.8</ele>
        <time>2015-07-12T08:29:06.000Z</time>
      </trkpt>
      <trkpt lat="45.6687" lon="4.46106">
        <ele>710.6</ele>
        <time>2015-07-12T08:29:09.000Z</time>
      </trkpt>
      <trkpt lat="45.66856" lon="4.46082">
        <ele>709.9</ele>
        <time>2015-07-12T08:29:12.000Z</time>
      </trkpt>
      <trkpt lat="45.66842" lon="4.46061">
        <ele>708.7</ele>
        <time>2015-07-12T08:29:15.000Z</time>
      </trkpt>
      <trkpt lat="45.66828" lon="4.4604">
        <ele>707.7</ele>
        <time>2015-07-12T08:29:18.000Z</time>
      </trkpt>
      <trkpt lat="45.66814" lon="4.46017">
        <ele>707</ele>
        <time>2015-07-12T08:29:21.000Z</time>
      </trkpt>
      <trkpt lat="45.668" lon="4.45998">
        <ele>706.5</ele>
        <time>2015-07-12T08:29:24.000Z</time>
      </trkpt>
      <trkpt lat="45.66785" lon="4.45979">
        <ele>704.7</ele>
        <time>2015-07-12T08:29:27.000Z</time>
      </trkpt>
      <trkpt lat="45.66772" lon="4.45959">
        <ele>704.2</ele>
        <time>2015-07-12T08:29:30.000Z</time>
      </trkpt>
      <trkpt lat="45.66768" lon="4.45952">
        <ele>704.3</ele>
        <time>2015-07-12T08:29:31.000Z</time>
      </trkpt>
      <trkpt lat="45.66756" lon="4.45931">
        <ele>703.7</ele>
        <time>2015-07-12T08:29:34.000Z</time>
      </trkpt>
      <trkpt lat="45.66751" lon="4.45923">
        <ele>703.6</ele>
        <time>2015-07-12T08:29:35.000Z</time>
      </trkpt>
      <trkpt lat="45.66738" lon="4.45898">
        <ele>702.8</ele>
        <time>2015-07-12T08:29:38.000Z</time>
      </trkpt>
      <trkpt lat="45.66726" lon="4.45875">
        <ele>701</ele>
        <time>2015-07-12T08:29:41.000Z</time>
      </trkpt>
      <trkpt lat="45.66714" lon="4.45852">
        <ele>698.8</ele>
        <time>2015-07-12T08:29:44.000Z</time>
      </trkpt>
      <trkpt lat="45.66705" lon="4.45839">
        <ele>697.4</ele>
        <time>2015-07-12T08:29:46.000Z</time>
      </trkpt>
      <trkpt lat="45.66688" lon="4.45824">
        <ele>694.4</ele>
        <time>2015-07-12T08:29:49.000Z</time>
      </trkpt>
      <trkpt lat="45.6667" lon="4.45809">
        <ele>690.7</ele>
        <time>2015-07-12T08:29:52.000Z</time>
      </trkpt>
      <trkpt lat="45.66652" lon="4.45796">
        <ele>687.5</ele>
        <time>2015-07-12T08:29:55.000Z</time>
      </trkpt>
      <trkpt lat="45.66646" lon="4.4579">
        <ele>686.7</ele>
        <time>2015-07-12T08:29:56.000Z</time>
      </trkpt>
      <trkpt lat="45.6663" lon="4.45772">
        <ele>685.9</ele>
        <time>2015-07-12T08:29:59.000Z</time>
      </trkpt>
      <trkpt lat="45.66619" lon="4.45763">
        <ele>686.2</ele>
        <time>2015-07-12T08:30:01.000Z</time>
      </trkpt>
      <trkpt lat="45.666" lon="4.45749">
        <ele>688.1</ele>
        <time>2015-07-12T08:30:04.000Z</time>
      </trkpt>
      <trkpt lat="45.66589" lon="4.45738">
        <ele>689.6</ele>
        <time>2015-07-12T08:30:06.000Z</time>
      </trkpt>
      <trkpt lat="45.66583" lon="4.4571">
        <ele>691.6</ele>
        <time>2015-07-12T08:30:10.000Z</time>
      </trkpt>
      <trkpt lat="45.66583" lon="4.45696">
        <ele>692</ele>
        <time>2015-07-12T08:30:12.000Z</time>
      </trkpt>
      <trkpt lat="45.66584" lon="4.45666">
        <ele>693</ele>
        <time>2015-07-12T08:30:17.000Z</time>
      </trkpt>
      <trkpt lat="45.66584" lon="4.45637">
        <ele>693.9</ele>
        <time>2015-07-12T08:30:22.000Z</time>
      </trkpt>
      <trkpt lat="45.66585" lon="4.4561">
        <ele>694.5</ele>
        <time>2015-07-12T08:30:27.000Z</time>
      </trkpt>
      <trkpt lat="45.66586" lon="4.45584">
        <ele>694.4</ele>
        <time>2015-07-12T08:30:32.000Z</time>
      </trkpt>
      <trkpt lat="45.6659" lon="4.45559">
        <ele>694.4</ele>
        <time>2015-07-12T08:30:37.000Z</time>
      </trkpt>
      <trkpt lat="45.66605" lon="4.45536">
        <ele>693.1</ele>
        <time>2015-07-12T08:30:42.000Z</time>
      </trkpt>
      <trkpt lat="45.66617" lon="4.45511">
        <ele>692.1</ele>
        <time>2015-07-12T08:30:46.000Z</time>
      </trkpt>
      <trkpt lat="45.66626" lon="4.45484">
        <ele>691</ele>
        <time>2015-07-12T08:30:50.000Z</time>
      </trkpt>
      <trkpt lat="45.66627" lon="4.45477">
        <ele>691.1</ele>
        <time>2015-07-12T08:30:51.000Z</time>
      </trkpt>
      <trkpt lat="45.66627" lon="4.45448">
        <ele>690.1</ele>
        <time>2015-07-12T08:30:55.000Z</time>
      </trkpt>
      <trkpt lat="45.66626" lon="4.4544">
        <ele>689.9</ele>
        <time>2015-07-12T08:30:56.000Z</time>
      </trkpt>
      <trkpt lat="45.66615" lon="4.45415">
        <ele>690</ele>
        <time>2015-07-12T08:31:00.000Z</time>
      </trkpt>
      <trkpt lat="45.66611" lon="4.45409">
        <ele>689.4</ele>
        <time>2015-07-12T08:31:01.000Z</time>
      </trkpt>
      <trkpt lat="45.66599" lon="4.4539">
        <ele>686.9</ele>
        <time>2015-07-12T08:31:04.000Z</time>
      </trkpt>
      <trkpt lat="45.66596" lon="4.45381">
        <ele>685.7</ele>
        <time>2015-07-12T08:31:05.000Z</time>
      </trkpt>
      <trkpt lat="45.6659" lon="4.45352">
        <ele>681</ele>
        <time>2015-07-12T08:31:08.000Z</time>
      </trkpt>
      <trkpt lat="45.66582" lon="4.45323">
        <ele>676.2</ele>
        <time>2015-07-12T08:31:11.000Z</time>
      </trkpt>
      <trkpt lat="45.66578" lon="4.45316">
        <ele>675.2</ele>
        <time>2015-07-12T08:31:12.000Z</time>
      </trkpt>
      <trkpt lat="45.66574" lon="4.45309">
        <ele>674.4</ele>
        <time>2015-07-12T08:31:13.000Z</time>
      </trkpt>
      <trkpt lat="45.66554" lon="4.45298">
        <ele>674</ele>
        <time>2015-07-12T08:31:16.000Z</time>
      </trkpt>
      <trkpt lat="45.66541" lon="4.45284">
        <ele>672.7</ele>
        <time>2015-07-12T08:31:20.000Z</time>
      </trkpt>
      <trkpt lat="45.66547" lon="4.45274">
        <ele>671.4</ele>
        <time>2015-07-12T08:31:22.000Z</time>
      </trkpt>
      <trkpt lat="45.6655" lon="4.45268">
        <ele>671</ele>
        <time>2015-07-12T08:31:23.000Z</time>
      </trkpt>
      <trkpt lat="45.66558" lon="4.45237">
        <ele>670.3</ele>
        <time>2015-07-12T08:31:27.000Z</time>
      </trkpt>
      <trkpt lat="45.66552" lon="4.45212">
        <ele>670.1</ele>
        <time>2015-07-12T08:31:30.000Z</time>
      </trkpt>
      <trkpt lat="45.6655" lon="4.45204">
        <ele>670</ele>
        <time>2015-07-12T08:31:31.000Z</time>
      </trkpt>
      <trkpt lat="45.66544" lon="4.45178">
        <ele>669.4</ele>
        <time>2015-07-12T08:31:34.000Z</time>
      </trkpt>
      <trkpt lat="45.6654" lon="4.45148">
        <ele>670</ele>
        <time>2015-07-12T08:31:38.000Z</time>
      </trkpt>
      <trkpt lat="45.66537" lon="4.45122">
        <ele>670.8</ele>
        <time>2015-07-12T08:31:42.000Z</time>
      </trkpt>
      <trkpt lat="45.66535" lon="4.45116">
        <ele>670.7</ele>
        <time>2015-07-12T08:31:43.000Z</time>
      </trkpt>
      <trkpt lat="45.66525" lon="4.45088">
        <ele>669.7</ele>
        <time>2015-07-12T08:31:48.000Z</time>
      </trkpt>
      <trkpt lat="45.6652" lon="4.45077">
        <ele>669.3</ele>
        <time>2015-07-12T08:31:50.000Z</time>
      </trkpt>
      <trkpt lat="45.66518" lon="4.45049">
        <ele>669.1</ele>
        <time>2015-07-12T08:31:54.000Z</time>
      </trkpt>
      <trkpt lat="45.66519" lon="4.45034">
        <ele>668.4</ele>
        <time>2015-07-12T08:31:56.000Z</time>
      </trkpt>
      <trkpt lat="45.66521" lon="4.45001">
        <ele>667.2</ele>
        <time>2015-07-12T08:32:00.000Z</time>
      </trkpt>
      <trkpt lat="45.66521" lon="4.44969">
        <ele>667.1</ele>
        <time>2015-07-12T08:32:04.000Z</time>
      </trkpt>
      <trkpt lat="45.6652" lon="4.44961">
        <ele>666.8</ele>
        <time>2015-07-12T08:32:05.000Z</time>
      </trkpt>
      <trkpt lat="45.66512" lon="4.44937">
        <ele>664.9</ele>
        <time>2015-07-12T08:32:08.000Z</time>
      </trkpt>
      <trkpt lat="45.66497" lon="4.44915">
        <ele>662.6</ele>
        <time>2015-07-12T08:32:11.000Z</time>
      </trkpt>
      <trkpt lat="45.66492" lon="4.44907">
        <ele>661.8</ele>
        <time>2015-07-12T08:32:12.000Z</time>
      </trkpt>
      <trkpt lat="45.66475" lon="4.44886">
        <ele>661.3</ele>
        <time>2015-07-12T08:32:15.000Z</time>
      </trkpt>
      <trkpt lat="45.66459" lon="4.44863">
        <ele>660.6</ele>
        <time>2015-07-12T08:32:18.000Z</time>
      </trkpt>
      <trkpt lat="45.66446" lon="4.44838">
        <ele>659.2</ele>
        <time>2015-07-12T08:32:21.000Z</time>
      </trkpt>
      <trkpt lat="45.66435" lon="4.44812">
        <ele>658.8</ele>
        <time>2015-07-12T08:32:24.000Z</time>
      </trkpt>
      <trkpt lat="45.66433" lon="4.44804">
        <ele>658.8</ele>
        <time>2015-07-12T08:32:25.000Z</time>
      </trkpt>
      <trkpt lat="45.66426" lon="4.44776">
        <ele>658.6</ele>
        <time>2015-07-12T08:32:29.000Z</time>
      </trkpt>
      <trkpt lat="45.6642" lon="4.4476">
        <ele>657.7</ele>
        <time>2015-07-12T08:32:32.000Z</time>
      </trkpt>
      <trkpt lat="45.66411" lon="4.4476">
        <ele>657.3</ele>
        <time>2015-07-12T08:32:35.000Z</time>
      </trkpt>
      <trkpt lat="45.66403" lon="4.44776">
        <ele>657.5</ele>
        <time>2015-07-12T08:32:39.000Z</time>
      </trkpt>
      <trkpt lat="45.66394" lon="4.44786">
        <ele>657.4</ele>
        <time>2015-07-12T08:32:42.000Z</time>
      </trkpt>
      <trkpt lat="45.66377" lon="4.44777">
        <ele>657.9</ele>
        <time>2015-07-12T08:32:47.000Z</time>
      </trkpt>
      <trkpt lat="45.6637" lon="4.44765">
        <ele>658.3</ele>
        <time>2015-07-12T08:32:50.000Z</time>
      </trkpt>
      <trkpt lat="45.66358" lon="4.44745">
        <ele>659.4</ele>
        <time>2015-07-12T08:32:57.000Z</time>
      </trkpt>
      <trkpt lat="45.66357" lon="4.44738">
        <ele>659.5</ele>
        <time>2015-07-12T08:33:00.000Z</time>
      </trkpt>
      <trkpt lat="45.66356" lon="4.44719">
        <ele>658.8</ele>
        <time>2015-07-12T08:33:06.000Z</time>
      </trkpt>
      <trkpt lat="45.66351" lon="4.44691">
        <ele>658.4</ele>
        <time>2015-07-12T08:33:13.000Z</time>
      </trkpt>
      <trkpt lat="45.66344" lon="4.44668">
        <ele>658.3</ele>
        <time>2015-07-12T08:33:19.000Z</time>
      </trkpt>
      <trkpt lat="45.66335" lon="4.44644">
        <ele>658.1</ele>
        <time>2015-07-12T08:33:24.000Z</time>
      </trkpt>
      <trkpt lat="45.66326" lon="4.44618">
        <ele>657.9</ele>
        <time>2015-07-12T08:33:29.000Z</time>
      </trkpt>
      <trkpt lat="45.66312" lon="4.44594">
        <ele>657.6</ele>
        <time>2015-07-12T08:33:35.000Z</time>
      </trkpt>
      <trkpt lat="45.66297" lon="4.44577">
        <ele>657.8</ele>
        <time>2015-07-12T08:33:40.000Z</time>
      </trkpt>
      <trkpt lat="45.66279" lon="4.44566">
        <ele>658.7</ele>
        <time>2015-07-12T08:33:45.000Z</time>
      </trkpt>
      <trkpt lat="45.66259" lon="4.44555">
        <ele>659.3</ele>
        <time>2015-07-12T08:33:51.000Z</time>
      </trkpt>
      <trkpt lat="45.6624" lon="4.44546">
        <ele>659.3</ele>
        <time>2015-07-12T08:33:57.000Z</time>
      </trkpt>
      <trkpt lat="45.6622" lon="4.44534">
        <ele>658.8</ele>
        <time>2015-07-12T08:34:03.000Z</time>
      </trkpt>
      <trkpt lat="45.66199" lon="4.44522">
        <ele>658.5</ele>
        <time>2015-07-12T08:34:08.000Z</time>
      </trkpt>
      <trkpt lat="45.66181" lon="4.44506">
        <ele>659.4</ele>
        <time>2015-07-12T08:34:13.000Z</time>
      </trkpt>
      <trkpt lat="45.66167" lon="4.44489">
        <ele>660.1</ele>
        <time>2015-07-12T08:34:18.000Z</time>
      </trkpt>
      <trkpt lat="45.66156" lon="4.44466">
        <ele>659.7</ele>
        <time>2015-07-12T08:34:23.000Z</time>
      </trkpt>
      <trkpt lat="45.66145" lon="4.4444">
        <ele>659.2</ele>
        <time>2015-07-12T08:34:28.000Z</time>
      </trkpt>
      <trkpt lat="45.66134" lon="4.44419">
        <ele>659.6</ele>
        <time>2015-07-12T08:34:32.000Z</time>
      </trkpt>
      <trkpt lat="45.66125" lon="4.44406">
        <ele>659.7</ele>
        <time>2015-07-12T08:34:35.000Z</time>
      </trkpt>
      <trkpt lat="45.66113" lon="4.44386">
        <ele>659.6</ele>
        <time>2015-07-12T08:34:39.000Z</time>
      </trkpt>
      <trkpt lat="45.66101" lon="4.44366">
        <ele>659.2</ele>
        <time>2015-07-12T08:34:43.000Z</time>
      </trkpt>
      <trkpt lat="45.66085" lon="4.44346">
        <ele>658.8</ele>
        <time>2015-07-12T08:34:48.000Z</time>
      </trkpt>
      <trkpt lat="45.66076" lon="4.44336">
        <ele>658.9</ele>
        <time>2015-07-12T08:34:51.000Z</time>
      </trkpt>
      <trkpt lat="45.66061" lon="4.44316">
        <ele>659.3</ele>
        <time>2015-07-12T08:34:57.000Z</time>
      </trkpt>
      <trkpt lat="45.66046" lon="4.44299">
        <ele>659.4</ele>
        <time>2015-07-12T08:35:02.000Z</time>
      </trkpt>
      <trkpt lat="45.66031" lon="4.44279">
        <ele>658.1</ele>
        <time>2015-07-12T08:35:08.000Z</time>
      </trkpt>
      <trkpt lat="45.6603" lon="4.44275">
        <ele>657.7</ele>
        <time>2015-07-12T08:35:09.000Z</time>
      </trkpt>
      <trkpt lat="45.66044" lon="4.44257">
        <ele>656.4</ele>
        <time>2015-07-12T08:35:13.000Z</time>
      </trkpt>
      <trkpt lat="45.66059" lon="4.44235">
        <ele>655</ele>
        <time>2015-07-12T08:35:18.000Z</time>
      </trkpt>
      <trkpt lat="45.66064" lon="4.44226">
        <ele>654.6</ele>
        <time>2015-07-12T08:35:20.000Z</time>
      </trkpt>
      <trkpt lat="45.66076" lon="4.44202">
        <ele>654.8</ele>
        <time>2015-07-12T08:35:25.000Z</time>
      </trkpt>
      <trkpt lat="45.66088" lon="4.44176">
        <ele>655.4</ele>
        <time>2015-07-12T08:35:30.000Z</time>
      </trkpt>
      <trkpt lat="45.66103" lon="4.44148">
        <ele>656.7</ele>
        <time>2015-07-12T08:35:36.000Z</time>
      </trkpt>
      <trkpt lat="45.66107" lon="4.44147">
        <ele>657.2</ele>
        <time>2015-07-12T08:35:37.000Z</time>
      </trkpt>
      <trkpt lat="45.66123" lon="4.44139">
        <ele>658</ele>
        <time>2015-07-12T08:35:45.000Z</time>
      </trkpt>
      <trkpt lat="45.66121" lon="4.44128">
        <ele>659.7</ele>
        <time>2015-07-12T08:35:58.000Z</time>
      </trkpt>
      <trkpt lat="45.66126" lon="4.44124">
        <ele>660.4</ele>
        <time>2015-07-12T08:36:08.000Z</time>
      </trkpt>
      <trkpt lat="45.66132" lon="4.44117">
        <ele>661.7</ele>
        <time>2015-07-12T08:36:12.000Z</time>
      </trkpt>
      <trkpt lat="45.66143" lon="4.44097">
        <ele>665.3</ele>
        <time>2015-07-12T08:36:25.000Z</time>
      </trkpt>
      <trkpt lat="45.6615" lon="4.44085">
        <ele>667.6</ele>
        <time>2015-07-12T08:36:34.000Z</time>
      </trkpt>
      <trkpt lat="45.66156" lon="4.44078">
        <ele>669.1</ele>
        <time>2015-07-12T08:36:41.000Z</time>
      </trkpt>
      <trkpt lat="45.66168" lon="4.4406">
        <ele>674.1</ele>
        <time>2015-07-12T08:37:24.000Z</time>
      </trkpt>
      <trkpt lat="45.66173" lon="4.44051">
        <ele>675.6</ele>
        <time>2015-07-12T08:37:41.000Z</time>
      </trkpt>
      <trkpt lat="45.66186" lon="4.44032">
        <ele>678.6</ele>
        <time>2015-07-12T08:37:55.000Z</time>
      </trkpt>
      <trkpt lat="45.662" lon="4.44014">
        <ele>682.2</ele>
        <time>2015-07-12T08:38:07.000Z</time>
      </trkpt>
      <trkpt lat="45.66217" lon="4.44">
        <ele>685.4</ele>
        <time>2015-07-12T08:38:19.000Z</time>
      </trkpt>
      <trkpt lat="45.66222" lon="4.43995">
        <ele>686.4</ele>
        <time>2015-07-12T08:38:23.000Z</time>
      </trkpt>
      <trkpt lat="45.66239" lon="4.43994">
        <ele>688.2</ele>
        <time>2015-07-12T08:38:34.000Z</time>
      </trkpt>
      <trkpt lat="45.66243" lon="4.44006">
        <ele>688</ele>
        <time>2015-07-12T08:38:38.000Z</time>
      </trkpt>
      <trkpt lat="45.66252" lon="4.44033">
        <ele>687.5</ele>
        <time>2015-07-12T08:38:45.000Z</time>
      </trkpt>
      <trkpt lat="45.6626" lon="4.44058">
        <ele>686.3</ele>
        <time>2015-07-12T08:38:50.000Z</time>
      </trkpt>
      <trkpt lat="45.66268" lon="4.44083">
        <ele>686.9</ele>
        <time>2015-07-12T08:38:55.000Z</time>
      </trkpt>
      <trkpt lat="45.66277" lon="4.44109">
        <ele>687.9</ele>
        <time>2015-07-12T08:39:01.000Z</time>
      </trkpt>
      <trkpt lat="45.66284" lon="4.44133">
        <ele>689</ele>
        <time>2015-07-12T08:39:06.000Z</time>
      </trkpt>
      <trkpt lat="45.66292" lon="4.44159">
        <ele>689.9</ele>
        <time>2015-07-12T08:39:12.000Z</time>
      </trkpt>
      <trkpt lat="45.663" lon="4.44176">
        <ele>690.9</ele>
        <time>2015-07-12T08:39:17.000Z</time>
      </trkpt>
      <trkpt lat="45.66306" lon="4.44153">
        <ele>692.5</ele>
        <time>2015-07-12T08:39:23.000Z</time>
      </trkpt>
      <trkpt lat="45.66306" lon="4.44148">
        <ele>692.7</ele>
        <time>2015-07-12T08:39:24.000Z</time>
      </trkpt>
      <trkpt lat="45.6631" lon="4.4412">
        <ele>693</ele>
        <time>2015-07-12T08:39:30.000Z</time>
      </trkpt>
      <trkpt lat="45.66316" lon="4.44092">
        <ele>693.5</ele>
        <time>2015-07-12T08:39:36.000Z</time>
      </trkpt>
      <trkpt lat="45.66323" lon="4.44065">
        <ele>694.6</ele>
        <time>2015-07-12T08:39:42.000Z</time>
      </trkpt>
      <trkpt lat="45.66332" lon="4.44038">
        <ele>695.1</ele>
        <time>2015-07-12T08:39:48.000Z</time>
      </trkpt>
      <trkpt lat="45.66339" lon="4.44013">
        <ele>695.5</ele>
        <time>2015-07-12T08:39:54.000Z</time>
      </trkpt>
      <trkpt lat="45.66347" lon="4.43989">
        <ele>695.8</ele>
        <time>2015-07-12T08:40:00.000Z</time>
      </trkpt>
      <trkpt lat="45.66357" lon="4.43964">
        <ele>695.6</ele>
        <time>2015-07-12T08:40:06.000Z</time>
      </trkpt>
      <trkpt lat="45.66369" lon="4.43938">
        <ele>695.3</ele>
        <time>2015-07-12T08:40:12.000Z</time>
      </trkpt>
      <trkpt lat="45.66382" lon="4.43915">
        <ele>694.7</ele>
        <time>2015-07-12T08:40:17.000Z</time>
      </trkpt>
      <trkpt lat="45.66395" lon="4.4389">
        <ele>694.5</ele>
        <time>2015-07-12T08:40:22.000Z</time>
      </trkpt>
      <trkpt lat="45.66408" lon="4.43865">
        <ele>694.2</ele>
        <time>2015-07-12T08:40:27.000Z</time>
      </trkpt>
      <trkpt lat="45.66412" lon="4.43861">
        <ele>694</ele>
        <time>2015-07-12T08:40:28.000Z</time>
      </trkpt>
      <trkpt lat="45.66432" lon="4.43867">
        <ele>695</ele>
        <time>2015-07-12T08:40:33.000Z</time>
      </trkpt>
      <trkpt lat="45.66449" lon="4.43878">
        <ele>696.5</ele>
        <time>2015-07-12T08:40:39.000Z</time>
      </trkpt>
      <trkpt lat="45.66468" lon="4.43887">
        <ele>698.5</ele>
        <time>2015-07-12T08:40:46.000Z</time>
      </trkpt>
      <trkpt lat="45.66487" lon="4.43896">
        <ele>700.4</ele>
        <time>2015-07-12T08:40:54.000Z</time>
      </trkpt>
      <trkpt lat="45.66505" lon="4.43905">
        <ele>702.7</ele>
        <time>2015-07-12T08:41:03.000Z</time>
      </trkpt>
      <trkpt lat="45.66525" lon="4.43905">
        <ele>704.2</ele>
        <time>2015-07-12T08:41:12.000Z</time>
      </trkpt>
      <trkpt lat="45.66544" lon="4.43905">
        <ele>705.2</ele>
        <time>2015-07-12T08:41:20.000Z</time>
      </trkpt>
      <trkpt lat="45.66564" lon="4.43907">
        <ele>706.4</ele>
        <time>2015-07-12T08:41:27.000Z</time>
      </trkpt>
      <trkpt lat="45.66581" lon="4.43918">
        <ele>708.3</ele>
        <time>2015-07-12T08:41:35.000Z</time>
      </trkpt>
      <trkpt lat="45.66595" lon="4.43937">
        <ele>710.6</ele>
        <time>2015-07-12T08:41:45.000Z</time>
      </trkpt>
      <trkpt lat="45.66607" lon="4.43957">
        <ele>713</ele>
        <time>2015-07-12T08:41:55.000Z</time>
      </trkpt>
      <trkpt lat="45.6662" lon="4.43976">
        <ele>715.2</ele>
        <time>2015-07-12T08:42:06.000Z</time>
      </trkpt>
      <trkpt lat="45.66634" lon="4.43993">
        <ele>717.1</ele>
        <time>2015-07-12T08:42:18.000Z</time>
      </trkpt>
      <trkpt lat="45.66644" lon="4.44004">
        <ele>718.3</ele>
        <time>2015-07-12T08:42:27.000Z</time>
      </trkpt>
      <trkpt lat="45.66652" lon="4.44013">
        <ele>719.1</ele>
        <time>2015-07-12T08:42:34.000Z</time>
      </trkpt>
      <trkpt lat="45.6667" lon="4.44025">
        <ele>720.3</ele>
        <time>2015-07-12T08:42:45.000Z</time>
      </trkpt>
      <trkpt lat="45.6669" lon="4.44034">
        <ele>719</ele>
        <time>2015-07-12T08:42:53.000Z</time>
      </trkpt>
      <trkpt lat="45.66703" lon="4.44058">
        <ele>719</ele>
        <time>2015-07-12T08:42:58.000Z</time>
      </trkpt>
      <trkpt lat="45.66713" lon="4.44079">
        <ele>719</ele>
        <time>2015-07-12T08:43:02.000Z</time>
      </trkpt>
      <trkpt lat="45.66725" lon="4.44102">
        <ele>718.5</ele>
        <time>2015-07-12T08:43:06.000Z</time>
      </trkpt>
      <trkpt lat="45.66735" lon="4.44123">
        <ele>718.9</ele>
        <time>2015-07-12T08:43:10.000Z</time>
      </trkpt>
      <trkpt lat="45.66738" lon="4.44127">
        <ele>719</ele>
        <time>2015-07-12T08:43:11.000Z</time>
      </trkpt>
      <trkpt lat="45.66752" lon="4.44146">
        <ele>719.5</ele>
        <time>2015-07-12T08:43:16.000Z</time>
      </trkpt>
      <trkpt lat="45.6676" lon="4.44157">
        <ele>719.9</ele>
        <time>2015-07-12T08:43:19.000Z</time>
      </trkpt>
      <trkpt lat="45.66774" lon="4.44174">
        <ele>720.7</ele>
        <time>2015-07-12T08:43:25.000Z</time>
      </trkpt>
      <trkpt lat="45.66778" lon="4.44178">
        <ele>720.8</ele>
        <time>2015-07-12T08:43:27.000Z</time>
      </trkpt>
      <trkpt lat="45.66788" lon="4.4417">
        <ele>719.5</ele>
        <time>2015-07-12T08:43:31.000Z</time>
      </trkpt>
      <trkpt lat="45.66804" lon="4.44148">
        <ele>716.7</ele>
        <time>2015-07-12T08:43:35.000Z</time>
      </trkpt>
      <trkpt lat="45.6682" lon="4.44127">
        <ele>714.1</ele>
        <time>2015-07-12T08:43:38.000Z</time>
      </trkpt>
      <trkpt lat="45.6683" lon="4.4411">
        <ele>712</ele>
        <time>2015-07-12T08:43:41.000Z</time>
      </trkpt>
      <trkpt lat="45.66823" lon="4.44085">
        <ele>708.3</ele>
        <time>2015-07-12T08:43:46.000Z</time>
      </trkpt>
      <trkpt lat="45.66812" lon="4.44068">
        <ele>706.7</ele>
        <time>2015-07-12T08:43:49.000Z</time>
      </trkpt>
      <trkpt lat="45.668" lon="4.44047">
        <ele>705.2</ele>
        <time>2015-07-12T08:43:52.000Z</time>
      </trkpt>
      <trkpt lat="45.66787" lon="4.44025">
        <ele>703.9</ele>
        <time>2015-07-12T08:43:55.000Z</time>
      </trkpt>
      <trkpt lat="45.66777" lon="4.44001">
        <ele>702.3</ele>
        <time>2015-07-12T08:43:58.000Z</time>
      </trkpt>
      <trkpt lat="45.66774" lon="4.43992">
        <ele>701.5</ele>
        <time>2015-07-12T08:43:59.000Z</time>
      </trkpt>
      <trkpt lat="45.6677" lon="4.43964">
        <ele>698.2</ele>
        <time>2015-07-12T08:44:02.000Z</time>
      </trkpt>
      <trkpt lat="45.66769" lon="4.43953">
        <ele>696.9</ele>
        <time>2015-07-12T08:44:03.000Z</time>
      </trkpt>
      <trkpt lat="45.66764" lon="4.43925">
        <ele>693.7</ele>
        <time>2015-07-12T08:44:06.000Z</time>
      </trkpt>
      <trkpt lat="45.66758" lon="4.439">
        <ele>690.7</ele>
        <time>2015-07-12T08:44:09.000Z</time>
      </trkpt>
      <trkpt lat="45.66755" lon="4.43892">
        <ele>689.7</ele>
        <time>2015-07-12T08:44:10.000Z</time>
      </trkpt>
      <trkpt lat="45.66745" lon="4.43866">
        <ele>686.4</ele>
        <time>2015-07-12T08:44:13.000Z</time>
      </trkpt>
      <trkpt lat="45.66732" lon="4.43839">
        <ele>682.1</ele>
        <time>2015-07-12T08:44:16.000Z</time>
      </trkpt>
      <trkpt lat="45.66721" lon="4.43818">
        <ele>678.9</ele>
        <time>2015-07-12T08:44:19.000Z</time>
      </trkpt>
      <trkpt lat="45.66709" lon="4.43798">
        <ele>675.5</ele>
        <time>2015-07-12T08:44:22.000Z</time>
      </trkpt>
      <trkpt lat="45.66695" lon="4.43776">
        <ele>671.4</ele>
        <time>2015-07-12T08:44:26.000Z</time>
      </trkpt>
      <trkpt lat="45.66691" lon="4.43771">
        <ele>670.6</ele>
        <time>2015-07-12T08:44:27.000Z</time>
      </trkpt>
      <trkpt lat="45.66676" lon="4.43757">
        <ele>668.6</ele>
        <time>2015-07-12T08:44:30.000Z</time>
      </trkpt>
      <trkpt lat="45.66671" lon="4.43751">
        <ele>667.9</ele>
        <time>2015-07-12T08:44:31.000Z</time>
      </trkpt>
      <trkpt lat="45.66654" lon="4.43734">
        <ele>665.6</ele>
        <time>2015-07-12T08:44:34.000Z</time>
      </trkpt>
      <trkpt lat="45.66638" lon="4.43722">
        <ele>664</ele>
        <time>2015-07-12T08:44:37.000Z</time>
      </trkpt>
      <trkpt lat="45.66625" lon="4.43719">
        <ele>664.2</ele>
        <time>2015-07-12T08:44:40.000Z</time>
      </trkpt>
      <trkpt lat="45.66611" lon="4.43713">
        <ele>663.7</ele>
        <time>2015-07-12T08:44:43.000Z</time>
      </trkpt>
      <trkpt lat="45.66594" lon="4.43699">
        <ele>660.7</ele>
        <time>2015-07-12T08:44:47.000Z</time>
      </trkpt>
      <trkpt lat="45.66589" lon="4.43694">
        <ele>659.7</ele>
        <time>2015-07-12T08:44:48.000Z</time>
      </trkpt>
      <trkpt lat="45.66577" lon="4.43684">
        <ele>657.9</ele>
        <time>2015-07-12T08:44:50.000Z</time>
      </trkpt>
      <trkpt lat="45.66567" lon="4.43656">
        <ele>654.6</ele>
        <time>2015-07-12T08:44:53.000Z</time>
      </trkpt>
      <trkpt lat="45.66566" lon="4.43645">
        <ele>654</ele>
        <time>2015-07-12T08:44:54.000Z</time>
      </trkpt>
      <trkpt lat="45.66572" lon="4.43611">
        <ele>650.6</ele>
        <time>2015-07-12T08:44:57.000Z</time>
      </trkpt>
      <trkpt lat="45.66582" lon="4.43579">
        <ele>647.3</ele>
        <time>2015-07-12T08:45:00.000Z</time>
      </trkpt>
      <trkpt lat="45.66586" lon="4.43568">
        <ele>646.2</ele>
        <time>2015-07-12T08:45:01.000Z</time>
      </trkpt>
      <trkpt lat="45.66595" lon="4.43533">
        <ele>643.8</ele>
        <time>2015-07-12T08:45:04.000Z</time>
      </trkpt>
      <trkpt lat="45.66604" lon="4.435">
        <ele>642.7</ele>
        <time>2015-07-12T08:45:07.000Z</time>
      </trkpt>
      <trkpt lat="45.66609" lon="4.43489">
        <ele>642.1</ele>
        <time>2015-07-12T08:45:08.000Z</time>
      </trkpt>
      <trkpt lat="45.66625" lon="4.43459">
        <ele>640.1</ele>
        <time>2015-07-12T08:45:11.000Z</time>
      </trkpt>
      <trkpt lat="45.66635" lon="4.43431">
        <ele>639.2</ele>
        <time>2015-07-12T08:45:14.000Z</time>
      </trkpt>
      <trkpt lat="45.66639" lon="4.43417">
        <ele>638.8</ele>
        <time>2015-07-12T08:45:16.000Z</time>
      </trkpt>
      <trkpt lat="45.6665" lon="4.4339">
        <ele>635.7</ele>
        <time>2015-07-12T08:45:20.000Z</time>
      </trkpt>
      <trkpt lat="45.66655" lon="4.43376">
        <ele>634.6</ele>
        <time>2015-07-12T08:45:22.000Z</time>
      </trkpt>
      <trkpt lat="45.66661" lon="4.43347">
        <ele>635</ele>
        <time>2015-07-12T08:45:26.000Z</time>
      </trkpt>
      <trkpt lat="45.66668" lon="4.43323">
        <ele>636.3</ele>
        <time>2015-07-12T08:45:30.000Z</time>
      </trkpt>
      <trkpt lat="45.66673" lon="4.43307">
        <ele>637.3</ele>
        <time>2015-07-12T08:45:33.000Z</time>
      </trkpt>
      <trkpt lat="45.66683" lon="4.43279">
        <ele>638.6</ele>
        <time>2015-07-12T08:45:38.000Z</time>
      </trkpt>
      <trkpt lat="45.66688" lon="4.43254">
        <ele>640</ele>
        <time>2015-07-12T08:45:43.000Z</time>
      </trkpt>
      <trkpt lat="45.66688" lon="4.43249">
        <ele>640.6</ele>
        <time>2015-07-12T08:45:44.000Z</time>
      </trkpt>
      <trkpt lat="45.66685" lon="4.43233">
        <ele>642.5</ele>
        <time>2015-07-12T08:45:47.000Z</time>
      </trkpt>
      <trkpt lat="45.66684" lon="4.43225">
        <ele>643.5</ele>
        <time>2015-07-12T08:45:49.000Z</time>
      </trkpt>
      <trkpt lat="45.66684" lon="4.43212">
        <ele>643.9</ele>
        <time>2015-07-12T08:45:53.000Z</time>
      </trkpt>
      <trkpt lat="45.66684" lon="4.43186">
        <ele>644.6</ele>
        <time>2015-07-12T08:46:03.000Z</time>
      </trkpt>
      <trkpt lat="45.66684" lon="4.43177">
        <ele>645.1</ele>
        <time>2015-07-12T08:46:07.000Z</time>
      </trkpt>
      <trkpt lat="45.66683" lon="4.43168">
        <ele>645.5</ele>
        <time>2015-07-12T08:46:11.000Z</time>
      </trkpt>
      <trkpt lat="45.66682" lon="4.43143">
        <ele>646.7</ele>
        <time>2015-07-12T08:46:22.000Z</time>
      </trkpt>
      <trkpt lat="45.66679" lon="4.43125">
        <ele>647.3</ele>
        <time>2015-07-12T08:46:29.000Z</time>
      </trkpt>
      <trkpt lat="45.6668" lon="4.4312">
        <ele>646.9</ele>
        <time>2015-07-12T08:46:31.000Z</time>
      </trkpt>
      <trkpt lat="45.66678" lon="4.43108">
        <ele>646.9</ele>
        <time>2015-07-12T08:46:35.000Z</time>
      </trkpt>
      <trkpt lat="45.66673" lon="4.43083">
        <ele>646.6</ele>
        <time>2015-07-12T08:46:43.000Z</time>
      </trkpt>
      <trkpt lat="45.66666" lon="4.43065">
        <ele>648.5</ele>
        <time>2015-07-12T08:46:49.000Z</time>
      </trkpt>
      <trkpt lat="45.66662" lon="4.43048">
        <ele>648.7</ele>
        <time>2015-07-12T08:46:54.000Z</time>
      </trkpt>
      <trkpt lat="45.66655" lon="4.4302">
        <ele>650</ele>
        <time>2015-07-12T08:47:02.000Z</time>
      </trkpt>
      <trkpt lat="45.6665" lon="4.42996">
        <ele>651.3</ele>
        <time>2015-07-12T08:47:09.000Z</time>
      </trkpt>
      <trkpt lat="45.66647" lon="4.42971">
        <ele>653.1</ele>
        <time>2015-07-12T08:47:18.000Z</time>
      </trkpt>
      <trkpt lat="45.66642" lon="4.42944">
        <ele>655.2</ele>
        <time>2015-07-12T08:47:29.000Z</time>
      </trkpt>
      <trkpt lat="45.66637" lon="4.42918">
        <ele>657.8</ele>
        <time>2015-07-12T08:47:38.000Z</time>
      </trkpt>
      <trkpt lat="45.66628" lon="4.42893">
        <ele>660.8</ele>
        <time>2015-07-12T08:47:48.000Z</time>
      </trkpt>
      <trkpt lat="45.66619" lon="4.4287">
        <ele>662.4</ele>
        <time>2015-07-12T08:47:59.000Z</time>
      </trkpt>
      <trkpt lat="45.66606" lon="4.42849">
        <ele>663.9</ele>
        <time>2015-07-12T08:48:09.000Z</time>
      </trkpt>
      <trkpt lat="45.66591" lon="4.4283">
        <ele>664.7</ele>
        <time>2015-07-12T08:48:18.000Z</time>
      </trkpt>
      <trkpt lat="45.66576" lon="4.42816">
        <ele>665.1</ele>
        <time>2015-07-12T08:48:26.000Z</time>
      </trkpt>
      <trkpt lat="45.6656" lon="4.42803">
        <ele>665.6</ele>
        <time>2015-07-12T08:48:34.000Z</time>
      </trkpt>
      <trkpt lat="45.66543" lon="4.42789">
        <ele>665.4</ele>
        <time>2015-07-12T08:48:40.000Z</time>
      </trkpt>
      <trkpt lat="45.66526" lon="4.42777">
        <ele>666</ele>
        <time>2015-07-12T08:48:46.000Z</time>
      </trkpt>
      <trkpt lat="45.66508" lon="4.42765">
        <ele>666.1</ele>
        <time>2015-07-12T08:48:52.000Z</time>
      </trkpt>
      <trkpt lat="45.6649" lon="4.42755">
        <ele>666.9</ele>
        <time>2015-07-12T08:48:59.000Z</time>
      </trkpt>
      <trkpt lat="45.66472" lon="4.42747">
        <ele>668.3</ele>
        <time>2015-07-12T08:49:06.000Z</time>
      </trkpt>
      <trkpt lat="45.66453" lon="4.42737">
        <ele>669</ele>
        <time>2015-07-12T08:49:14.000Z</time>
      </trkpt>
      <trkpt lat="45.66434" lon="4.42729">
        <ele>670.2</ele>
        <time>2015-07-12T08:49:22.000Z</time>
      </trkpt>
      <trkpt lat="45.66416" lon="4.42722">
        <ele>672</ele>
        <time>2015-07-12T08:49:29.000Z</time>
      </trkpt>
      <trkpt lat="45.66397" lon="4.42713">
        <ele>672.4</ele>
        <time>2015-07-12T08:49:36.000Z</time>
      </trkpt>
      <trkpt lat="45.66378" lon="4.42703">
        <ele>672.6</ele>
        <time>2015-07-12T08:49:43.000Z</time>
      </trkpt>
      <trkpt lat="45.66359" lon="4.42693">
        <ele>672.7</ele>
        <time>2015-07-12T08:49:49.000Z</time>
      </trkpt>
      <trkpt lat="45.66343" lon="4.42684">
        <ele>672.3</ele>
        <time>2015-07-12T08:49:54.000Z</time>
      </trkpt>
      <trkpt lat="45.66325" lon="4.42675">
        <ele>671.9</ele>
        <time>2015-07-12T08:49:59.000Z</time>
      </trkpt>
      <trkpt lat="45.66308" lon="4.42667">
        <ele>671.8</ele>
        <time>2015-07-12T08:50:04.000Z</time>
      </trkpt>
      <trkpt lat="45.66287" lon="4.42659">
        <ele>672.2</ele>
        <time>2015-07-12T08:50:10.000Z</time>
      </trkpt>
      <trkpt lat="45.66269" lon="4.42651">
        <ele>672.5</ele>
        <time>2015-07-12T08:50:16.000Z</time>
      </trkpt>
      <trkpt lat="45.66249" lon="4.42641">
        <ele>673.3</ele>
        <time>2015-07-12T08:50:22.000Z</time>
      </trkpt>
      <trkpt lat="45.6623" lon="4.42633">
        <ele>673.7</ele>
        <time>2015-07-12T08:50:28.000Z</time>
      </trkpt>
      <trkpt lat="45.66212" lon="4.42625">
        <ele>674.4</ele>
        <time>2015-07-12T08:50:34.000Z</time>
      </trkpt>
      <trkpt lat="45.66194" lon="4.42622">
        <ele>675.8</ele>
        <time>2015-07-12T08:50:40.000Z</time>
      </trkpt>
      <trkpt lat="45.66174" lon="4.42619">
        <ele>676.3</ele>
        <time>2015-07-12T08:50:47.000Z</time>
      </trkpt>
      <trkpt lat="45.66155" lon="4.42617">
        <ele>677.2</ele>
        <time>2015-07-12T08:50:53.000Z</time>
      </trkpt>
      <trkpt lat="45.66136" lon="4.42612">
        <ele>678.1</ele>
        <time>2015-07-12T08:50:59.000Z</time>
      </trkpt>
      <trkpt lat="45.66117" lon="4.42604">
        <ele>678.5</ele>
        <time>2015-07-12T08:51:05.000Z</time>
      </trkpt>
      <trkpt lat="45.66098" lon="4.42594">
        <ele>678.6</ele>
        <time>2015-07-12T08:51:11.000Z</time>
      </trkpt>
      <trkpt lat="45.6608" lon="4.42585">
        <ele>678.2</ele>
        <time>2015-07-12T08:51:17.000Z</time>
      </trkpt>
      <trkpt lat="45.66063" lon="4.42575">
        <ele>678.4</ele>
        <time>2015-07-12T08:51:23.000Z</time>
      </trkpt>
      <trkpt lat="45.66061" lon="4.42572">
        <ele>678.4</ele>
        <time>2015-07-12T08:51:24.000Z</time>
      </trkpt>
      <trkpt lat="45.66061" lon="4.42554">
        <ele>677.7</ele>
        <time>2015-07-12T08:51:28.000Z</time>
      </trkpt>
      <trkpt lat="45.66067" lon="4.42525">
        <ele>676.9</ele>
        <time>2015-07-12T08:51:33.000Z</time>
      </trkpt>
      <trkpt lat="45.66072" lon="4.42498">
        <ele>675.9</ele>
        <time>2015-07-12T08:51:37.000Z</time>
      </trkpt>
      <trkpt lat="45.66078" lon="4.42466">
        <ele>674</ele>
        <time>2015-07-12T08:51:41.000Z</time>
      </trkpt>
      <trkpt lat="45.66083" lon="4.4244">
        <ele>672.7</ele>
        <time>2015-07-12T08:51:44.000Z</time>
      </trkpt>
      <trkpt lat="45.66087" lon="4.42411">
        <ele>670.6</ele>
        <time>2015-07-12T08:51:47.000Z</time>
      </trkpt>
      <trkpt lat="45.66093" lon="4.42381">
        <ele>668.7</ele>
        <time>2015-07-12T08:51:50.000Z</time>
      </trkpt>
      <trkpt lat="45.66098" lon="4.4235">
        <ele>666.1</ele>
        <time>2015-07-12T08:51:53.000Z</time>
      </trkpt>
      <trkpt lat="45.66104" lon="4.42316">
        <ele>663.3</ele>
        <time>2015-07-12T08:51:56.000Z</time>
      </trkpt>
      <trkpt lat="45.66106" lon="4.42304">
        <ele>662.3</ele>
        <time>2015-07-12T08:51:57.000Z</time>
      </trkpt>
      <trkpt lat="45.66114" lon="4.4227">
        <ele>659.3</ele>
        <time>2015-07-12T08:52:00.000Z</time>
      </trkpt>
      <trkpt lat="45.66115" lon="4.42259">
        <ele>658.4</ele>
        <time>2015-07-12T08:52:01.000Z</time>
      </trkpt>
      <trkpt lat="45.6612" lon="4.42231">
        <ele>656</ele>
        <time>2015-07-12T08:52:04.000Z</time>
      </trkpt>
      <trkpt lat="45.66123" lon="4.42216">
        <ele>654.7</ele>
        <time>2015-07-12T08:52:06.000Z</time>
      </trkpt>
      <trkpt lat="45.66125" lon="4.422">
        <ele>653.4</ele>
        <time>2015-07-12T08:52:09.000Z</time>
      </trkpt>
      <trkpt lat="45.66113" lon="4.4218">
        <ele>652.4</ele>
        <time>2015-07-12T08:52:16.000Z</time>
      </trkpt>
      <trkpt lat="45.66109" lon="4.42177">
        <ele>652.3</ele>
        <time>2015-07-12T08:52:17.000Z</time>
      </trkpt>
      <trkpt lat="45.6609" lon="4.42166">
        <ele>652.4</ele>
        <time>2015-07-12T08:52:22.000Z</time>
      </trkpt>
      <trkpt lat="45.66072" lon="4.42154">
        <ele>652.7</ele>
        <time>2015-07-12T08:52:28.000Z</time>
      </trkpt>
      <trkpt lat="45.66057" lon="4.42136">
        <ele>651.7</ele>
        <time>2015-07-12T08:52:32.000Z</time>
      </trkpt>
      <trkpt lat="45.6604" lon="4.42118">
        <ele>650.7</ele>
        <time>2015-07-12T08:52:36.000Z</time>
      </trkpt>
      <trkpt lat="45.66033" lon="4.4211">
        <ele>650.5</ele>
        <time>2015-07-12T08:52:38.000Z</time>
      </trkpt>
      <trkpt lat="45.66035" lon="4.42084">
        <ele>647.8</ele>
        <time>2015-07-12T08:52:42.000Z</time>
      </trkpt>
      <trkpt lat="45.66037" lon="4.42077">
        <ele>647.1</ele>
        <time>2015-07-12T08:52:43.000Z</time>
      </trkpt>
      <trkpt lat="45.66046" lon="4.42048">
        <ele>644</ele>
        <time>2015-07-12T08:52:46.000Z</time>
      </trkpt>
      <trkpt lat="45.66056" lon="4.42016">
        <ele>641.1</ele>
        <time>2015-07-12T08:52:49.000Z</time>
      </trkpt>
      <trkpt lat="45.66066" lon="4.41981">
        <ele>637.8</ele>
        <time>2015-07-12T08:52:52.000Z</time>
      </trkpt>
      <trkpt lat="45.6607" lon="4.4197">
        <ele>636.9</ele>
        <time>2015-07-12T08:52:53.000Z</time>
      </trkpt>
      <trkpt lat="45.66086" lon="4.41942">
        <ele>636</ele>
        <time>2015-07-12T08:52:56.000Z</time>
      </trkpt>
      <trkpt lat="45.6609" lon="4.41932">
        <ele>635.9</ele>
        <time>2015-07-12T08:52:57.000Z</time>
      </trkpt>
      <trkpt lat="45.66096" lon="4.41901">
        <ele>635.6</ele>
        <time>2015-07-12T08:53:00.000Z</time>
      </trkpt>
      <trkpt lat="45.66098" lon="4.41881">
        <ele>635.4</ele>
        <time>2015-07-12T08:53:02.000Z</time>
      </trkpt>
      <trkpt lat="45.66098" lon="4.41855">
        <ele>635.2</ele>
        <time>2015-07-12T08:53:05.000Z</time>
      </trkpt>
      <trkpt lat="45.66099" lon="4.41826">
        <ele>635.6</ele>
        <time>2015-07-12T08:53:09.000Z</time>
      </trkpt>
      <trkpt lat="45.661" lon="4.41819">
        <ele>635.5</ele>
        <time>2015-07-12T08:53:10.000Z</time>
      </trkpt>
      <trkpt lat="45.66101" lon="4.41812">
        <ele>635.4</ele>
        <time>2015-07-12T08:53:11.000Z</time>
      </trkpt>
      <trkpt lat="45.66109" lon="4.41786">
        <ele>635.2</ele>
        <time>2015-07-12T08:53:15.000Z</time>
      </trkpt>
      <trkpt lat="45.66119" lon="4.41759">
        <ele>633.7</ele>
        <time>2015-07-12T08:53:19.000Z</time>
      </trkpt>
      <trkpt lat="45.6613" lon="4.41734">
        <ele>632.4</ele>
        <time>2015-07-12T08:53:23.000Z</time>
      </trkpt>
      <trkpt lat="45.66133" lon="4.4173">
        <ele>632.3</ele>
        <time>2015-07-12T08:53:24.000Z</time>
      </trkpt>
      <trkpt lat="45.66155" lon="4.41728">
        <ele>631.2</ele>
        <time>2015-07-12T08:53:28.000Z</time>
      </trkpt>
      <trkpt lat="45.6616" lon="4.41729">
        <ele>630.9</ele>
        <time>2015-07-12T08:53:29.000Z</time>
      </trkpt>
      <trkpt lat="45.66183" lon="4.41729">
        <ele>628.7</ele>
        <time>2015-07-12T08:53:33.000Z</time>
      </trkpt>
      <trkpt lat="45.6619" lon="4.41728">
        <ele>627.9</ele>
        <time>2015-07-12T08:53:34.000Z</time>
      </trkpt>
      <trkpt lat="45.66211" lon="4.41725">
        <ele>624.4</ele>
        <time>2015-07-12T08:53:37.000Z</time>
      </trkpt>
      <trkpt lat="45.66232" lon="4.41724">
        <ele>620.5</ele>
        <time>2015-07-12T08:53:40.000Z</time>
      </trkpt>
      <trkpt lat="45.66239" lon="4.41725">
        <ele>619.5</ele>
        <time>2015-07-12T08:53:41.000Z</time>
      </trkpt>
      <trkpt lat="45.6626" lon="4.4173">
        <ele>617</ele>
        <time>2015-07-12T08:53:44.000Z</time>
      </trkpt>
      <trkpt lat="45.66281" lon="4.4173">
        <ele>613.9</ele>
        <time>2015-07-12T08:53:47.000Z</time>
      </trkpt>
      <trkpt lat="45.66306" lon="4.41727">
        <ele>609.1</ele>
        <time>2015-07-12T08:53:50.000Z</time>
      </trkpt>
      <trkpt lat="45.66331" lon="4.41732">
        <ele>606.1</ele>
        <time>2015-07-12T08:53:53.000Z</time>
      </trkpt>
      <trkpt lat="45.66354" lon="4.41734">
        <ele>604.9</ele>
        <time>2015-07-12T08:53:56.000Z</time>
      </trkpt>
      <trkpt lat="45.66377" lon="4.41726">
        <ele>602</ele>
        <time>2015-07-12T08:54:00.000Z</time>
      </trkpt>
      <trkpt lat="45.6639" lon="4.41719">
        <ele>600.2</ele>
        <time>2015-07-12T08:54:02.000Z</time>
      </trkpt>
      <trkpt lat="45.6641" lon="4.41706">
        <ele>597.2</ele>
        <time>2015-07-12T08:54:05.000Z</time>
      </trkpt>
      <trkpt lat="45.66428" lon="4.41692">
        <ele>595.8</ele>
        <time>2015-07-12T08:54:08.000Z</time>
      </trkpt>
      <trkpt lat="45.66432" lon="4.41686">
        <ele>595.3</ele>
        <time>2015-07-12T08:54:09.000Z</time>
      </trkpt>
      <trkpt lat="45.66443" lon="4.41667">
        <ele>593</ele>
        <time>2015-07-12T08:54:12.000Z</time>
      </trkpt>
      <trkpt lat="45.66453" lon="4.41641">
        <ele>587.5</ele>
        <time>2015-07-12T08:54:16.000Z</time>
      </trkpt>
      <trkpt lat="45.66456" lon="4.41636">
        <ele>586.6</ele>
        <time>2015-07-12T08:54:17.000Z</time>
      </trkpt>
      <trkpt lat="45.66469" lon="4.41618">
        <ele>584</ele>
        <time>2015-07-12T08:54:21.000Z</time>
      </trkpt>
      <trkpt lat="45.66484" lon="4.41603">
        <ele>580.1</ele>
        <time>2015-07-12T08:54:25.000Z</time>
      </trkpt>
      <trkpt lat="45.665" lon="4.41589">
        <ele>576</ele>
        <time>2015-07-12T08:54:28.000Z</time>
      </trkpt>
      <trkpt lat="45.66506" lon="4.41585">
        <ele>574.6</ele>
        <time>2015-07-12T08:54:29.000Z</time>
      </trkpt>
      <trkpt lat="45.66515" lon="4.41578">
        <ele>572.5</ele>
        <time>2015-07-12T08:54:31.000Z</time>
      </trkpt>
      <trkpt lat="45.66534" lon="4.41572">
        <ele>569.3</ele>
        <time>2015-07-12T08:54:35.000Z</time>
      </trkpt>
      <trkpt lat="45.66553" lon="4.41565">
        <ele>566</ele>
        <time>2015-07-12T08:54:39.000Z</time>
      </trkpt>
      <trkpt lat="45.66559" lon="4.41564">
        <ele>565.1</ele>
        <time>2015-07-12T08:54:40.000Z</time>
      </trkpt>
      <trkpt lat="45.66581" lon="4.41562">
        <ele>562.4</ele>
        <time>2015-07-12T08:54:43.000Z</time>
      </trkpt>
      <trkpt lat="45.66604" lon="4.41563">
        <ele>559.9</ele>
        <time>2015-07-12T08:54:46.000Z</time>
      </trkpt>
      <trkpt lat="45.66626" lon="4.41563">
        <ele>557.5</ele>
        <time>2015-07-12T08:54:49.000Z</time>
      </trkpt>
      <trkpt lat="45.66648" lon="4.4156">
        <ele>554.4</ele>
        <time>2015-07-12T08:54:52.000Z</time>
      </trkpt>
      <trkpt lat="45.66671" lon="4.41556">
        <ele>550.8</ele>
        <time>2015-07-12T08:54:55.000Z</time>
      </trkpt>
      <trkpt lat="45.66684" lon="4.41554">
        <ele>549.6</ele>
        <time>2015-07-12T08:54:57.000Z</time>
      </trkpt>
      <trkpt lat="45.66702" lon="4.41543">
        <ele>546.8</ele>
        <time>2015-07-12T08:55:00.000Z</time>
      </trkpt>
      <trkpt lat="45.66715" lon="4.41521">
        <ele>542.9</ele>
        <time>2015-07-12T08:55:03.000Z</time>
      </trkpt>
      <trkpt lat="45.66713" lon="4.41492">
        <ele>539.2</ele>
        <time>2015-07-12T08:55:07.000Z</time>
      </trkpt>
      <trkpt lat="45.66709" lon="4.41465">
        <ele>535.5</ele>
        <time>2015-07-12T08:55:10.000Z</time>
      </trkpt>
      <trkpt lat="45.66704" lon="4.41443">
        <ele>532.1</ele>
        <time>2015-07-12T08:55:13.000Z</time>
      </trkpt>
      <trkpt lat="45.66702" lon="4.4143">
        <ele>529.7</ele>
        <time>2015-07-12T08:55:15.000Z</time>
      </trkpt>
      <trkpt lat="45.66704" lon="4.41402">
        <ele>525.1</ele>
        <time>2015-07-12T08:55:19.000Z</time>
      </trkpt>
      <trkpt lat="45.6672" lon="4.41377">
        <ele>521.2</ele>
        <time>2015-07-12T08:55:23.000Z</time>
      </trkpt>
      <trkpt lat="45.66737" lon="4.41366">
        <ele>517.4</ele>
        <time>2015-07-12T08:55:26.000Z</time>
      </trkpt>
      <trkpt lat="45.66758" lon="4.41358">
        <ele>513.7</ele>
        <time>2015-07-12T08:55:30.000Z</time>
      </trkpt>
      <trkpt lat="45.66767" lon="4.41355">
        <ele>512.2</ele>
        <time>2015-07-12T08:55:32.000Z</time>
      </trkpt>
      <trkpt lat="45.66772" lon="4.41353">
        <ele>511.4</ele>
        <time>2015-07-12T08:55:33.000Z</time>
      </trkpt>
      <trkpt lat="45.66784" lon="4.41344">
        <ele>508.8</ele>
        <time>2015-07-12T08:55:36.000Z</time>
      </trkpt>
      <trkpt lat="45.66797" lon="4.41334">
        <ele>506</ele>
        <time>2015-07-12T08:55:39.000Z</time>
      </trkpt>
      <trkpt lat="45.66801" lon="4.4133">
        <ele>505.2</ele>
        <time>2015-07-12T08:55:40.000Z</time>
      </trkpt>
      <trkpt lat="45.66817" lon="4.4131">
        <ele>501.2</ele>
        <time>2015-07-12T08:55:45.000Z</time>
      </trkpt>
      <trkpt lat="45.66827" lon="4.41299">
        <ele>499.1</ele>
        <time>2015-07-12T08:55:48.000Z</time>
      </trkpt>
      <trkpt lat="45.66839" lon="4.41281">
        <ele>495.7</ele>
        <time>2015-07-12T08:55:51.000Z</time>
      </trkpt>
      <trkpt lat="45.66852" lon="4.41263">
        <ele>493.6</ele>
        <time>2015-07-12T08:55:54.000Z</time>
      </trkpt>
      <trkpt lat="45.66868" lon="4.41246">
        <ele>491.1</ele>
        <time>2015-07-12T08:55:58.000Z</time>
      </trkpt>
      <trkpt lat="45.66872" lon="4.41242">
        <ele>490.4</ele>
        <time>2015-07-12T08:55:59.000Z</time>
      </trkpt>
      <trkpt lat="45.66888" lon="4.41227">
        <ele>487.5</ele>
        <time>2015-07-12T08:56:02.000Z</time>
      </trkpt>
      <trkpt lat="45.66903" lon="4.4121">
        <ele>485.7</ele>
        <time>2015-07-12T08:56:05.000Z</time>
      </trkpt>
      <trkpt lat="45.66918" lon="4.41195">
        <ele>483.9</ele>
        <time>2015-07-12T08:56:08.000Z</time>
      </trkpt>
      <trkpt lat="45.66923" lon="4.41192">
        <ele>483.1</ele>
        <time>2015-07-12T08:56:09.000Z</time>
      </trkpt>
      <trkpt lat="45.66943" lon="4.41183">
        <ele>480.3</ele>
        <time>2015-07-12T08:56:13.000Z</time>
      </trkpt>
      <trkpt lat="45.66948" lon="4.41182">
        <ele>479.6</ele>
        <time>2015-07-12T08:56:14.000Z</time>
      </trkpt>
      <trkpt lat="45.66954" lon="4.41178">
        <ele>478.7</ele>
        <time>2015-07-12T08:56:15.000Z</time>
      </trkpt>
      <trkpt lat="45.6697" lon="4.41163">
        <ele>476.1</ele>
        <time>2015-07-12T08:56:19.000Z</time>
      </trkpt>
      <trkpt lat="45.66975" lon="4.41151">
        <ele>475.1</ele>
        <time>2015-07-12T08:56:24.000Z</time>
      </trkpt>
      <trkpt lat="45.66972" lon="4.41146">
        <ele>475.3</ele>
        <time>2015-07-12T08:56:45.000Z</time>
      </trkpt>
      <trkpt lat="45.66963" lon="4.41135">
        <ele>475.1</ele>
        <time>2015-07-12T08:56:50.000Z</time>
      </trkpt>
      <trkpt lat="45.66952" lon="4.41111">
        <ele>474.4</ele>
        <time>2015-07-12T08:56:56.000Z</time>
      </trkpt>
      <trkpt lat="45.66946" lon="4.41085">
        <ele>474.9</ele>
        <time>2015-07-12T08:57:01.000Z</time>
      </trkpt>
      <trkpt lat="45.66937" lon="4.41061">
        <ele>474.7</ele>
        <time>2015-07-12T08:57:06.000Z</time>
      </trkpt>
      <trkpt lat="45.66925" lon="4.4104">
        <ele>474.8</ele>
        <time>2015-07-12T08:57:11.000Z</time>
      </trkpt>
      <trkpt lat="45.66912" lon="4.41022">
        <ele>475.5</ele>
        <time>2015-07-12T08:57:16.000Z</time>
      </trkpt>
      <trkpt lat="45.66899" lon="4.41004">
        <ele>476.4</ele>
        <time>2015-07-12T08:57:21.000Z</time>
      </trkpt>
      <trkpt lat="45.66885" lon="4.40986">
        <ele>477.4</ele>
        <time>2015-07-12T08:57:26.000Z</time>
      </trkpt>
      <trkpt lat="45.6687" lon="4.40969">
        <ele>478.2</ele>
        <time>2015-07-12T08:57:31.000Z</time>
      </trkpt>
      <trkpt lat="45.66857" lon="4.4095">
        <ele>478.5</ele>
        <time>2015-07-12T08:57:36.000Z</time>
      </trkpt>
      <trkpt lat="45.66846" lon="4.40929">
        <ele>478.5</ele>
        <time>2015-07-12T08:57:41.000Z</time>
      </trkpt>
      <trkpt lat="45.66831" lon="4.40909">
        <ele>478.9</ele>
        <time>2015-07-12T08:57:47.000Z</time>
      </trkpt>
      <trkpt lat="45.66811" lon="4.40906">
        <ele>480.7</ele>
        <time>2015-07-12T08:57:54.000Z</time>
      </trkpt>
      <trkpt lat="45.66792" lon="4.40909">
        <ele>482.4</ele>
        <time>2015-07-12T08:58:01.000Z</time>
      </trkpt>
      <trkpt lat="45.66773" lon="4.40907">
        <ele>483.6</ele>
        <time>2015-07-12T08:58:07.000Z</time>
      </trkpt>
      <trkpt lat="45.66755" lon="4.40904">
        <ele>484.8</ele>
        <time>2015-07-12T08:58:13.000Z</time>
      </trkpt>
      <trkpt lat="45.66737" lon="4.40896">
        <ele>485.5</ele>
        <time>2015-07-12T08:58:19.000Z</time>
      </trkpt>
      <trkpt lat="45.6672" lon="4.40885">
        <ele>486.4</ele>
        <time>2015-07-12T08:58:25.000Z</time>
      </trkpt>
      <trkpt lat="45.66701" lon="4.40874">
        <ele>488.2</ele>
        <time>2015-07-12T08:58:31.000Z</time>
      </trkpt>
      <trkpt lat="45.66683" lon="4.40862">
        <ele>488.9</ele>
        <time>2015-07-12T08:58:37.000Z</time>
      </trkpt>
      <trkpt lat="45.66668" lon="4.40846">
        <ele>488.8</ele>
        <time>2015-07-12T08:58:42.000Z</time>
      </trkpt>
      <trkpt lat="45.66662" lon="4.40819">
        <ele>489.2</ele>
        <time>2015-07-12T08:58:48.000Z</time>
      </trkpt>
      <trkpt lat="45.66663" lon="4.40788">
        <ele>488.9</ele>
        <time>2015-07-12T08:58:54.000Z</time>
      </trkpt>
      <trkpt lat="45.66662" lon="4.40761">
        <ele>488</ele>
        <time>2015-07-12T08:58:58.000Z</time>
      </trkpt>
      <trkpt lat="45.66651" lon="4.40734">
        <ele>487.2</ele>
        <time>2015-07-12T08:59:02.000Z</time>
      </trkpt>
      <trkpt lat="45.66639" lon="4.40707">
        <ele>485.9</ele>
        <time>2015-07-12T08:59:06.000Z</time>
      </trkpt>
      <trkpt lat="45.66637" lon="4.40699">
        <ele>485.5</ele>
        <time>2015-07-12T08:59:07.000Z</time>
      </trkpt>
      <trkpt lat="45.66631" lon="4.40671">
        <ele>484.5</ele>
        <time>2015-07-12T08:59:10.000Z</time>
      </trkpt>
      <trkpt lat="45.66628" lon="4.40662">
        <ele>484</ele>
        <time>2015-07-12T08:59:11.000Z</time>
      </trkpt>
      <trkpt lat="45.66617" lon="4.40637">
        <ele>483.2</ele>
        <time>2015-07-12T08:59:14.000Z</time>
      </trkpt>
      <trkpt lat="45.66606" lon="4.40614">
        <ele>482.7</ele>
        <time>2015-07-12T08:59:17.000Z</time>
      </trkpt>
      <trkpt lat="45.66595" lon="4.40593">
        <ele>483.1</ele>
        <time>2015-07-12T08:59:20.000Z</time>
      </trkpt>
      <trkpt lat="45.6658" lon="4.4057">
        <ele>483.8</ele>
        <time>2015-07-12T08:59:24.000Z</time>
      </trkpt>
      <trkpt lat="45.66565" lon="4.40547">
        <ele>483.9</ele>
        <time>2015-07-12T08:59:28.000Z</time>
      </trkpt>
      <trkpt lat="45.66551" lon="4.40526">
        <ele>484.6</ele>
        <time>2015-07-12T08:59:32.000Z</time>
      </trkpt>
      <trkpt lat="45.66541" lon="4.40511">
        <ele>485</ele>
        <time>2015-07-12T08:59:35.000Z</time>
      </trkpt>
      <trkpt lat="45.66526" lon="4.40488">
        <ele>486</ele>
        <time>2015-07-12T08:59:40.000Z</time>
      </trkpt>
      <trkpt lat="45.66511" lon="4.40466">
        <ele>487.7</ele>
        <time>2015-07-12T08:59:45.000Z</time>
      </trkpt>
      <trkpt lat="45.66498" lon="4.40444">
        <ele>488.3</ele>
        <time>2015-07-12T08:59:50.000Z</time>
      </trkpt>
      <trkpt lat="45.66489" lon="4.40425">
        <ele>489.6</ele>
        <time>2015-07-12T08:59:54.000Z</time>
      </trkpt>
      <trkpt lat="45.66482" lon="4.40397">
        <ele>490</ele>
        <time>2015-07-12T08:59:59.000Z</time>
      </trkpt>
      <trkpt lat="45.6648" lon="4.40383">
        <ele>490.8</ele>
        <time>2015-07-12T09:00:02.000Z</time>
      </trkpt>
      <trkpt lat="45.66475" lon="4.40355">
        <ele>492.9</ele>
        <time>2015-07-12T09:00:08.000Z</time>
      </trkpt>
      <trkpt lat="45.66473" lon="4.40342">
        <ele>493.6</ele>
        <time>2015-07-12T09:00:11.000Z</time>
      </trkpt>
      <trkpt lat="45.66468" lon="4.40325">
        <ele>494.8</ele>
        <time>2015-07-12T09:00:15.000Z</time>
      </trkpt>
      <trkpt lat="45.66461" lon="4.40298">
        <ele>495.7</ele>
        <time>2015-07-12T09:00:21.000Z</time>
      </trkpt>
      <trkpt lat="45.6646" lon="4.40294">
        <ele>495.7</ele>
        <time>2015-07-12T09:00:22.000Z</time>
      </trkpt>
      <trkpt lat="45.66454" lon="4.40265">
        <ele>495.8</ele>
        <time>2015-07-12T09:00:29.000Z</time>
      </trkpt>
      <trkpt lat="45.66447" lon="4.40237">
        <ele>496.5</ele>
        <time>2015-07-12T09:00:35.000Z</time>
      </trkpt>
      <trkpt lat="45.66439" lon="4.4021">
        <ele>497.4</ele>
        <time>2015-07-12T09:00:41.000Z</time>
      </trkpt>
      <trkpt lat="45.66429" lon="4.40188">
        <ele>497.9</ele>
        <time>2015-07-12T09:00:47.000Z</time>
      </trkpt>
      <trkpt lat="45.66412" lon="4.40178">
        <ele>500.1</ele>
        <time>2015-07-12T09:00:54.000Z</time>
      </trkpt>
      <trkpt lat="45.66394" lon="4.4017">
        <ele>502.3</ele>
        <time>2015-07-12T09:01:02.000Z</time>
      </trkpt>
      <trkpt lat="45.66377" lon="4.40162">
        <ele>504</ele>
        <time>2015-07-12T09:01:10.000Z</time>
      </trkpt>
      <trkpt lat="45.66359" lon="4.40155">
        <ele>505.4</ele>
        <time>2015-07-12T09:01:18.000Z</time>
      </trkpt>
      <trkpt lat="45.66341" lon="4.40144">
        <ele>506.5</ele>
        <time>2015-07-12T09:01:27.000Z</time>
      </trkpt>
      <trkpt lat="45.66321" lon="4.40138">
        <ele>508.7</ele>
        <time>2015-07-12T09:01:36.000Z</time>
      </trkpt>
      <trkpt lat="45.66302" lon="4.40135">
        <ele>510.7</ele>
        <time>2015-07-12T09:01:45.000Z</time>
      </trkpt>
      <trkpt lat="45.66285" lon="4.40127">
        <ele>510.5</ele>
        <time>2015-07-12T09:01:52.000Z</time>
      </trkpt>
      <trkpt lat="45.66265" lon="4.40109">
        <ele>509.1</ele>
        <time>2015-07-12T09:01:57.000Z</time>
      </trkpt>
      <trkpt lat="45.66245" lon="4.40091">
        <ele>507.5</ele>
        <time>2015-07-12T09:02:01.000Z</time>
      </trkpt>
      <trkpt lat="45.66229" lon="4.40076">
        <ele>505.9</ele>
        <time>2015-07-12T09:02:04.000Z</time>
      </trkpt>
      <trkpt lat="45.66215" lon="4.4006">
        <ele>504.7</ele>
        <time>2015-07-12T09:02:07.000Z</time>
      </trkpt>
      <trkpt lat="45.66211" lon="4.40055">
        <ele>504.4</ele>
        <time>2015-07-12T09:02:08.000Z</time>
      </trkpt>
      <trkpt lat="45.66219" lon="4.40028">
        <ele>502.7</ele>
        <time>2015-07-12T09:02:13.000Z</time>
      </trkpt>
      <trkpt lat="45.66241" lon="4.40018">
        <ele>501.4</ele>
        <time>2015-07-12T09:02:16.000Z</time>
      </trkpt>
      <trkpt lat="45.66248" lon="4.40015">
        <ele>500.8</ele>
        <time>2015-07-12T09:02:17.000Z</time>
      </trkpt>
      <trkpt lat="45.66267" lon="4.40002">
        <ele>498.4</ele>
        <time>2015-07-12T09:02:20.000Z</time>
      </trkpt>
      <trkpt lat="45.66276" lon="4.39994">
        <ele>497.3</ele>
        <time>2015-07-12T09:02:22.000Z</time>
      </trkpt>
      <trkpt lat="45.66286" lon="4.39982">
        <ele>497.4</ele>
        <time>2015-07-12T09:02:25.000Z</time>
      </trkpt>
      <trkpt lat="45.66295" lon="4.39955">
        <ele>496.4</ele>
        <time>2015-07-12T09:02:30.000Z</time>
      </trkpt>
      <trkpt lat="45.66296" lon="4.39952">
        <ele>496.1</ele>
        <time>2015-07-12T09:02:31.000Z</time>
      </trkpt>
      <trkpt lat="45.66299" lon="4.39925">
        <ele>497.5</ele>
        <time>2015-07-12T09:02:39.000Z</time>
      </trkpt>
      <trkpt lat="45.663" lon="4.39898">
        <ele>500</ele>
        <time>2015-07-12T09:02:47.000Z</time>
      </trkpt>
      <trkpt lat="45.66301" lon="4.39872">
        <ele>502.3</ele>
        <time>2015-07-12T09:02:55.000Z</time>
      </trkpt>
      <trkpt lat="45.66293" lon="4.39849">
        <ele>504.6</ele>
        <time>2015-07-12T09:03:04.000Z</time>
      </trkpt>
      <trkpt lat="45.66281" lon="4.3983">
        <ele>506.8</ele>
        <time>2015-07-12T09:03:14.000Z</time>
      </trkpt>
      <trkpt lat="45.66265" lon="4.39815">
        <ele>509.2</ele>
        <time>2015-07-12T09:03:25.000Z</time>
      </trkpt>
      <trkpt lat="45.66249" lon="4.398">
        <ele>511.6</ele>
        <time>2015-07-12T09:03:34.000Z</time>
      </trkpt>
      <trkpt lat="45.66234" lon="4.39782">
        <ele>512.4</ele>
        <time>2015-07-12T09:03:42.000Z</time>
      </trkpt>
      <trkpt lat="45.6622" lon="4.39765">
        <ele>512.5</ele>
        <time>2015-07-12T09:03:48.000Z</time>
      </trkpt>
      <trkpt lat="45.66205" lon="4.39746">
        <ele>512.6</ele>
        <time>2015-07-12T09:03:54.000Z</time>
      </trkpt>
      <trkpt lat="45.66188" lon="4.39732">
        <ele>513.3</ele>
        <time>2015-07-12T09:04:00.000Z</time>
      </trkpt>
      <trkpt lat="45.66169" lon="4.39722">
        <ele>514.7</ele>
        <time>2015-07-12T09:04:07.000Z</time>
      </trkpt>
      <trkpt lat="45.6615" lon="4.39713">
        <ele>515</ele>
        <time>2015-07-12T09:04:13.000Z</time>
      </trkpt>
      <trkpt lat="45.66132" lon="4.39701">
        <ele>515.2</ele>
        <time>2015-07-12T09:04:19.000Z</time>
      </trkpt>
      <trkpt lat="45.66123" lon="4.39694">
        <ele>515.2</ele>
        <time>2015-07-12T09:04:22.000Z</time>
      </trkpt>
      <trkpt lat="45.66106" lon="4.3968">
        <ele>515.1</ele>
        <time>2015-07-12T09:04:27.000Z</time>
      </trkpt>
      <trkpt lat="45.66087" lon="4.39665">
        <ele>514.3</ele>
        <time>2015-07-12T09:04:32.000Z</time>
      </trkpt>
      <trkpt lat="45.66069" lon="4.3965">
        <ele>514.8</ele>
        <time>2015-07-12T09:04:37.000Z</time>
      </trkpt>
      <trkpt lat="45.66049" lon="4.39639">
        <ele>515.9</ele>
        <time>2015-07-12T09:04:44.000Z</time>
      </trkpt>
      <trkpt lat="45.66042" lon="4.39617">
        <ele>516.9</ele>
        <time>2015-07-12T09:04:50.000Z</time>
      </trkpt>
      <trkpt lat="45.66051" lon="4.39593">
        <ele>518.8</ele>
        <time>2015-07-12T09:04:56.000Z</time>
      </trkpt>
      <trkpt lat="45.66052" lon="4.39589">
        <ele>519.3</ele>
        <time>2015-07-12T09:04:57.000Z</time>
      </trkpt>
      <trkpt lat="45.66049" lon="4.39563">
        <ele>522.1</ele>
        <time>2015-07-12T09:05:04.000Z</time>
      </trkpt>
      <trkpt lat="45.6604" lon="4.3954">
        <ele>523.4</ele>
        <time>2015-07-12T09:05:12.000Z</time>
      </trkpt>
      <trkpt lat="45.66033" lon="4.39513">
        <ele>524.3</ele>
        <time>2015-07-12T09:05:21.000Z</time>
      </trkpt>
      <trkpt lat="45.66021" lon="4.39492">
        <ele>526.1</ele>
        <time>2015-07-12T09:05:30.000Z</time>
      </trkpt>
      <trkpt lat="45.66004" lon="4.39481">
        <ele>528.9</ele>
        <time>2015-07-12T09:05:41.000Z</time>
      </trkpt>
      <trkpt lat="45.65988" lon="4.39478">
        <ele>531.5</ele>
        <time>2015-07-12T09:05:51.000Z</time>
      </trkpt>
      <trkpt lat="45.65982" lon="4.39475">
        <ele>532.5</ele>
        <time>2015-07-12T09:05:56.000Z</time>
      </trkpt>
      <trkpt lat="45.65964" lon="4.39464">
        <ele>535.6</ele>
        <time>2015-07-12T09:06:08.000Z</time>
      </trkpt>
      <trkpt lat="45.65949" lon="4.39449">
        <ele>537.6</ele>
        <time>2015-07-12T09:06:19.000Z</time>
      </trkpt>
      <trkpt lat="45.65931" lon="4.39437">
        <ele>539</ele>
        <time>2015-07-12T09:06:29.000Z</time>
      </trkpt>
      <trkpt lat="45.65912" lon="4.39428">
        <ele>540.2</ele>
        <time>2015-07-12T09:06:38.000Z</time>
      </trkpt>
      <trkpt lat="45.65894" lon="4.39422">
        <ele>541</ele>
        <time>2015-07-12T09:06:47.000Z</time>
      </trkpt>
      <trkpt lat="45.65887" lon="4.39421">
        <ele>541.3</ele>
        <time>2015-07-12T09:06:50.000Z</time>
      </trkpt>
      <trkpt lat="45.65888" lon="4.394">
        <ele>539.8</ele>
        <time>2015-07-12T09:06:55.000Z</time>
      </trkpt>
      <trkpt lat="45.65894" lon="4.39371">
        <ele>537.3</ele>
        <time>2015-07-12T09:06:59.000Z</time>
      </trkpt>
      <trkpt lat="45.65901" lon="4.3934">
        <ele>534.2</ele>
        <time>2015-07-12T09:07:02.000Z</time>
      </trkpt>
      <trkpt lat="45.65909" lon="4.39308">
        <ele>531.7</ele>
        <time>2015-07-12T09:07:05.000Z</time>
      </trkpt>
      <trkpt lat="45.65917" lon="4.39279">
        <ele>529.1</ele>
        <time>2015-07-12T09:07:08.000Z</time>
      </trkpt>
      <trkpt lat="45.65921" lon="4.3927">
        <ele>528.2</ele>
        <time>2015-07-12T09:07:09.000Z</time>
      </trkpt>
      <trkpt lat="45.6593" lon="4.39252">
        <ele>526.3</ele>
        <time>2015-07-12T09:07:11.000Z</time>
      </trkpt>
      <trkpt lat="45.65938" lon="4.3922">
        <ele>523.1</ele>
        <time>2015-07-12T09:07:14.000Z</time>
      </trkpt>
      <trkpt lat="45.65941" lon="4.39199">
        <ele>520.9</ele>
        <time>2015-07-12T09:07:16.000Z</time>
      </trkpt>
      <trkpt lat="45.65943" lon="4.39161">
        <ele>517.8</ele>
        <time>2015-07-12T09:07:19.000Z</time>
      </trkpt>
      <trkpt lat="45.6594" lon="4.39124">
        <ele>515.4</ele>
        <time>2015-07-12T09:07:22.000Z</time>
      </trkpt>
      <trkpt lat="45.65938" lon="4.39111">
        <ele>514.7</ele>
        <time>2015-07-12T09:07:23.000Z</time>
      </trkpt>
      <trkpt lat="45.65932" lon="4.39086">
        <ele>513.2</ele>
        <time>2015-07-12T09:07:25.000Z</time>
      </trkpt>
      <trkpt lat="45.65924" lon="4.39061">
        <ele>511.6</ele>
        <time>2015-07-12T09:07:27.000Z</time>
      </trkpt>
      <trkpt lat="45.65918" lon="4.39035">
        <ele>509.7</ele>
        <time>2015-07-12T09:07:29.000Z</time>
      </trkpt>
      <trkpt lat="45.6591" lon="4.39009">
        <ele>507.3</ele>
        <time>2015-07-12T09:07:31.000Z</time>
      </trkpt>
      <trkpt lat="45.65898" lon="4.38976">
        <ele>503.3</ele>
        <time>2015-07-12T09:07:34.000Z</time>
      </trkpt>
      <trkpt lat="45.65887" lon="4.38945">
        <ele>498.1</ele>
        <time>2015-07-12T09:07:37.000Z</time>
      </trkpt>
      <trkpt lat="45.65884" lon="4.38934">
        <ele>497.4</ele>
        <time>2015-07-12T09:07:38.000Z</time>
      </trkpt>
      <trkpt lat="45.65883" lon="4.38899">
        <ele>496</ele>
        <time>2015-07-12T09:07:41.000Z</time>
      </trkpt>
      <trkpt lat="45.65889" lon="4.3887">
        <ele>495.6</ele>
        <time>2015-07-12T09:07:44.000Z</time>
      </trkpt>
      <trkpt lat="45.65907" lon="4.38861">
        <ele>495.4</ele>
        <time>2015-07-12T09:07:47.000Z</time>
      </trkpt>
      <trkpt lat="45.65923" lon="4.38856">
        <ele>495.2</ele>
        <time>2015-07-12T09:07:50.000Z</time>
      </trkpt>
      <trkpt lat="45.65945" lon="4.38849">
        <ele>494.3</ele>
        <time>2015-07-12T09:07:54.000Z</time>
      </trkpt>
      <trkpt lat="45.65955" lon="4.38846">
        <ele>493.7</ele>
        <time>2015-07-12T09:07:56.000Z</time>
      </trkpt>
      <trkpt lat="45.6597" lon="4.38828">
        <ele>493.4</ele>
        <time>2015-07-12T09:08:01.000Z</time>
      </trkpt>
      <trkpt lat="45.65956" lon="4.38817">
        <ele>495.4</ele>
        <time>2015-07-12T09:08:07.000Z</time>
      </trkpt>
      <trkpt lat="45.65939" lon="4.38807">
        <ele>497.6</ele>
        <time>2015-07-12T09:08:15.000Z</time>
      </trkpt>
      <trkpt lat="45.65922" lon="4.38797">
        <ele>499.7</ele>
        <time>2015-07-12T09:08:24.000Z</time>
      </trkpt>
      <trkpt lat="45.65921" lon="4.38796">
        <ele>499.9</ele>
        <time>2015-07-12T09:08:25.000Z</time>
      </trkpt>
      <trkpt lat="45.65904" lon="4.38783">
        <ele>502.3</ele>
        <time>2015-07-12T09:08:36.000Z</time>
      </trkpt>
      <trkpt lat="45.65888" lon="4.38767">
        <ele>504.9</ele>
        <time>2015-07-12T09:08:48.000Z</time>
      </trkpt>
      <trkpt lat="45.65877" lon="4.38755">
        <ele>507.1</ele>
        <time>2015-07-12T09:08:57.000Z</time>
      </trkpt>
      <trkpt lat="45.65872" lon="4.38748">
        <ele>508</ele>
        <time>2015-07-12T09:09:01.000Z</time>
      </trkpt>
      <trkpt lat="45.65875" lon="4.38738">
        <ele>507.9</ele>
        <time>2015-07-12T09:09:05.000Z</time>
      </trkpt>
      <trkpt lat="45.65889" lon="4.38716">
        <ele>506</ele>
        <time>2015-07-12T09:09:10.000Z</time>
      </trkpt>
      <trkpt lat="45.65894" lon="4.38696">
        <ele>504.9</ele>
        <time>2015-07-12T09:09:13.000Z</time>
      </trkpt>
      <trkpt lat="45.65897" lon="4.38664">
        <ele>502.9</ele>
        <time>2015-07-12T09:09:17.000Z</time>
      </trkpt>
      <trkpt lat="45.65896" lon="4.38656">
        <ele>502.3</ele>
        <time>2015-07-12T09:09:18.000Z</time>
      </trkpt>
      <trkpt lat="45.65895" lon="4.38636">
        <ele>501.2</ele>
        <time>2015-07-12T09:09:20.000Z</time>
      </trkpt>
      <trkpt lat="45.6589" lon="4.38606">
        <ele>500.4</ele>
        <time>2015-07-12T09:09:23.000Z</time>
      </trkpt>
      <trkpt lat="45.65888" lon="4.38594">
        <ele>500.1</ele>
        <time>2015-07-12T09:09:24.000Z</time>
      </trkpt>
      <trkpt lat="45.65883" lon="4.38559">
        <ele>497.7</ele>
        <time>2015-07-12T09:09:27.000Z</time>
      </trkpt>
      <trkpt lat="45.65882" lon="4.38547">
        <ele>497.1</ele>
        <time>2015-07-12T09:09:28.000Z</time>
      </trkpt>
      <trkpt lat="45.65877" lon="4.38501">
        <ele>494.2</ele>
        <time>2015-07-12T09:09:32.000Z</time>
      </trkpt>
      <trkpt lat="45.65875" lon="4.38491">
        <ele>494.2</ele>
        <time>2015-07-12T09:09:33.000Z</time>
      </trkpt>
      <trkpt lat="45.65866" lon="4.38469">
        <ele>495</ele>
        <time>2015-07-12T09:09:40.000Z</time>
      </trkpt>
      <trkpt lat="45.65858" lon="4.38469">
        <ele>496.3</ele>
        <time>2015-07-12T09:09:47.000Z</time>
      </trkpt>
      <trkpt lat="45.65848" lon="4.38468">
        <ele>498.1</ele>
        <time>2015-07-12T09:09:53.000Z</time>
      </trkpt>
      <trkpt lat="45.6584" lon="4.38465">
        <ele>499.2</ele>
        <time>2015-07-12T09:09:58.000Z</time>
      </trkpt>
      <trkpt lat="45.65824" lon="4.38454">
        <ele>502</ele>
        <time>2015-07-12T09:10:09.000Z</time>
      </trkpt>
      <trkpt lat="45.65819" lon="4.38447">
        <ele>502.8</ele>
        <time>2015-07-12T09:10:15.000Z</time>
      </trkpt>
      <trkpt lat="45.65808" lon="4.38435">
        <ele>504.6</ele>
        <time>2015-07-12T09:10:24.000Z</time>
      </trkpt>
      <trkpt lat="45.65802" lon="4.38428">
        <ele>505.8</ele>
        <time>2015-07-12T09:10:29.000Z</time>
      </trkpt>
      <trkpt lat="45.658" lon="4.38422">
        <ele>506.3</ele>
        <time>2015-07-12T09:10:34.000Z</time>
      </trkpt>
      <trkpt lat="45.65796" lon="4.38418">
        <ele>507.1</ele>
        <time>2015-07-12T09:10:38.000Z</time>
      </trkpt>
      <trkpt lat="45.65788" lon="4.3841">
        <ele>509</ele>
        <time>2015-07-12T09:10:47.000Z</time>
      </trkpt>
      <trkpt lat="45.65785" lon="4.38406">
        <ele>509.2</ele>
        <time>2015-07-12T09:10:51.000Z</time>
      </trkpt>
      <trkpt lat="45.65772" lon="4.38393">
        <ele>511.4</ele>
        <time>2015-07-12T09:11:03.000Z</time>
      </trkpt>
      <trkpt lat="45.6576" lon="4.38379">
        <ele>513</ele>
        <time>2015-07-12T09:11:14.000Z</time>
      </trkpt>
      <trkpt lat="45.65754" lon="4.38364">
        <ele>512.5</ele>
        <time>2015-07-12T09:11:24.000Z</time>
      </trkpt>
      <trkpt lat="45.65742" lon="4.38344">
        <ele>514.1</ele>
        <time>2015-07-12T09:11:40.000Z</time>
      </trkpt>
      <trkpt lat="45.6574" lon="4.3834">
        <ele>514.3</ele>
        <time>2015-07-12T09:11:42.000Z</time>
      </trkpt>
      <trkpt lat="45.6573" lon="4.38319">
        <ele>516.1</ele>
        <time>2015-07-12T09:11:53.000Z</time>
      </trkpt>
      <trkpt lat="45.65715" lon="4.38315">
        <ele>521.2</ele>
        <time>2015-07-12T09:12:04.000Z</time>
      </trkpt>
      <trkpt lat="45.65695" lon="4.38317">
        <ele>529.4</ele>
        <time>2015-07-12T09:12:11.000Z</time>
      </trkpt>
      <trkpt lat="45.65691" lon="4.38317">
        <ele>530.1</ele>
        <time>2015-07-12T09:12:13.000Z</time>
      </trkpt>
      <trkpt lat="45.65679" lon="4.38321">
        <ele>532.6</ele>
        <time>2015-07-12T09:12:22.000Z</time>
      </trkpt>
      <trkpt lat="45.65677" lon="4.38317">
        <ele>532.8</ele>
        <time>2015-07-12T09:12:25.000Z</time>
      </trkpt>
      <trkpt lat="45.65675" lon="4.38311">
        <ele>532.7</ele>
        <time>2015-07-12T09:12:29.000Z</time>
      </trkpt>
      <trkpt lat="45.65671" lon="4.38286">
        <ele>533.7</ele>
        <time>2015-07-12T09:12:41.000Z</time>
      </trkpt>
      <trkpt lat="45.65669" lon="4.38279">
        <ele>534.2</ele>
        <time>2015-07-12T09:12:44.000Z</time>
      </trkpt>
      <trkpt lat="45.65662" lon="4.38256">
        <ele>535.3</ele>
        <time>2015-07-12T09:12:55.000Z</time>
      </trkpt>
      <trkpt lat="45.65654" lon="4.38233">
        <ele>536.7</ele>
        <time>2015-07-12T09:13:06.000Z</time>
      </trkpt>
      <trkpt lat="45.65646" lon="4.38209">
        <ele>538.2</ele>
        <time>2015-07-12T09:13:17.000Z</time>
      </trkpt>
      <trkpt lat="45.65639" lon="4.3819">
        <ele>540</ele>
        <time>2015-07-12T09:13:27.000Z</time>
      </trkpt>
      <trkpt lat="45.65634" lon="4.38178">
        <ele>541</ele>
        <time>2015-07-12T09:13:33.000Z</time>
      </trkpt>
      <trkpt lat="45.65627" lon="4.38153">
        <ele>542</ele>
        <time>2015-07-12T09:13:44.000Z</time>
      </trkpt>
      <trkpt lat="45.65618" lon="4.38131">
        <ele>543.5</ele>
        <time>2015-07-12T09:13:55.000Z</time>
      </trkpt>
      <trkpt lat="45.65607" lon="4.38108">
        <ele>546.7</ele>
        <time>2015-07-12T09:14:06.000Z</time>
      </trkpt>
      <trkpt lat="45.65594" lon="4.3809">
        <ele>548.5</ele>
        <time>2015-07-12T09:14:17.000Z</time>
      </trkpt>
      <trkpt lat="45.6558" lon="4.38073">
        <ele>551.2</ele>
        <time>2015-07-12T09:14:29.000Z</time>
      </trkpt>
      <trkpt lat="45.65566" lon="4.38062">
        <ele>553.7</ele>
        <time>2015-07-12T09:14:40.000Z</time>
      </trkpt>
      <trkpt lat="45.65561" lon="4.38059">
        <ele>554.3</ele>
        <time>2015-07-12T09:14:44.000Z</time>
      </trkpt>
      <trkpt lat="45.6556" lon="4.38058">
        <ele>554.5</ele>
        <time>2015-07-12T09:14:45.000Z</time>
      </trkpt>
      <trkpt lat="45.65555" lon="4.38054">
        <ele>555.2</ele>
        <time>2015-07-12T09:14:50.000Z</time>
      </trkpt>
      <trkpt lat="45.65552" lon="4.38053">
        <ele>555.7</ele>
        <time>2015-07-12T09:14:52.000Z</time>
      </trkpt>
      <trkpt lat="45.65539" lon="4.38044">
        <ele>558.1</ele>
        <time>2015-07-12T09:15:02.000Z</time>
      </trkpt>
      <trkpt lat="45.65522" lon="4.38035">
        <ele>560.7</ele>
        <time>2015-07-12T09:15:13.000Z</time>
      </trkpt>
      <trkpt lat="45.65512" lon="4.38029">
        <ele>561.7</ele>
        <time>2015-07-12T09:15:20.000Z</time>
      </trkpt>
      <trkpt lat="45.65496" lon="4.38017">
        <ele>563.4</ele>
        <time>2015-07-12T09:15:31.000Z</time>
      </trkpt>
      <trkpt lat="45.6548" lon="4.38004">
        <ele>564</ele>
        <time>2015-07-12T09:15:43.000Z</time>
      </trkpt>
      <trkpt lat="45.65463" lon="4.37992">
        <ele>564.9</ele>
        <time>2015-07-12T09:15:55.000Z</time>
      </trkpt>
      <trkpt lat="45.65454" lon="4.37978">
        <ele>565.5</ele>
        <time>2015-07-12T09:16:03.000Z</time>
      </trkpt>
      <trkpt lat="45.65441" lon="4.37966">
        <ele>566</ele>
        <time>2015-07-12T09:16:10.000Z</time>
      </trkpt>
      <trkpt lat="45.65424" lon="4.37952">
        <ele>566.2</ele>
        <time>2015-07-12T09:16:18.000Z</time>
      </trkpt>
      <trkpt lat="45.6541" lon="4.37944">
        <ele>566.4</ele>
        <time>2015-07-12T09:16:23.000Z</time>
      </trkpt>
      <trkpt lat="45.65392" lon="4.37936">
        <ele>567.2</ele>
        <time>2015-07-12T09:16:28.000Z</time>
      </trkpt>
      <trkpt lat="45.65374" lon="4.37932">
        <ele>567.1</ele>
        <time>2015-07-12T09:16:34.000Z</time>
      </trkpt>
      <trkpt lat="45.65355" lon="4.3793">
        <ele>567</ele>
        <time>2015-07-12T09:16:41.000Z</time>
      </trkpt>
      <trkpt lat="45.65341" lon="4.37946">
        <ele>567</ele>
        <time>2015-07-12T09:16:48.000Z</time>
      </trkpt>
      <trkpt lat="45.65336" lon="4.37972">
        <ele>567.2</ele>
        <time>2015-07-12T09:16:55.000Z</time>
      </trkpt>
      <trkpt lat="45.65329" lon="4.37999">
        <ele>567.2</ele>
        <time>2015-07-12T09:17:01.000Z</time>
      </trkpt>
      <trkpt lat="45.65319" lon="4.38027">
        <ele>567</ele>
        <time>2015-07-12T09:17:07.000Z</time>
      </trkpt>
      <trkpt lat="45.65308" lon="4.38052">
        <ele>565.3</ele>
        <time>2015-07-12T09:17:11.000Z</time>
      </trkpt>
      <trkpt lat="45.65298" lon="4.38074">
        <ele>564.3</ele>
        <time>2015-07-12T09:17:14.000Z</time>
      </trkpt>
      <trkpt lat="45.65289" lon="4.38098">
        <ele>563</ele>
        <time>2015-07-12T09:17:17.000Z</time>
      </trkpt>
      <trkpt lat="45.65277" lon="4.38119">
        <ele>562.4</ele>
        <time>2015-07-12T09:17:20.000Z</time>
      </trkpt>
      <trkpt lat="45.65261" lon="4.38142">
        <ele>562.1</ele>
        <time>2015-07-12T09:17:24.000Z</time>
      </trkpt>
      <trkpt lat="45.65248" lon="4.38161">
        <ele>563.1</ele>
        <time>2015-07-12T09:17:28.000Z</time>
      </trkpt>
      <trkpt lat="45.65234" lon="4.38183">
        <ele>563.6</ele>
        <time>2015-07-12T09:17:33.000Z</time>
      </trkpt>
      <trkpt lat="45.65223" lon="4.38198">
        <ele>564.1</ele>
        <time>2015-07-12T09:17:37.000Z</time>
      </trkpt>
      <trkpt lat="45.6521" lon="4.38198">
        <ele>565</ele>
        <time>2015-07-12T09:17:41.000Z</time>
      </trkpt>
      <trkpt lat="45.65204" lon="4.38196">
        <ele>565.3</ele>
        <time>2015-07-12T09:17:43.000Z</time>
      </trkpt>
      <trkpt lat="45.65186" lon="4.38197">
        <ele>566.1</ele>
        <time>2015-07-12T09:17:50.000Z</time>
      </trkpt>
      <trkpt lat="45.65184" lon="4.38198">
        <ele>566.1</ele>
        <time>2015-07-12T09:17:51.000Z</time>
      </trkpt>
      <trkpt lat="45.65175" lon="4.38202">
        <ele>566.3</ele>
        <time>2015-07-12T09:17:55.000Z</time>
      </trkpt>
      <trkpt lat="45.65154" lon="4.3821">
        <ele>565.4</ele>
        <time>2015-07-12T09:18:02.000Z</time>
      </trkpt>
      <trkpt lat="45.65138" lon="4.38222">
        <ele>564.8</ele>
        <time>2015-07-12T09:18:06.000Z</time>
      </trkpt>
      <trkpt lat="45.65134" lon="4.38226">
        <ele>563.6</ele>
        <time>2015-07-12T09:18:07.000Z</time>
      </trkpt>
      <trkpt lat="45.65125" lon="4.38237">
        <ele>561.8</ele>
        <time>2015-07-12T09:18:09.000Z</time>
      </trkpt>
      <trkpt lat="45.65114" lon="4.38259">
        <ele>561.6</ele>
        <time>2015-07-12T09:18:12.000Z</time>
      </trkpt>
      <trkpt lat="45.65111" lon="4.38267">
        <ele>561.6</ele>
        <time>2015-07-12T09:18:13.000Z</time>
      </trkpt>
      <trkpt lat="45.65098" lon="4.38288">
        <ele>561.2</ele>
        <time>2015-07-12T09:18:17.000Z</time>
      </trkpt>
      <trkpt lat="45.65094" lon="4.38292">
        <ele>561.2</ele>
        <time>2015-07-12T09:18:18.000Z</time>
      </trkpt>
      <trkpt lat="45.65077" lon="4.3831">
        <ele>560.1</ele>
        <time>2015-07-12T09:18:22.000Z</time>
      </trkpt>
      <trkpt lat="45.65074" lon="4.38316">
        <ele>559.4</ele>
        <time>2015-07-12T09:18:23.000Z</time>
      </trkpt>
      <trkpt lat="45.65066" lon="4.38343">
        <ele>558.4</ele>
        <time>2015-07-12T09:18:27.000Z</time>
      </trkpt>
      <trkpt lat="45.65065" lon="4.3835">
        <ele>558.1</ele>
        <time>2015-07-12T09:18:28.000Z</time>
      </trkpt>
      <trkpt lat="45.65057" lon="4.38375">
        <ele>556.4</ele>
        <time>2015-07-12T09:18:32.000Z</time>
      </trkpt>
      <trkpt lat="45.65055" lon="4.38383">
        <ele>556.3</ele>
        <time>2015-07-12T09:18:33.000Z</time>
      </trkpt>
      <trkpt lat="45.6505" lon="4.38411">
        <ele>553.9</ele>
        <time>2015-07-12T09:18:36.000Z</time>
      </trkpt>
      <trkpt lat="45.65047" lon="4.3842">
        <ele>553.1</ele>
        <time>2015-07-12T09:18:37.000Z</time>
      </trkpt>
      <trkpt lat="45.65038" lon="4.38443">
        <ele>552.6</ele>
        <time>2015-07-12T09:18:40.000Z</time>
      </trkpt>
      <trkpt lat="45.6503" lon="4.38456">
        <ele>552.4</ele>
        <time>2015-07-12T09:18:42.000Z</time>
      </trkpt>
      <trkpt lat="45.65023" lon="4.3847">
        <ele>552.2</ele>
        <time>2015-07-12T09:18:44.000Z</time>
      </trkpt>
      <trkpt lat="45.65015" lon="4.38494">
        <ele>551.5</ele>
        <time>2015-07-12T09:18:47.000Z</time>
      </trkpt>
      <trkpt lat="45.65013" lon="4.38501">
        <ele>551.4</ele>
        <time>2015-07-12T09:18:48.000Z</time>
      </trkpt>
      <trkpt lat="45.65006" lon="4.38533">
        <ele>551.2</ele>
        <time>2015-07-12T09:18:52.000Z</time>
      </trkpt>
      <trkpt lat="45.64999" lon="4.38561">
        <ele>552.1</ele>
        <time>2015-07-12T09:18:56.000Z</time>
      </trkpt>
      <trkpt lat="45.64996" lon="4.38587">
        <ele>553</ele>
        <time>2015-07-12T09:19:00.000Z</time>
      </trkpt>
      <trkpt lat="45.64995" lon="4.38594">
        <ele>552.7</ele>
        <time>2015-07-12T09:19:01.000Z</time>
      </trkpt>
      <trkpt lat="45.64997" lon="4.38621">
        <ele>551.9</ele>
        <time>2015-07-12T09:19:06.000Z</time>
      </trkpt>
      <trkpt lat="45.64998" lon="4.38628">
        <ele>551.6</ele>
        <time>2015-07-12T09:19:08.000Z</time>
      </trkpt>
      <trkpt lat="45.65004" lon="4.38655">
        <ele>552.6</ele>
        <time>2015-07-12T09:19:16.000Z</time>
      </trkpt>
      <trkpt lat="45.64996" lon="4.38677">
        <ele>553.8</ele>
        <time>2015-07-12T09:19:25.000Z</time>
      </trkpt>
      <trkpt lat="45.64992" lon="4.38686">
        <ele>555.5</ele>
        <time>2015-07-12T09:19:30.000Z</time>
      </trkpt>
      <trkpt lat="45.64982" lon="4.38702">
        <ele>559.2</ele>
        <time>2015-07-12T09:20:00.000Z</time>
      </trkpt>
      <trkpt lat="45.6497" lon="4.38722">
        <ele>564.1</ele>
        <time>2015-07-12T09:20:15.000Z</time>
      </trkpt>
      <trkpt lat="45.64963" lon="4.38735">
        <ele>566.5</ele>
        <time>2015-07-12T09:20:26.000Z</time>
      </trkpt>
      <trkpt lat="45.64957" lon="4.38743">
        <ele>568.1</ele>
        <time>2015-07-12T09:20:34.000Z</time>
      </trkpt>
      <trkpt lat="45.64952" lon="4.38749">
        <ele>569.4</ele>
        <time>2015-07-12T09:20:40.000Z</time>
      </trkpt>
      <trkpt lat="45.64942" lon="4.38765">
        <ele>571.7</ele>
        <time>2015-07-12T09:20:54.000Z</time>
      </trkpt>
      <trkpt lat="45.64929" lon="4.38783">
        <ele>574.1</ele>
        <time>2015-07-12T09:21:08.000Z</time>
      </trkpt>
      <trkpt lat="45.64926" lon="4.38784">
        <ele>574.3</ele>
        <time>2015-07-12T09:21:09.000Z</time>
      </trkpt>
      <trkpt lat="45.64916" lon="4.38787">
        <ele>575</ele>
        <time>2015-07-12T09:21:14.000Z</time>
      </trkpt>
      <trkpt lat="45.64898" lon="4.38795">
        <ele>576.5</ele>
        <time>2015-07-12T09:21:25.000Z</time>
      </trkpt>
      <trkpt lat="45.64881" lon="4.38799">
        <ele>577.4</ele>
        <time>2015-07-12T09:21:34.000Z</time>
      </trkpt>
      <trkpt lat="45.64863" lon="4.38804">
        <ele>578.6</ele>
        <time>2015-07-12T09:21:42.000Z</time>
      </trkpt>
      <trkpt lat="45.64843" lon="4.3881">
        <ele>579.5</ele>
        <time>2015-07-12T09:21:51.000Z</time>
      </trkpt>
      <trkpt lat="45.64829" lon="4.38823">
        <ele>580.9</ele>
        <time>2015-07-12T09:22:00.000Z</time>
      </trkpt>
      <trkpt lat="45.64817" lon="4.38843">
        <ele>583.2</ele>
        <time>2015-07-12T09:22:09.000Z</time>
      </trkpt>
      <trkpt lat="45.64808" lon="4.3885">
        <ele>584.3</ele>
        <time>2015-07-12T09:22:17.000Z</time>
      </trkpt>
      <trkpt lat="45.64792" lon="4.38864">
        <ele>587.9</ele>
        <time>2015-07-12T09:22:34.000Z</time>
      </trkpt>
      <trkpt lat="45.64791" lon="4.38864">
        <ele>588</ele>
        <time>2015-07-12T09:22:35.000Z</time>
      </trkpt>
      <trkpt lat="45.64778" lon="4.38862">
        <ele>589</ele>
        <time>2015-07-12T09:22:44.000Z</time>
      </trkpt>
      <trkpt lat="45.64761" lon="4.38849">
        <ele>589.4</ele>
        <time>2015-07-12T09:22:53.000Z</time>
      </trkpt>
      <trkpt lat="45.64741" lon="4.38844">
        <ele>591.1</ele>
        <time>2015-07-12T09:23:00.000Z</time>
      </trkpt>
      <trkpt lat="45.64723" lon="4.38848">
        <ele>593.5</ele>
        <time>2015-07-12T09:23:06.000Z</time>
      </trkpt>
      <trkpt lat="45.64703" lon="4.38858">
        <ele>596.1</ele>
        <time>2015-07-12T09:23:14.000Z</time>
      </trkpt>
      <trkpt lat="45.64685" lon="4.38862">
        <ele>597.8</ele>
        <time>2015-07-12T09:23:21.000Z</time>
      </trkpt>
      <trkpt lat="45.64666" lon="4.38868">
        <ele>599.8</ele>
        <time>2015-07-12T09:23:30.000Z</time>
      </trkpt>
      <trkpt lat="45.64648" lon="4.38873">
        <ele>601.3</ele>
        <time>2015-07-12T09:23:39.000Z</time>
      </trkpt>
      <trkpt lat="45.64629" lon="4.38876">
        <ele>602.6</ele>
        <time>2015-07-12T09:23:49.000Z</time>
      </trkpt>
      <trkpt lat="45.64609" lon="4.38876">
        <ele>603.6</ele>
        <time>2015-07-12T09:23:59.000Z</time>
      </trkpt>
      <trkpt lat="45.64592" lon="4.38884">
        <ele>605.2</ele>
        <time>2015-07-12T09:24:08.000Z</time>
      </trkpt>
      <trkpt lat="45.64573" lon="4.38892">
        <ele>606.1</ele>
        <time>2015-07-12T09:24:17.000Z</time>
      </trkpt>
      <trkpt lat="45.64556" lon="4.38901">
        <ele>606.9</ele>
        <time>2015-07-12T09:24:25.000Z</time>
      </trkpt>
      <trkpt lat="45.64539" lon="4.38912">
        <ele>607.7</ele>
        <time>2015-07-12T09:24:34.000Z</time>
      </trkpt>
      <trkpt lat="45.64523" lon="4.38925">
        <ele>608.6</ele>
        <time>2015-07-12T09:24:45.000Z</time>
      </trkpt>
      <trkpt lat="45.64522" lon="4.38927">
        <ele>608.8</ele>
        <time>2015-07-12T09:24:46.000Z</time>
      </trkpt>
      <trkpt lat="45.64525" lon="4.38938">
        <ele>609.6</ele>
        <time>2015-07-12T09:24:50.000Z</time>
      </trkpt>
      <trkpt lat="45.64533" lon="4.38963">
        <ele>610.6</ele>
        <time>2015-07-12T09:24:59.000Z</time>
      </trkpt>
      <trkpt lat="45.64542" lon="4.38988">
        <ele>611.6</ele>
        <time>2015-07-12T09:25:08.000Z</time>
      </trkpt>
      <trkpt lat="45.6455" lon="4.39013">
        <ele>613</ele>
        <time>2015-07-12T09:25:17.000Z</time>
      </trkpt>
      <trkpt lat="45.64559" lon="4.39038">
        <ele>614.4</ele>
        <time>2015-07-12T09:25:26.000Z</time>
      </trkpt>
      <trkpt lat="45.64569" lon="4.39062">
        <ele>615.4</ele>
        <time>2015-07-12T09:25:37.000Z</time>
      </trkpt>
      <trkpt lat="45.64579" lon="4.39086">
        <ele>617.2</ele>
        <time>2015-07-12T09:25:48.000Z</time>
      </trkpt>
      <trkpt lat="45.64588" lon="4.39109">
        <ele>619.2</ele>
        <time>2015-07-12T09:26:00.000Z</time>
      </trkpt>
      <trkpt lat="45.64598" lon="4.39133">
        <ele>621.2</ele>
        <time>2015-07-12T09:26:13.000Z</time>
      </trkpt>
      <trkpt lat="45.64606" lon="4.39158">
        <ele>623.1</ele>
        <time>2015-07-12T09:26:27.000Z</time>
      </trkpt>
      <trkpt lat="45.64612" lon="4.39183">
        <ele>624.6</ele>
        <time>2015-07-12T09:26:38.000Z</time>
      </trkpt>
      <trkpt lat="45.6462" lon="4.39207">
        <ele>625.3</ele>
        <time>2015-07-12T09:26:49.000Z</time>
      </trkpt>
      <trkpt lat="45.64627" lon="4.39231">
        <ele>625.6</ele>
        <time>2015-07-12T09:26:59.000Z</time>
      </trkpt>
      <trkpt lat="45.64634" lon="4.39255">
        <ele>625.2</ele>
        <time>2015-07-12T09:27:07.000Z</time>
      </trkpt>
      <trkpt lat="45.64642" lon="4.39279">
        <ele>623.6</ele>
        <time>2015-07-12T09:27:13.000Z</time>
      </trkpt>
      <trkpt lat="45.64637" lon="4.39307">
        <ele>622.2</ele>
        <time>2015-07-12T09:27:20.000Z</time>
      </trkpt>
      <trkpt lat="45.64625" lon="4.39332">
        <ele>621.1</ele>
        <time>2015-07-12T09:27:25.000Z</time>
      </trkpt>
      <trkpt lat="45.64616" lon="4.3935">
        <ele>619.8</ele>
        <time>2015-07-12T09:27:28.000Z</time>
      </trkpt>
      <trkpt lat="45.64601" lon="4.39365">
        <ele>619.6</ele>
        <time>2015-07-12T09:27:32.000Z</time>
      </trkpt>
      <trkpt lat="45.64587" lon="4.39382">
        <ele>619.4</ele>
        <time>2015-07-12T09:27:36.000Z</time>
      </trkpt>
      <trkpt lat="45.64583" lon="4.39386">
        <ele>619.3</ele>
        <time>2015-07-12T09:27:37.000Z</time>
      </trkpt>
      <trkpt lat="45.64569" lon="4.39405">
        <ele>618.8</ele>
        <time>2015-07-12T09:27:41.000Z</time>
      </trkpt>
      <trkpt lat="45.64555" lon="4.39424">
        <ele>618.8</ele>
        <time>2015-07-12T09:27:45.000Z</time>
      </trkpt>
      <trkpt lat="45.64552" lon="4.39429">
        <ele>619</ele>
        <time>2015-07-12T09:27:46.000Z</time>
      </trkpt>
      <trkpt lat="45.64539" lon="4.39451">
        <ele>619.4</ele>
        <time>2015-07-12T09:27:50.000Z</time>
      </trkpt>
      <trkpt lat="45.64527" lon="4.39472">
        <ele>620</ele>
        <time>2015-07-12T09:27:54.000Z</time>
      </trkpt>
      <trkpt lat="45.64516" lon="4.39495">
        <ele>619.9</ele>
        <time>2015-07-12T09:27:59.000Z</time>
      </trkpt>
      <trkpt lat="45.64506" lon="4.39518">
        <ele>620.7</ele>
        <time>2015-07-12T09:28:05.000Z</time>
      </trkpt>
      <trkpt lat="45.64496" lon="4.3954">
        <ele>620.8</ele>
        <time>2015-07-12T09:28:12.000Z</time>
      </trkpt>
      <trkpt lat="45.64486" lon="4.39563">
        <ele>620.7</ele>
        <time>2015-07-12T09:28:22.000Z</time>
      </trkpt>
      <trkpt lat="45.64477" lon="4.39589">
        <ele>620.6</ele>
        <time>2015-07-12T09:28:30.000Z</time>
      </trkpt>
      <trkpt lat="45.64469" lon="4.39613">
        <ele>621.1</ele>
        <time>2015-07-12T09:28:37.000Z</time>
      </trkpt>
      <trkpt lat="45.64462" lon="4.39621">
        <ele>621.5</ele>
        <time>2015-07-12T09:28:40.000Z</time>
      </trkpt>
      <trkpt lat="45.64444" lon="4.39619">
        <ele>623</ele>
        <time>2015-07-12T09:28:45.000Z</time>
      </trkpt>
      <trkpt lat="45.64425" lon="4.39617">
        <ele>624.3</ele>
        <time>2015-07-12T09:28:51.000Z</time>
      </trkpt>
      <trkpt lat="45.64405" lon="4.39623">
        <ele>625</ele>
        <time>2015-07-12T09:28:58.000Z</time>
      </trkpt>
      <trkpt lat="45.64386" lon="4.39634">
        <ele>625.4</ele>
        <time>2015-07-12T09:29:05.000Z</time>
      </trkpt>
      <trkpt lat="45.64368" lon="4.39648">
        <ele>626.4</ele>
        <time>2015-07-12T09:29:12.000Z</time>
      </trkpt>
      <trkpt lat="45.64354" lon="4.39667">
        <ele>627.3</ele>
        <time>2015-07-12T09:29:18.000Z</time>
      </trkpt>
      <trkpt lat="45.6434" lon="4.3969">
        <ele>626.9</ele>
        <time>2015-07-12T09:29:24.000Z</time>
      </trkpt>
      <trkpt lat="45.64327" lon="4.39709">
        <ele>626.7</ele>
        <time>2015-07-12T09:29:29.000Z</time>
      </trkpt>
      <trkpt lat="45.64313" lon="4.39729">
        <ele>626.6</ele>
        <time>2015-07-12T09:29:34.000Z</time>
      </trkpt>
      <trkpt lat="45.64298" lon="4.39752">
        <ele>626.2</ele>
        <time>2015-07-12T09:29:39.000Z</time>
      </trkpt>
      <trkpt lat="45.64285" lon="4.39763">
        <ele>625.9</ele>
        <time>2015-07-12T09:29:44.000Z</time>
      </trkpt>
      <trkpt lat="45.6427" lon="4.39744">
        <ele>627.4</ele>
        <time>2015-07-12T09:29:52.000Z</time>
      </trkpt>
      <trkpt lat="45.64258" lon="4.39725">
        <ele>628.2</ele>
        <time>2015-07-12T09:29:59.000Z</time>
      </trkpt>
      <trkpt lat="45.64243" lon="4.39705">
        <ele>629.2</ele>
        <time>2015-07-12T09:30:07.000Z</time>
      </trkpt>
      <trkpt lat="45.64229" lon="4.39684">
        <ele>629.9</ele>
        <time>2015-07-12T09:30:15.000Z</time>
      </trkpt>
      <trkpt lat="45.64217" lon="4.39666">
        <ele>630.8</ele>
        <time>2015-07-12T09:30:22.000Z</time>
      </trkpt>
      <trkpt lat="45.64204" lon="4.39647">
        <ele>630.6</ele>
        <time>2015-07-12T09:30:28.000Z</time>
      </trkpt>
      <trkpt lat="45.6419" lon="4.39629">
        <ele>630.2</ele>
        <time>2015-07-12T09:30:33.000Z</time>
      </trkpt>
      <trkpt lat="45.64175" lon="4.39609">
        <ele>629.6</ele>
        <time>2015-07-12T09:30:38.000Z</time>
      </trkpt>
      <trkpt lat="45.64161" lon="4.39592">
        <ele>628.9</ele>
        <time>2015-07-12T09:30:42.000Z</time>
      </trkpt>
      <trkpt lat="45.64148" lon="4.39573">
        <ele>628.1</ele>
        <time>2015-07-12T09:30:46.000Z</time>
      </trkpt>
      <trkpt lat="45.64133" lon="4.39551">
        <ele>627</ele>
        <time>2015-07-12T09:30:50.000Z</time>
      </trkpt>
      <trkpt lat="45.64119" lon="4.39533">
        <ele>626.4</ele>
        <time>2015-07-12T09:30:53.000Z</time>
      </trkpt>
      <trkpt lat="45.64104" lon="4.39514">
        <ele>625.5</ele>
        <time>2015-07-12T09:30:56.000Z</time>
      </trkpt>
      <trkpt lat="45.64089" lon="4.39494">
        <ele>624.8</ele>
        <time>2015-07-12T09:30:59.000Z</time>
      </trkpt>
      <trkpt lat="45.64072" lon="4.39471">
        <ele>623.6</ele>
        <time>2015-07-12T09:31:02.000Z</time>
      </trkpt>
      <trkpt lat="45.64056" lon="4.3945">
        <ele>622.2</ele>
        <time>2015-07-12T09:31:05.000Z</time>
      </trkpt>
      <trkpt lat="45.6404" lon="4.39428">
        <ele>621.4</ele>
        <time>2015-07-12T09:31:09.000Z</time>
      </trkpt>
      <trkpt lat="45.64029" lon="4.39418">
        <ele>621.1</ele>
        <time>2015-07-12T09:31:14.000Z</time>
      </trkpt>
      <trkpt lat="45.64012" lon="4.3943">
        <ele>621.5</ele>
        <time>2015-07-12T09:31:19.000Z</time>
      </trkpt>
      <trkpt lat="45.63994" lon="4.39444">
        <ele>622</ele>
        <time>2015-07-12T09:31:25.000Z</time>
      </trkpt>
      <trkpt lat="45.6398" lon="4.39466">
        <ele>622</ele>
        <time>2015-07-12T09:31:31.000Z</time>
      </trkpt>
      <trkpt lat="45.63964" lon="4.39479">
        <ele>621.7</ele>
        <time>2015-07-12T09:31:36.000Z</time>
      </trkpt>
      <trkpt lat="45.63945" lon="4.39491">
        <ele>621</ele>
        <time>2015-07-12T09:31:41.000Z</time>
      </trkpt>
      <trkpt lat="45.63926" lon="4.39499">
        <ele>620.3</ele>
        <time>2015-07-12T09:31:45.000Z</time>
      </trkpt>
      <trkpt lat="45.63903" lon="4.39509">
        <ele>619.5</ele>
        <time>2015-07-12T09:31:49.000Z</time>
      </trkpt>
      <trkpt lat="45.63886" lon="4.39517">
        <ele>618.8</ele>
        <time>2015-07-12T09:31:52.000Z</time>
      </trkpt>
      <trkpt lat="45.63869" lon="4.39525">
        <ele>618.2</ele>
        <time>2015-07-12T09:31:55.000Z</time>
      </trkpt>
      <trkpt lat="45.63847" lon="4.39534">
        <ele>618.2</ele>
        <time>2015-07-12T09:31:59.000Z</time>
      </trkpt>
      <trkpt lat="45.63834" lon="4.39541">
        <ele>618</ele>
        <time>2015-07-12T09:32:02.000Z</time>
      </trkpt>
      <trkpt lat="45.63829" lon="4.39566">
        <ele>615.8</ele>
        <time>2015-07-12T09:32:06.000Z</time>
      </trkpt>
      <trkpt lat="45.63833" lon="4.39592">
        <ele>613</ele>
        <time>2015-07-12T09:32:09.000Z</time>
      </trkpt>
      <trkpt lat="45.63834" lon="4.39601">
        <ele>612.1</ele>
        <time>2015-07-12T09:32:10.000Z</time>
      </trkpt>
      <trkpt lat="45.63836" lon="4.39609">
        <ele>611.3</ele>
        <time>2015-07-12T09:32:11.000Z</time>
      </trkpt>
      <trkpt lat="45.63839" lon="4.39623">
        <ele>610.4</ele>
        <time>2015-07-12T09:32:13.000Z</time>
      </trkpt>
      <trkpt lat="45.63856" lon="4.39634">
        <ele>610.8</ele>
        <time>2015-07-12T09:32:18.000Z</time>
      </trkpt>
      <trkpt lat="45.63867" lon="4.3964">
        <ele>611.4</ele>
        <time>2015-07-12T09:32:24.000Z</time>
      </trkpt>
      <trkpt lat="45.63867" lon="4.39641">
        <ele>611.4</ele>
        <time>2015-07-12T09:32:25.000Z</time>
      </trkpt>
      <trkpt lat="45.63871" lon="4.39643">
        <ele>611.6</ele>
        <time>2015-07-12T09:32:36.000Z</time>
      </trkpt>
    </trkseg>
  </trk>
</gpx>